<?xml version="1.0" encoding="UTF-8" standalone="no" ?>
<gpx xmlns="http://www.topografix.com/GPX/1/1" xmlns:xsi="http://www.w3.org/2001/XMLSchema-instance" xsi:schemaLocation="http://www.topografix.com/GPX/1/1 http://www.topografix.com/GPX/1/1/gpx.xsd" version="1.1" creator="VisuGPX - https://www.visugpx.com">
  <metadata>
    <name>RS22-04-21</name>
  </metadata>
  <trk>
    <name><![CDATA[RS22-04-21_1]]></name>
    <trkseg>
      <trkpt lat="50.29181" lon="4.34379">
        <ele>167.8</ele>
        <time>2022-04-21T11:38:23Z</time>
      </trkpt>
      <trkpt lat="50.29181" lon="4.34379">
        <ele>167.8</ele>
        <time>2022-04-21T11:38:38Z</time>
      </trkpt>
      <trkpt lat="50.29181" lon="4.34379">
        <ele>167.6</ele>
        <time>2022-04-21T11:38:52Z</time>
      </trkpt>
      <trkpt lat="50.29181" lon="4.34379">
        <ele>167.6</ele>
        <time>2022-04-21T11:39:03Z</time>
      </trkpt>
      <trkpt lat="50.29181" lon="4.3438">
        <ele>167.8</ele>
        <time>2022-04-21T11:39:21Z</time>
      </trkpt>
      <trkpt lat="50.29181" lon="4.3438">
        <ele>167.8</ele>
        <time>2022-04-21T11:39:40Z</time>
      </trkpt>
      <trkpt lat="50.29181" lon="4.3438">
        <ele>167.8</ele>
        <time>2022-04-21T11:39:52Z</time>
      </trkpt>
      <trkpt lat="50.29181" lon="4.3438">
        <ele>167.8</ele>
        <time>2022-04-21T11:40:17Z</time>
      </trkpt>
      <trkpt lat="50.29181" lon="4.3438">
        <ele>167.8</ele>
        <time>2022-04-21T11:40:36Z</time>
      </trkpt>
      <trkpt lat="50.29181" lon="4.3438">
        <ele>168</ele>
        <time>2022-04-21T11:40:46Z</time>
      </trkpt>
      <trkpt lat="50.29181" lon="4.3438">
        <ele>168</ele>
        <time>2022-04-21T11:41:01Z</time>
      </trkpt>
      <trkpt lat="50.29181" lon="4.3438">
        <ele>168</ele>
        <time>2022-04-21T11:41:09Z</time>
      </trkpt>
      <trkpt lat="50.29181" lon="4.34381">
        <ele>168</ele>
        <time>2022-04-21T11:41:24Z</time>
      </trkpt>
      <trkpt lat="50.29181" lon="4.34381">
        <ele>168</ele>
        <time>2022-04-21T11:41:30Z</time>
      </trkpt>
      <trkpt lat="50.29181" lon="4.34381">
        <ele>168</ele>
        <time>2022-04-21T11:41:39Z</time>
      </trkpt>
      <trkpt lat="50.29181" lon="4.34381">
        <ele>168</ele>
        <time>2022-04-21T11:41:55Z</time>
      </trkpt>
      <trkpt lat="50.29181" lon="4.34381">
        <ele>167.8</ele>
        <time>2022-04-21T11:42:11Z</time>
      </trkpt>
      <trkpt lat="50.29181" lon="4.34381">
        <ele>167.8</ele>
        <time>2022-04-21T11:42:26Z</time>
      </trkpt>
      <trkpt lat="50.29181" lon="4.34382">
        <ele>167.6</ele>
        <time>2022-04-21T11:42:33Z</time>
      </trkpt>
      <trkpt lat="50.29179" lon="4.34387">
        <ele>167.4</ele>
        <time>2022-04-21T11:42:35Z</time>
      </trkpt>
      <trkpt lat="50.29168" lon="4.34398">
        <ele>167.2</ele>
        <time>2022-04-21T11:42:40Z</time>
      </trkpt>
      <trkpt lat="50.29164" lon="4.34397">
        <ele>167</ele>
        <time>2022-04-21T11:42:41Z</time>
      </trkpt>
      <trkpt lat="50.29156" lon="4.3439">
        <ele>167</ele>
        <time>2022-04-21T11:42:43Z</time>
      </trkpt>
      <trkpt lat="50.2915" lon="4.34364">
        <ele>166.6</ele>
        <time>2022-04-21T11:42:47Z</time>
      </trkpt>
      <trkpt lat="50.29148" lon="4.34347">
        <ele>166.4</ele>
        <time>2022-04-21T11:42:51Z</time>
      </trkpt>
      <trkpt lat="50.29146" lon="4.34336">
        <ele>166.4</ele>
        <time>2022-04-21T11:42:57Z</time>
      </trkpt>
      <trkpt lat="50.29146" lon="4.34336">
        <ele>165.8</ele>
        <time>2022-04-21T11:43:12Z</time>
      </trkpt>
      <trkpt lat="50.29146" lon="4.34336">
        <ele>165.4</ele>
        <time>2022-04-21T11:43:30Z</time>
      </trkpt>
      <trkpt lat="50.29146" lon="4.34329">
        <ele>164.8</ele>
        <time>2022-04-21T11:43:36Z</time>
      </trkpt>
      <trkpt lat="50.29145" lon="4.34302">
        <ele>164.6</ele>
        <time>2022-04-21T11:43:42Z</time>
      </trkpt>
      <trkpt lat="50.29144" lon="4.34261">
        <ele>164.4</ele>
        <time>2022-04-21T11:43:49Z</time>
      </trkpt>
      <trkpt lat="50.29143" lon="4.34256">
        <ele>164.4</ele>
        <time>2022-04-21T11:43:50Z</time>
      </trkpt>
      <trkpt lat="50.29141" lon="4.34235">
        <ele>164.6</ele>
        <time>2022-04-21T11:43:54Z</time>
      </trkpt>
      <trkpt lat="50.29132" lon="4.3419">
        <ele>164.4</ele>
        <time>2022-04-21T11:44:02Z</time>
      </trkpt>
      <trkpt lat="50.29125" lon="4.34155">
        <ele>163.8</ele>
        <time>2022-04-21T11:44:08Z</time>
      </trkpt>
      <trkpt lat="50.29121" lon="4.34131">
        <ele>163.2</ele>
        <time>2022-04-21T11:44:13Z</time>
      </trkpt>
      <trkpt lat="50.29115" lon="4.34106">
        <ele>162.4</ele>
        <time>2022-04-21T11:44:19Z</time>
      </trkpt>
      <trkpt lat="50.29112" lon="4.3409">
        <ele>162.2</ele>
        <time>2022-04-21T11:44:24Z</time>
      </trkpt>
      <trkpt lat="50.29112" lon="4.3409">
        <ele>161.6</ele>
        <time>2022-04-21T11:44:35Z</time>
      </trkpt>
      <trkpt lat="50.29112" lon="4.3409">
        <ele>160.6</ele>
        <time>2022-04-21T11:44:55Z</time>
      </trkpt>
      <trkpt lat="50.29112" lon="4.3409">
        <ele>160</ele>
        <time>2022-04-21T11:45:13Z</time>
      </trkpt>
      <trkpt lat="50.29111" lon="4.3409">
        <ele>159.4</ele>
        <time>2022-04-21T11:45:35Z</time>
      </trkpt>
      <trkpt lat="50.2911" lon="4.34093">
        <ele>159.4</ele>
        <time>2022-04-21T11:45:38Z</time>
      </trkpt>
      <trkpt lat="50.2911" lon="4.34097">
        <ele>159.2</ele>
        <time>2022-04-21T11:45:40Z</time>
      </trkpt>
      <trkpt lat="50.29114" lon="4.34115">
        <ele>159.4</ele>
        <time>2022-04-21T11:45:46Z</time>
      </trkpt>
      <trkpt lat="50.29118" lon="4.34138">
        <ele>159.6</ele>
        <time>2022-04-21T11:45:51Z</time>
      </trkpt>
      <trkpt lat="50.29125" lon="4.34169">
        <ele>159.8</ele>
        <time>2022-04-21T11:45:57Z</time>
      </trkpt>
      <trkpt lat="50.29132" lon="4.34197">
        <ele>160</ele>
        <time>2022-04-21T11:46:04Z</time>
      </trkpt>
      <trkpt lat="50.29139" lon="4.34227">
        <ele>160.4</ele>
        <time>2022-04-21T11:46:12Z</time>
      </trkpt>
      <trkpt lat="50.29143" lon="4.34236">
        <ele>160.4</ele>
        <time>2022-04-21T11:46:16Z</time>
      </trkpt>
      <trkpt lat="50.29143" lon="4.34238">
        <ele>160.4</ele>
        <time>2022-04-21T11:46:17Z</time>
      </trkpt>
      <trkpt lat="50.29141" lon="4.3424">
        <ele>160.4</ele>
        <time>2022-04-21T11:46:18Z</time>
      </trkpt>
      <trkpt lat="50.29135" lon="4.3424">
        <ele>160.4</ele>
        <time>2022-04-21T11:46:20Z</time>
      </trkpt>
      <trkpt lat="50.29129" lon="4.34242">
        <ele>160.4</ele>
        <time>2022-04-21T11:46:22Z</time>
      </trkpt>
      <trkpt lat="50.29127" lon="4.34243">
        <ele>160.4</ele>
        <time>2022-04-21T11:46:23Z</time>
      </trkpt>
      <trkpt lat="50.29113" lon="4.34251">
        <ele>160.4</ele>
        <time>2022-04-21T11:46:28Z</time>
      </trkpt>
      <trkpt lat="50.29095" lon="4.34263">
        <ele>160.4</ele>
        <time>2022-04-21T11:46:34Z</time>
      </trkpt>
      <trkpt lat="50.29082" lon="4.34266">
        <ele>160.4</ele>
        <time>2022-04-21T11:46:39Z</time>
      </trkpt>
      <trkpt lat="50.29074" lon="4.34269">
        <ele>160.4</ele>
        <time>2022-04-21T11:46:43Z</time>
      </trkpt>
      <trkpt lat="50.29059" lon="4.34272">
        <ele>160</ele>
        <time>2022-04-21T11:46:48Z</time>
      </trkpt>
      <trkpt lat="50.29038" lon="4.34277">
        <ele>160.4</ele>
        <time>2022-04-21T11:46:54Z</time>
      </trkpt>
      <trkpt lat="50.29019" lon="4.34277">
        <ele>160.8</ele>
        <time>2022-04-21T11:47:00Z</time>
      </trkpt>
      <trkpt lat="50.29005" lon="4.34271">
        <ele>161.2</ele>
        <time>2022-04-21T11:47:04Z</time>
      </trkpt>
      <trkpt lat="50.2899" lon="4.34264">
        <ele>161.6</ele>
        <time>2022-04-21T11:47:11Z</time>
      </trkpt>
      <trkpt lat="50.28973" lon="4.34265">
        <ele>162.2</ele>
        <time>2022-04-21T11:47:17Z</time>
      </trkpt>
      <trkpt lat="50.2896" lon="4.34256">
        <ele>162.4</ele>
        <time>2022-04-21T11:47:21Z</time>
      </trkpt>
      <trkpt lat="50.28956" lon="4.34248">
        <ele>162.4</ele>
        <time>2022-04-21T11:47:23Z</time>
      </trkpt>
      <trkpt lat="50.28955" lon="4.34242">
        <ele>162.4</ele>
        <time>2022-04-21T11:47:24Z</time>
      </trkpt>
      <trkpt lat="50.28957" lon="4.34203">
        <ele>162.2</ele>
        <time>2022-04-21T11:47:30Z</time>
      </trkpt>
      <trkpt lat="50.28956" lon="4.34196">
        <ele>162.2</ele>
        <time>2022-04-21T11:47:31Z</time>
      </trkpt>
      <trkpt lat="50.28953" lon="4.34182">
        <ele>162.2</ele>
        <time>2022-04-21T11:47:33Z</time>
      </trkpt>
      <trkpt lat="50.28951" lon="4.34176">
        <ele>162.2</ele>
        <time>2022-04-21T11:47:34Z</time>
      </trkpt>
      <trkpt lat="50.28948" lon="4.34171">
        <ele>162.2</ele>
        <time>2022-04-21T11:47:35Z</time>
      </trkpt>
      <trkpt lat="50.28939" lon="4.34166">
        <ele>162.2</ele>
        <time>2022-04-21T11:47:37Z</time>
      </trkpt>
      <trkpt lat="50.28909" lon="4.34158">
        <ele>161.6</ele>
        <time>2022-04-21T11:47:44Z</time>
      </trkpt>
      <trkpt lat="50.28873" lon="4.34154">
        <ele>161.4</ele>
        <time>2022-04-21T11:47:52Z</time>
      </trkpt>
      <trkpt lat="50.2884" lon="4.34154">
        <ele>161.4</ele>
        <time>2022-04-21T11:48:00Z</time>
      </trkpt>
      <trkpt lat="50.28819" lon="4.34147">
        <ele>161.2</ele>
        <time>2022-04-21T11:48:06Z</time>
      </trkpt>
      <trkpt lat="50.28817" lon="4.34141">
        <ele>161.2</ele>
        <time>2022-04-21T11:48:07Z</time>
      </trkpt>
      <trkpt lat="50.28815" lon="4.34123">
        <ele>161.2</ele>
        <time>2022-04-21T11:48:10Z</time>
      </trkpt>
      <trkpt lat="50.28814" lon="4.34082">
        <ele>161.2</ele>
        <time>2022-04-21T11:48:17Z</time>
      </trkpt>
      <trkpt lat="50.28814" lon="4.34024">
        <ele>161.6</ele>
        <time>2022-04-21T11:48:27Z</time>
      </trkpt>
      <trkpt lat="50.28817" lon="4.33967">
        <ele>162</ele>
        <time>2022-04-21T11:48:37Z</time>
      </trkpt>
      <trkpt lat="50.2882" lon="4.33921">
        <ele>162.4</ele>
        <time>2022-04-21T11:48:45Z</time>
      </trkpt>
      <trkpt lat="50.28811" lon="4.33911">
        <ele>162.6</ele>
        <time>2022-04-21T11:48:48Z</time>
      </trkpt>
      <trkpt lat="50.28792" lon="4.33907">
        <ele>163</ele>
        <time>2022-04-21T11:48:53Z</time>
      </trkpt>
      <trkpt lat="50.28762" lon="4.33905">
        <ele>163.4</ele>
        <time>2022-04-21T11:49:01Z</time>
      </trkpt>
      <trkpt lat="50.2872" lon="4.33902">
        <ele>163.6</ele>
        <time>2022-04-21T11:49:10Z</time>
      </trkpt>
      <trkpt lat="50.28674" lon="4.33898">
        <ele>163.8</ele>
        <time>2022-04-21T11:49:19Z</time>
      </trkpt>
      <trkpt lat="50.28632" lon="4.33891">
        <ele>163.8</ele>
        <time>2022-04-21T11:49:27Z</time>
      </trkpt>
      <trkpt lat="50.28579" lon="4.33882">
        <ele>164</ele>
        <time>2022-04-21T11:49:36Z</time>
      </trkpt>
      <trkpt lat="50.28542" lon="4.3388">
        <ele>163.8</ele>
        <time>2022-04-21T11:49:42Z</time>
      </trkpt>
      <trkpt lat="50.2853" lon="4.33872">
        <ele>163.8</ele>
        <time>2022-04-21T11:49:44Z</time>
      </trkpt>
      <trkpt lat="50.28525" lon="4.33866">
        <ele>164</ele>
        <time>2022-04-21T11:49:45Z</time>
      </trkpt>
      <trkpt lat="50.28489" lon="4.33814">
        <ele>164</ele>
        <time>2022-04-21T11:49:53Z</time>
      </trkpt>
      <trkpt lat="50.28447" lon="4.33748">
        <ele>164.2</ele>
        <time>2022-04-21T11:50:03Z</time>
      </trkpt>
      <trkpt lat="50.28443" lon="4.33741">
        <ele>164.2</ele>
        <time>2022-04-21T11:50:04Z</time>
      </trkpt>
      <trkpt lat="50.28403" lon="4.33681">
        <ele>164.6</ele>
        <time>2022-04-21T11:50:13Z</time>
      </trkpt>
      <trkpt lat="50.28357" lon="4.33623">
        <ele>164.8</ele>
        <time>2022-04-21T11:50:23Z</time>
      </trkpt>
      <trkpt lat="50.28328" lon="4.336">
        <ele>165</ele>
        <time>2022-04-21T11:50:29Z</time>
      </trkpt>
      <trkpt lat="50.28297" lon="4.33589">
        <ele>165.4</ele>
        <time>2022-04-21T11:50:35Z</time>
      </trkpt>
      <trkpt lat="50.28278" lon="4.33585">
        <ele>165.6</ele>
        <time>2022-04-21T11:50:41Z</time>
      </trkpt>
      <trkpt lat="50.28255" lon="4.3358">
        <ele>165.8</ele>
        <time>2022-04-21T11:50:48Z</time>
      </trkpt>
      <trkpt lat="50.28219" lon="4.33577">
        <ele>166</ele>
        <time>2022-04-21T11:50:56Z</time>
      </trkpt>
      <trkpt lat="50.28205" lon="4.33577">
        <ele>166</ele>
        <time>2022-04-21T11:50:59Z</time>
      </trkpt>
      <trkpt lat="50.28192" lon="4.33574">
        <ele>166.2</ele>
        <time>2022-04-21T11:51:02Z</time>
      </trkpt>
      <trkpt lat="50.28156" lon="4.3357">
        <ele>166.4</ele>
        <time>2022-04-21T11:51:09Z</time>
      </trkpt>
      <trkpt lat="50.28102" lon="4.3356">
        <ele>167</ele>
        <time>2022-04-21T11:51:20Z</time>
      </trkpt>
      <trkpt lat="50.28092" lon="4.33558">
        <ele>167.2</ele>
        <time>2022-04-21T11:51:22Z</time>
      </trkpt>
      <trkpt lat="50.28043" lon="4.33545">
        <ele>168</ele>
        <time>2022-04-21T11:51:32Z</time>
      </trkpt>
      <trkpt lat="50.28018" lon="4.33536">
        <ele>168.4</ele>
        <time>2022-04-21T11:51:37Z</time>
      </trkpt>
      <trkpt lat="50.28008" lon="4.33532">
        <ele>168.4</ele>
        <time>2022-04-21T11:51:39Z</time>
      </trkpt>
      <trkpt lat="50.27963" lon="4.33514">
        <ele>169.2</ele>
        <time>2022-04-21T11:51:48Z</time>
      </trkpt>
      <trkpt lat="50.27919" lon="4.33496">
        <ele>170.2</ele>
        <time>2022-04-21T11:51:57Z</time>
      </trkpt>
      <trkpt lat="50.279" lon="4.33482">
        <ele>170.8</ele>
        <time>2022-04-21T11:52:03Z</time>
      </trkpt>
      <trkpt lat="50.27885" lon="4.33461">
        <ele>171.2</ele>
        <time>2022-04-21T11:52:09Z</time>
      </trkpt>
      <trkpt lat="50.27865" lon="4.33433">
        <ele>171.8</ele>
        <time>2022-04-21T11:52:17Z</time>
      </trkpt>
      <trkpt lat="50.27847" lon="4.33406">
        <ele>172.4</ele>
        <time>2022-04-21T11:52:24Z</time>
      </trkpt>
      <trkpt lat="50.27829" lon="4.3338">
        <ele>173</ele>
        <time>2022-04-21T11:52:31Z</time>
      </trkpt>
      <trkpt lat="50.27814" lon="4.33355">
        <ele>173.6</ele>
        <time>2022-04-21T11:52:38Z</time>
      </trkpt>
      <trkpt lat="50.27794" lon="4.33326">
        <ele>174</ele>
        <time>2022-04-21T11:52:45Z</time>
      </trkpt>
      <trkpt lat="50.27777" lon="4.33298">
        <ele>174.6</ele>
        <time>2022-04-21T11:52:51Z</time>
      </trkpt>
      <trkpt lat="50.27771" lon="4.33288">
        <ele>174.6</ele>
        <time>2022-04-21T11:52:53Z</time>
      </trkpt>
      <trkpt lat="50.27763" lon="4.33276">
        <ele>174.8</ele>
        <time>2022-04-21T11:52:56Z</time>
      </trkpt>
      <trkpt lat="50.27753" lon="4.33261">
        <ele>175</ele>
        <time>2022-04-21T11:53:00Z</time>
      </trkpt>
      <trkpt lat="50.27744" lon="4.33246">
        <ele>175.2</ele>
        <time>2022-04-21T11:53:03Z</time>
      </trkpt>
      <trkpt lat="50.27727" lon="4.33221">
        <ele>175.4</ele>
        <time>2022-04-21T11:53:08Z</time>
      </trkpt>
      <trkpt lat="50.27721" lon="4.3321">
        <ele>175.6</ele>
        <time>2022-04-21T11:53:10Z</time>
      </trkpt>
      <trkpt lat="50.27697" lon="4.33174">
        <ele>175.8</ele>
        <time>2022-04-21T11:53:16Z</time>
      </trkpt>
      <trkpt lat="50.2767" lon="4.33132">
        <ele>176.2</ele>
        <time>2022-04-21T11:53:23Z</time>
      </trkpt>
      <trkpt lat="50.27653" lon="4.33106">
        <ele>176.6</ele>
        <time>2022-04-21T11:53:28Z</time>
      </trkpt>
      <trkpt lat="50.2765" lon="4.33101">
        <ele>176.6</ele>
        <time>2022-04-21T11:53:29Z</time>
      </trkpt>
      <trkpt lat="50.27629" lon="4.33069">
        <ele>176.8</ele>
        <time>2022-04-21T11:53:35Z</time>
      </trkpt>
      <trkpt lat="50.27597" lon="4.3302">
        <ele>177.2</ele>
        <time>2022-04-21T11:53:43Z</time>
      </trkpt>
      <trkpt lat="50.27558" lon="4.32964">
        <ele>177.4</ele>
        <time>2022-04-21T11:53:52Z</time>
      </trkpt>
      <trkpt lat="50.27528" lon="4.32923">
        <ele>177.8</ele>
        <time>2022-04-21T11:53:59Z</time>
      </trkpt>
      <trkpt lat="50.27494" lon="4.32882">
        <ele>178</ele>
        <time>2022-04-21T11:54:07Z</time>
      </trkpt>
      <trkpt lat="50.27461" lon="4.32849">
        <ele>178.4</ele>
        <time>2022-04-21T11:54:14Z</time>
      </trkpt>
      <trkpt lat="50.27427" lon="4.32824">
        <ele>178.6</ele>
        <time>2022-04-21T11:54:21Z</time>
      </trkpt>
      <trkpt lat="50.27385" lon="4.32794">
        <ele>179</ele>
        <time>2022-04-21T11:54:29Z</time>
      </trkpt>
      <trkpt lat="50.2734" lon="4.32763">
        <ele>179.4</ele>
        <time>2022-04-21T11:54:38Z</time>
      </trkpt>
      <trkpt lat="50.27288" lon="4.3273">
        <ele>179.8</ele>
        <time>2022-04-21T11:54:48Z</time>
      </trkpt>
      <trkpt lat="50.27283" lon="4.32727">
        <ele>179.8</ele>
        <time>2022-04-21T11:54:49Z</time>
      </trkpt>
      <trkpt lat="50.2724" lon="4.32698">
        <ele>180.4</ele>
        <time>2022-04-21T11:54:57Z</time>
      </trkpt>
      <trkpt lat="50.27187" lon="4.32659">
        <ele>180.8</ele>
        <time>2022-04-21T11:55:07Z</time>
      </trkpt>
      <trkpt lat="50.27171" lon="4.32646">
        <ele>180.8</ele>
        <time>2022-04-21T11:55:10Z</time>
      </trkpt>
      <trkpt lat="50.27126" lon="4.3261">
        <ele>181.2</ele>
        <time>2022-04-21T11:55:19Z</time>
      </trkpt>
      <trkpt lat="50.27096" lon="4.32588">
        <ele>181.4</ele>
        <time>2022-04-21T11:55:25Z</time>
      </trkpt>
      <trkpt lat="50.27063" lon="4.32561">
        <ele>181.8</ele>
        <time>2022-04-21T11:55:33Z</time>
      </trkpt>
      <trkpt lat="50.2704" lon="4.32545">
        <ele>182</ele>
        <time>2022-04-21T11:55:38Z</time>
      </trkpt>
      <trkpt lat="50.27036" lon="4.32544">
        <ele>182</ele>
        <time>2022-04-21T11:55:39Z</time>
      </trkpt>
      <trkpt lat="50.27032" lon="4.32546">
        <ele>182</ele>
        <time>2022-04-21T11:55:40Z</time>
      </trkpt>
      <trkpt lat="50.27027" lon="4.32554">
        <ele>182</ele>
        <time>2022-04-21T11:55:42Z</time>
      </trkpt>
      <trkpt lat="50.27019" lon="4.3257">
        <ele>182.2</ele>
        <time>2022-04-21T11:55:48Z</time>
      </trkpt>
      <trkpt lat="50.27015" lon="4.32573">
        <ele>182.2</ele>
        <time>2022-04-21T11:55:50Z</time>
      </trkpt>
      <trkpt lat="50.2701" lon="4.32581">
        <ele>182.4</ele>
        <time>2022-04-21T11:55:53Z</time>
      </trkpt>
      <trkpt lat="50.26995" lon="4.32604">
        <ele>182.6</ele>
        <time>2022-04-21T11:56:00Z</time>
      </trkpt>
      <trkpt lat="50.26977" lon="4.32637">
        <ele>183</ele>
        <time>2022-04-21T11:56:08Z</time>
      </trkpt>
      <trkpt lat="50.26959" lon="4.32671">
        <ele>183.2</ele>
        <time>2022-04-21T11:56:16Z</time>
      </trkpt>
      <trkpt lat="50.26945" lon="4.32701">
        <ele>183.4</ele>
        <time>2022-04-21T11:56:23Z</time>
      </trkpt>
      <trkpt lat="50.26925" lon="4.32748">
        <ele>183.4</ele>
        <time>2022-04-21T11:56:32Z</time>
      </trkpt>
      <trkpt lat="50.26909" lon="4.32798">
        <ele>183.4</ele>
        <time>2022-04-21T11:56:40Z</time>
      </trkpt>
      <trkpt lat="50.26896" lon="4.32846">
        <ele>183.4</ele>
        <time>2022-04-21T11:56:48Z</time>
      </trkpt>
      <trkpt lat="50.26885" lon="4.32896">
        <ele>183.6</ele>
        <time>2022-04-21T11:56:55Z</time>
      </trkpt>
      <trkpt lat="50.26871" lon="4.32952">
        <ele>183.4</ele>
        <time>2022-04-21T11:57:02Z</time>
      </trkpt>
      <trkpt lat="50.26859" lon="4.33002">
        <ele>183.4</ele>
        <time>2022-04-21T11:57:09Z</time>
      </trkpt>
      <trkpt lat="50.26845" lon="4.33064">
        <ele>183.2</ele>
        <time>2022-04-21T11:57:18Z</time>
      </trkpt>
      <trkpt lat="50.2684" lon="4.33099">
        <ele>183.2</ele>
        <time>2022-04-21T11:57:24Z</time>
      </trkpt>
      <trkpt lat="50.26842" lon="4.33144">
        <ele>183</ele>
        <time>2022-04-21T11:57:31Z</time>
      </trkpt>
      <trkpt lat="50.26843" lon="4.33199">
        <ele>183</ele>
        <time>2022-04-21T11:57:39Z</time>
      </trkpt>
      <trkpt lat="50.26843" lon="4.33255">
        <ele>183</ele>
        <time>2022-04-21T11:57:47Z</time>
      </trkpt>
      <trkpt lat="50.26843" lon="4.33267">
        <ele>183</ele>
        <time>2022-04-21T11:57:49Z</time>
      </trkpt>
      <trkpt lat="50.26844" lon="4.33296">
        <ele>183</ele>
        <time>2022-04-21T11:57:53Z</time>
      </trkpt>
      <trkpt lat="50.26844" lon="4.33345">
        <ele>183</ele>
        <time>2022-04-21T11:57:59Z</time>
      </trkpt>
      <trkpt lat="50.26845" lon="4.33396">
        <ele>183.2</ele>
        <time>2022-04-21T11:58:06Z</time>
      </trkpt>
      <trkpt lat="50.26846" lon="4.33415">
        <ele>183</ele>
        <time>2022-04-21T11:58:09Z</time>
      </trkpt>
      <trkpt lat="50.26847" lon="4.33442">
        <ele>183</ele>
        <time>2022-04-21T11:58:13Z</time>
      </trkpt>
      <trkpt lat="50.26849" lon="4.33509">
        <ele>183</ele>
        <time>2022-04-21T11:58:22Z</time>
      </trkpt>
      <trkpt lat="50.26856" lon="4.33552">
        <ele>183</ele>
        <time>2022-04-21T11:58:28Z</time>
      </trkpt>
      <trkpt lat="50.26857" lon="4.33559">
        <ele>183</ele>
        <time>2022-04-21T11:58:29Z</time>
      </trkpt>
      <trkpt lat="50.26866" lon="4.33605">
        <ele>183</ele>
        <time>2022-04-21T11:58:36Z</time>
      </trkpt>
      <trkpt lat="50.26876" lon="4.3365">
        <ele>183</ele>
        <time>2022-04-21T11:58:43Z</time>
      </trkpt>
      <trkpt lat="50.26886" lon="4.33701">
        <ele>183.2</ele>
        <time>2022-04-21T11:58:51Z</time>
      </trkpt>
      <trkpt lat="50.26898" lon="4.33757">
        <ele>183.2</ele>
        <time>2022-04-21T11:59:00Z</time>
      </trkpt>
      <trkpt lat="50.26906" lon="4.33791">
        <ele>183.4</ele>
        <time>2022-04-21T11:59:06Z</time>
      </trkpt>
      <trkpt lat="50.26916" lon="4.33838">
        <ele>183.4</ele>
        <time>2022-04-21T11:59:13Z</time>
      </trkpt>
      <trkpt lat="50.26919" lon="4.33851">
        <ele>183.4</ele>
        <time>2022-04-21T11:59:15Z</time>
      </trkpt>
      <trkpt lat="50.26922" lon="4.33867">
        <ele>183.6</ele>
        <time>2022-04-21T11:59:17Z</time>
      </trkpt>
      <trkpt lat="50.26924" lon="4.33875">
        <ele>183.6</ele>
        <time>2022-04-21T11:59:18Z</time>
      </trkpt>
      <trkpt lat="50.26935" lon="4.33932">
        <ele>183.4</ele>
        <time>2022-04-21T11:59:25Z</time>
      </trkpt>
      <trkpt lat="50.26946" lon="4.3399">
        <ele>183.4</ele>
        <time>2022-04-21T11:59:31Z</time>
      </trkpt>
      <trkpt lat="50.26956" lon="4.3406">
        <ele>183.2</ele>
        <time>2022-04-21T11:59:38Z</time>
      </trkpt>
      <trkpt lat="50.26957" lon="4.34107">
        <ele>183</ele>
        <time>2022-04-21T11:59:43Z</time>
      </trkpt>
      <trkpt lat="50.2696" lon="4.34187">
        <ele>182.6</ele>
        <time>2022-04-21T11:59:52Z</time>
      </trkpt>
      <trkpt lat="50.26965" lon="4.34201">
        <ele>182.4</ele>
        <time>2022-04-21T11:59:54Z</time>
      </trkpt>
      <trkpt lat="50.2697" lon="4.34214">
        <ele>182.2</ele>
        <time>2022-04-21T11:59:56Z</time>
      </trkpt>
      <trkpt lat="50.26973" lon="4.34228">
        <ele>182.2</ele>
        <time>2022-04-21T11:59:58Z</time>
      </trkpt>
      <trkpt lat="50.2697" lon="4.34243">
        <ele>182</ele>
        <time>2022-04-21T12:00:00Z</time>
      </trkpt>
      <trkpt lat="50.26963" lon="4.3427">
        <ele>181.8</ele>
        <time>2022-04-21T12:00:04Z</time>
      </trkpt>
      <trkpt lat="50.26959" lon="4.34293">
        <ele>181.6</ele>
        <time>2022-04-21T12:00:07Z</time>
      </trkpt>
      <trkpt lat="50.26951" lon="4.34349">
        <ele>181.8</ele>
        <time>2022-04-21T12:00:15Z</time>
      </trkpt>
      <trkpt lat="50.26938" lon="4.34396">
        <ele>181.8</ele>
        <time>2022-04-21T12:00:22Z</time>
      </trkpt>
      <trkpt lat="50.26917" lon="4.3444">
        <ele>181.6</ele>
        <time>2022-04-21T12:00:29Z</time>
      </trkpt>
      <trkpt lat="50.26888" lon="4.34484">
        <ele>181.4</ele>
        <time>2022-04-21T12:00:37Z</time>
      </trkpt>
      <trkpt lat="50.26858" lon="4.34522">
        <ele>181.2</ele>
        <time>2022-04-21T12:00:45Z</time>
      </trkpt>
      <trkpt lat="50.26851" lon="4.3453">
        <ele>181.2</ele>
        <time>2022-04-21T12:00:47Z</time>
      </trkpt>
      <trkpt lat="50.26845" lon="4.34539">
        <ele>181.2</ele>
        <time>2022-04-21T12:00:49Z</time>
      </trkpt>
      <trkpt lat="50.26814" lon="4.34576">
        <ele>181.2</ele>
        <time>2022-04-21T12:00:57Z</time>
      </trkpt>
      <trkpt lat="50.26803" lon="4.3459">
        <ele>181.2</ele>
        <time>2022-04-21T12:01:00Z</time>
      </trkpt>
      <trkpt lat="50.26802" lon="4.34602">
        <ele>181.2</ele>
        <time>2022-04-21T12:01:02Z</time>
      </trkpt>
      <trkpt lat="50.26808" lon="4.3462">
        <ele>181.2</ele>
        <time>2022-04-21T12:01:05Z</time>
      </trkpt>
      <trkpt lat="50.26813" lon="4.3463">
        <ele>181.4</ele>
        <time>2022-04-21T12:01:07Z</time>
      </trkpt>
      <trkpt lat="50.26828" lon="4.34656">
        <ele>181.6</ele>
        <time>2022-04-21T12:01:13Z</time>
      </trkpt>
      <trkpt lat="50.26854" lon="4.34697">
        <ele>182.2</ele>
        <time>2022-04-21T12:01:21Z</time>
      </trkpt>
      <trkpt lat="50.2687" lon="4.34724">
        <ele>182.4</ele>
        <time>2022-04-21T12:01:27Z</time>
      </trkpt>
      <trkpt lat="50.26875" lon="4.34732">
        <ele>182.6</ele>
        <time>2022-04-21T12:01:30Z</time>
      </trkpt>
      <trkpt lat="50.2688" lon="4.34741">
        <ele>182.8</ele>
        <time>2022-04-21T12:01:33Z</time>
      </trkpt>
      <trkpt lat="50.26881" lon="4.34743">
        <ele>183</ele>
        <time>2022-04-21T12:01:36Z</time>
      </trkpt>
      <trkpt lat="50.26881" lon="4.34743">
        <ele>183.6</ele>
        <time>2022-04-21T12:01:52Z</time>
      </trkpt>
      <trkpt lat="50.26882" lon="4.34743">
        <ele>183.8</ele>
        <time>2022-04-21T12:01:54Z</time>
      </trkpt>
      <trkpt lat="50.26884" lon="4.34745">
        <ele>183.8</ele>
        <time>2022-04-21T12:01:56Z</time>
      </trkpt>
      <trkpt lat="50.26893" lon="4.3476">
        <ele>184.2</ele>
        <time>2022-04-21T12:02:02Z</time>
      </trkpt>
      <trkpt lat="50.26906" lon="4.34782">
        <ele>184.4</ele>
        <time>2022-04-21T12:02:07Z</time>
      </trkpt>
      <trkpt lat="50.26927" lon="4.34815">
        <ele>184.8</ele>
        <time>2022-04-21T12:02:14Z</time>
      </trkpt>
      <trkpt lat="50.26941" lon="4.34839">
        <ele>185.2</ele>
        <time>2022-04-21T12:02:20Z</time>
      </trkpt>
      <trkpt lat="50.26961" lon="4.34872">
        <ele>185.4</ele>
        <time>2022-04-21T12:02:27Z</time>
      </trkpt>
      <trkpt lat="50.26989" lon="4.34915">
        <ele>185.6</ele>
        <time>2022-04-21T12:02:35Z</time>
      </trkpt>
      <trkpt lat="50.27015" lon="4.34959">
        <ele>186</ele>
        <time>2022-04-21T12:02:43Z</time>
      </trkpt>
      <trkpt lat="50.27047" lon="4.35012">
        <ele>186.2</ele>
        <time>2022-04-21T12:02:53Z</time>
      </trkpt>
      <trkpt lat="50.27086" lon="4.3507">
        <ele>186.4</ele>
        <time>2022-04-21T12:03:03Z</time>
      </trkpt>
      <trkpt lat="50.2711" lon="4.35106">
        <ele>186.4</ele>
        <time>2022-04-21T12:03:09Z</time>
      </trkpt>
      <trkpt lat="50.27138" lon="4.35145">
        <ele>186.4</ele>
        <time>2022-04-21T12:03:16Z</time>
      </trkpt>
      <trkpt lat="50.2718" lon="4.35192">
        <ele>186</ele>
        <time>2022-04-21T12:03:25Z</time>
      </trkpt>
      <trkpt lat="50.27224" lon="4.35225">
        <ele>185.8</ele>
        <time>2022-04-21T12:03:33Z</time>
      </trkpt>
      <trkpt lat="50.27255" lon="4.35246">
        <ele>185.4</ele>
        <time>2022-04-21T12:03:39Z</time>
      </trkpt>
      <trkpt lat="50.27291" lon="4.35271">
        <ele>185</ele>
        <time>2022-04-21T12:03:46Z</time>
      </trkpt>
      <trkpt lat="50.27331" lon="4.35298">
        <ele>184.6</ele>
        <time>2022-04-21T12:03:54Z</time>
      </trkpt>
      <trkpt lat="50.27378" lon="4.35329">
        <ele>184.4</ele>
        <time>2022-04-21T12:04:03Z</time>
      </trkpt>
      <trkpt lat="50.27416" lon="4.35353">
        <ele>183.8</ele>
        <time>2022-04-21T12:04:10Z</time>
      </trkpt>
      <trkpt lat="50.27464" lon="4.35382">
        <ele>183.4</ele>
        <time>2022-04-21T12:04:19Z</time>
      </trkpt>
      <trkpt lat="50.27479" lon="4.35391">
        <ele>183.4</ele>
        <time>2022-04-21T12:04:22Z</time>
      </trkpt>
      <trkpt lat="50.27488" lon="4.35397">
        <ele>183.4</ele>
        <time>2022-04-21T12:04:24Z</time>
      </trkpt>
      <trkpt lat="50.27497" lon="4.35401">
        <ele>183.4</ele>
        <time>2022-04-21T12:04:26Z</time>
      </trkpt>
      <trkpt lat="50.27512" lon="4.35405">
        <ele>183.4</ele>
        <time>2022-04-21T12:04:29Z</time>
      </trkpt>
      <trkpt lat="50.27533" lon="4.35403">
        <ele>183.2</ele>
        <time>2022-04-21T12:04:33Z</time>
      </trkpt>
      <trkpt lat="50.27538" lon="4.35401">
        <ele>183.2</ele>
        <time>2022-04-21T12:04:34Z</time>
      </trkpt>
      <trkpt lat="50.27565" lon="4.35396">
        <ele>183.4</ele>
        <time>2022-04-21T12:04:39Z</time>
      </trkpt>
      <trkpt lat="50.27582" lon="4.35394">
        <ele>183.4</ele>
        <time>2022-04-21T12:04:42Z</time>
      </trkpt>
      <trkpt lat="50.27591" lon="4.35395">
        <ele>183.2</ele>
        <time>2022-04-21T12:04:44Z</time>
      </trkpt>
      <trkpt lat="50.27601" lon="4.35397">
        <ele>183.2</ele>
        <time>2022-04-21T12:04:46Z</time>
      </trkpt>
      <trkpt lat="50.27611" lon="4.35399">
        <ele>183.4</ele>
        <time>2022-04-21T12:04:48Z</time>
      </trkpt>
      <trkpt lat="50.27616" lon="4.35401">
        <ele>183.4</ele>
        <time>2022-04-21T12:04:49Z</time>
      </trkpt>
      <trkpt lat="50.27638" lon="4.35407">
        <ele>183.8</ele>
        <time>2022-04-21T12:04:54Z</time>
      </trkpt>
      <trkpt lat="50.27646" lon="4.35409">
        <ele>183.8</ele>
        <time>2022-04-21T12:04:56Z</time>
      </trkpt>
      <trkpt lat="50.2767" lon="4.35417">
        <ele>184</ele>
        <time>2022-04-21T12:05:02Z</time>
      </trkpt>
      <trkpt lat="50.27674" lon="4.35418">
        <ele>184</ele>
        <time>2022-04-21T12:05:03Z</time>
      </trkpt>
      <trkpt lat="50.27687" lon="4.35421">
        <ele>184.2</ele>
        <time>2022-04-21T12:05:06Z</time>
      </trkpt>
      <trkpt lat="50.277" lon="4.35422">
        <ele>184.4</ele>
        <time>2022-04-21T12:05:09Z</time>
      </trkpt>
      <trkpt lat="50.27731" lon="4.35418">
        <ele>184.6</ele>
        <time>2022-04-21T12:05:16Z</time>
      </trkpt>
      <trkpt lat="50.27755" lon="4.35415">
        <ele>184.8</ele>
        <time>2022-04-21T12:05:22Z</time>
      </trkpt>
      <trkpt lat="50.27758" lon="4.35416">
        <ele>184.6</ele>
        <time>2022-04-21T12:05:23Z</time>
      </trkpt>
      <trkpt lat="50.27761" lon="4.35421">
        <ele>184.6</ele>
        <time>2022-04-21T12:05:25Z</time>
      </trkpt>
      <trkpt lat="50.27762" lon="4.35425">
        <ele>184.6</ele>
        <time>2022-04-21T12:05:26Z</time>
      </trkpt>
      <trkpt lat="50.2776" lon="4.35432">
        <ele>184.8</ele>
        <time>2022-04-21T12:05:28Z</time>
      </trkpt>
      <trkpt lat="50.27749" lon="4.35455">
        <ele>185</ele>
        <time>2022-04-21T12:05:34Z</time>
      </trkpt>
      <trkpt lat="50.27745" lon="4.35465">
        <ele>185</ele>
        <time>2022-04-21T12:05:36Z</time>
      </trkpt>
      <trkpt lat="50.27734" lon="4.35487">
        <ele>185</ele>
        <time>2022-04-21T12:05:40Z</time>
      </trkpt>
      <trkpt lat="50.27705" lon="4.35547">
        <ele>185.4</ele>
        <time>2022-04-21T12:05:50Z</time>
      </trkpt>
      <trkpt lat="50.27685" lon="4.35592">
        <ele>185.4</ele>
        <time>2022-04-21T12:05:57Z</time>
      </trkpt>
      <trkpt lat="50.27674" lon="4.35616">
        <ele>185.4</ele>
        <time>2022-04-21T12:06:01Z</time>
      </trkpt>
      <trkpt lat="50.27671" lon="4.3563">
        <ele>185.4</ele>
        <time>2022-04-21T12:06:03Z</time>
      </trkpt>
      <trkpt lat="50.27674" lon="4.35664">
        <ele>185.4</ele>
        <time>2022-04-21T12:06:07Z</time>
      </trkpt>
      <trkpt lat="50.27688" lon="4.35732">
        <ele>185</ele>
        <time>2022-04-21T12:06:15Z</time>
      </trkpt>
      <trkpt lat="50.27706" lon="4.35813">
        <ele>184.6</ele>
        <time>2022-04-21T12:06:24Z</time>
      </trkpt>
      <trkpt lat="50.27722" lon="4.35882">
        <ele>183.8</ele>
        <time>2022-04-21T12:06:32Z</time>
      </trkpt>
      <trkpt lat="50.27737" lon="4.35951">
        <ele>183.2</ele>
        <time>2022-04-21T12:06:40Z</time>
      </trkpt>
      <trkpt lat="50.2775" lon="4.36013">
        <ele>182.6</ele>
        <time>2022-04-21T12:06:47Z</time>
      </trkpt>
      <trkpt lat="50.27768" lon="4.36096">
        <ele>181.6</ele>
        <time>2022-04-21T12:06:56Z</time>
      </trkpt>
      <trkpt lat="50.2777" lon="4.36105">
        <ele>181.4</ele>
        <time>2022-04-21T12:06:57Z</time>
      </trkpt>
      <trkpt lat="50.27785" lon="4.36176">
        <ele>180.6</ele>
        <time>2022-04-21T12:07:05Z</time>
      </trkpt>
      <trkpt lat="50.27793" lon="4.36242">
        <ele>179.6</ele>
        <time>2022-04-21T12:07:12Z</time>
      </trkpt>
      <trkpt lat="50.27794" lon="4.36319">
        <ele>178.6</ele>
        <time>2022-04-21T12:07:20Z</time>
      </trkpt>
      <trkpt lat="50.27796" lon="4.3641">
        <ele>177.2</ele>
        <time>2022-04-21T12:07:29Z</time>
      </trkpt>
      <trkpt lat="50.27796" lon="4.3643">
        <ele>176.8</ele>
        <time>2022-04-21T12:07:31Z</time>
      </trkpt>
      <trkpt lat="50.27798" lon="4.36519">
        <ele>175.4</ele>
        <time>2022-04-21T12:07:40Z</time>
      </trkpt>
      <trkpt lat="50.278" lon="4.36577">
        <ele>174.4</ele>
        <time>2022-04-21T12:07:47Z</time>
      </trkpt>
      <trkpt lat="50.27802" lon="4.36651">
        <ele>173.2</ele>
        <time>2022-04-21T12:07:56Z</time>
      </trkpt>
      <trkpt lat="50.27803" lon="4.36703">
        <ele>172.6</ele>
        <time>2022-04-21T12:08:02Z</time>
      </trkpt>
      <trkpt lat="50.27804" lon="4.36774">
        <ele>171.6</ele>
        <time>2022-04-21T12:08:10Z</time>
      </trkpt>
      <trkpt lat="50.27806" lon="4.36866">
        <ele>170.2</ele>
        <time>2022-04-21T12:08:20Z</time>
      </trkpt>
      <trkpt lat="50.27806" lon="4.36876">
        <ele>170</ele>
        <time>2022-04-21T12:08:21Z</time>
      </trkpt>
      <trkpt lat="50.27808" lon="4.36968">
        <ele>168.8</ele>
        <time>2022-04-21T12:08:31Z</time>
      </trkpt>
      <trkpt lat="50.27816" lon="4.37035">
        <ele>167.8</ele>
        <time>2022-04-21T12:08:39Z</time>
      </trkpt>
      <trkpt lat="50.27834" lon="4.37085">
        <ele>166.8</ele>
        <time>2022-04-21T12:08:46Z</time>
      </trkpt>
      <trkpt lat="50.27835" lon="4.37092">
        <ele>166.8</ele>
        <time>2022-04-21T12:08:47Z</time>
      </trkpt>
      <trkpt lat="50.27835" lon="4.37106">
        <ele>166.6</ele>
        <time>2022-04-21T12:08:49Z</time>
      </trkpt>
      <trkpt lat="50.2783" lon="4.37118">
        <ele>166.4</ele>
        <time>2022-04-21T12:08:51Z</time>
      </trkpt>
      <trkpt lat="50.27824" lon="4.37129">
        <ele>166.2</ele>
        <time>2022-04-21T12:08:53Z</time>
      </trkpt>
      <trkpt lat="50.27802" lon="4.37168">
        <ele>165.6</ele>
        <time>2022-04-21T12:09:00Z</time>
      </trkpt>
      <trkpt lat="50.278" lon="4.37174">
        <ele>165.4</ele>
        <time>2022-04-21T12:09:01Z</time>
      </trkpt>
      <trkpt lat="50.27795" lon="4.37188">
        <ele>165.2</ele>
        <time>2022-04-21T12:09:03Z</time>
      </trkpt>
      <trkpt lat="50.2779" lon="4.37211">
        <ele>165</ele>
        <time>2022-04-21T12:09:06Z</time>
      </trkpt>
      <trkpt lat="50.27778" lon="4.37279">
        <ele>164.4</ele>
        <time>2022-04-21T12:09:15Z</time>
      </trkpt>
      <trkpt lat="50.27766" lon="4.37337">
        <ele>164.2</ele>
        <time>2022-04-21T12:09:23Z</time>
      </trkpt>
      <trkpt lat="50.2775" lon="4.37391">
        <ele>164.2</ele>
        <time>2022-04-21T12:09:31Z</time>
      </trkpt>
      <trkpt lat="50.27734" lon="4.37436">
        <ele>164.2</ele>
        <time>2022-04-21T12:09:38Z</time>
      </trkpt>
      <trkpt lat="50.27726" lon="4.37461">
        <ele>164.4</ele>
        <time>2022-04-21T12:09:42Z</time>
      </trkpt>
      <trkpt lat="50.27718" lon="4.37485">
        <ele>164.6</ele>
        <time>2022-04-21T12:09:46Z</time>
      </trkpt>
      <trkpt lat="50.27705" lon="4.37541">
        <ele>164.8</ele>
        <time>2022-04-21T12:09:54Z</time>
      </trkpt>
      <trkpt lat="50.277" lon="4.37562">
        <ele>165</ele>
        <time>2022-04-21T12:09:57Z</time>
      </trkpt>
      <trkpt lat="50.27697" lon="4.37584">
        <ele>165.2</ele>
        <time>2022-04-21T12:10:00Z</time>
      </trkpt>
      <trkpt lat="50.27687" lon="4.37641">
        <ele>165.8</ele>
        <time>2022-04-21T12:10:08Z</time>
      </trkpt>
      <trkpt lat="50.27675" lon="4.37704">
        <ele>166.6</ele>
        <time>2022-04-21T12:10:17Z</time>
      </trkpt>
      <trkpt lat="50.27666" lon="4.37752">
        <ele>167</ele>
        <time>2022-04-21T12:10:24Z</time>
      </trkpt>
      <trkpt lat="50.2766" lon="4.37788">
        <ele>167.4</ele>
        <time>2022-04-21T12:10:30Z</time>
      </trkpt>
      <trkpt lat="50.27651" lon="4.37837">
        <ele>168</ele>
        <time>2022-04-21T12:10:38Z</time>
      </trkpt>
      <trkpt lat="50.27644" lon="4.37875">
        <ele>168.4</ele>
        <time>2022-04-21T12:10:45Z</time>
      </trkpt>
      <trkpt lat="50.27638" lon="4.37926">
        <ele>169.2</ele>
        <time>2022-04-21T12:10:54Z</time>
      </trkpt>
      <trkpt lat="50.27636" lon="4.37969">
        <ele>170</ele>
        <time>2022-04-21T12:11:01Z</time>
      </trkpt>
      <trkpt lat="50.27638" lon="4.38013">
        <ele>170.8</ele>
        <time>2022-04-21T12:11:08Z</time>
      </trkpt>
      <trkpt lat="50.2764" lon="4.38057">
        <ele>171.6</ele>
        <time>2022-04-21T12:11:15Z</time>
      </trkpt>
      <trkpt lat="50.27637" lon="4.381">
        <ele>172.4</ele>
        <time>2022-04-21T12:11:22Z</time>
      </trkpt>
      <trkpt lat="50.27629" lon="4.38138">
        <ele>173</ele>
        <time>2022-04-21T12:11:28Z</time>
      </trkpt>
      <trkpt lat="50.27627" lon="4.38145">
        <ele>173</ele>
        <time>2022-04-21T12:11:29Z</time>
      </trkpt>
      <trkpt lat="50.27619" lon="4.38172">
        <ele>173.4</ele>
        <time>2022-04-21T12:11:33Z</time>
      </trkpt>
      <trkpt lat="50.27596" lon="4.38213">
        <ele>173.8</ele>
        <time>2022-04-21T12:11:39Z</time>
      </trkpt>
      <trkpt lat="50.27559" lon="4.38259">
        <ele>174</ele>
        <time>2022-04-21T12:11:46Z</time>
      </trkpt>
      <trkpt lat="50.2753" lon="4.38308">
        <ele>174</ele>
        <time>2022-04-21T12:11:52Z</time>
      </trkpt>
      <trkpt lat="50.27495" lon="4.38378">
        <ele>174</ele>
        <time>2022-04-21T12:12:00Z</time>
      </trkpt>
      <trkpt lat="50.27491" lon="4.38387">
        <ele>174</ele>
        <time>2022-04-21T12:12:01Z</time>
      </trkpt>
      <trkpt lat="50.27454" lon="4.38459">
        <ele>173.8</ele>
        <time>2022-04-21T12:12:10Z</time>
      </trkpt>
      <trkpt lat="50.27426" lon="4.38517">
        <ele>173.6</ele>
        <time>2022-04-21T12:12:18Z</time>
      </trkpt>
      <trkpt lat="50.27394" lon="4.38581">
        <ele>173.4</ele>
        <time>2022-04-21T12:12:27Z</time>
      </trkpt>
      <trkpt lat="50.27367" lon="4.38636">
        <ele>173.2</ele>
        <time>2022-04-21T12:12:35Z</time>
      </trkpt>
      <trkpt lat="50.27344" lon="4.3868">
        <ele>172.8</ele>
        <time>2022-04-21T12:12:42Z</time>
      </trkpt>
      <trkpt lat="50.27311" lon="4.3873">
        <ele>172.4</ele>
        <time>2022-04-21T12:12:50Z</time>
      </trkpt>
      <trkpt lat="50.2728" lon="4.38787">
        <ele>171.8</ele>
        <time>2022-04-21T12:12:58Z</time>
      </trkpt>
      <trkpt lat="50.27265" lon="4.38826">
        <ele>171.4</ele>
        <time>2022-04-21T12:13:04Z</time>
      </trkpt>
      <trkpt lat="50.27259" lon="4.38845">
        <ele>171</ele>
        <time>2022-04-21T12:13:09Z</time>
      </trkpt>
      <trkpt lat="50.27258" lon="4.38858">
        <ele>171</ele>
        <time>2022-04-21T12:13:13Z</time>
      </trkpt>
      <trkpt lat="50.2726" lon="4.38863">
        <ele>170.8</ele>
        <time>2022-04-21T12:13:14Z</time>
      </trkpt>
      <trkpt lat="50.27274" lon="4.38875">
        <ele>170.6</ele>
        <time>2022-04-21T12:13:18Z</time>
      </trkpt>
      <trkpt lat="50.273" lon="4.38899">
        <ele>170.2</ele>
        <time>2022-04-21T12:13:25Z</time>
      </trkpt>
      <trkpt lat="50.27325" lon="4.38922">
        <ele>169.8</ele>
        <time>2022-04-21T12:13:32Z</time>
      </trkpt>
      <trkpt lat="50.27348" lon="4.3894">
        <ele>169.4</ele>
        <time>2022-04-21T12:13:38Z</time>
      </trkpt>
      <trkpt lat="50.27369" lon="4.3896">
        <ele>169.2</ele>
        <time>2022-04-21T12:13:43Z</time>
      </trkpt>
      <trkpt lat="50.27376" lon="4.38967">
        <ele>168.8</ele>
        <time>2022-04-21T12:13:47Z</time>
      </trkpt>
      <trkpt lat="50.27377" lon="4.38968">
        <ele>168.6</ele>
        <time>2022-04-21T12:13:51Z</time>
      </trkpt>
      <trkpt lat="50.27377" lon="4.38968">
        <ele>168</ele>
        <time>2022-04-21T12:14:03Z</time>
      </trkpt>
      <trkpt lat="50.27377" lon="4.38968">
        <ele>167.4</ele>
        <time>2022-04-21T12:14:20Z</time>
      </trkpt>
      <trkpt lat="50.27376" lon="4.38967">
        <ele>167.4</ele>
        <time>2022-04-21T12:14:21Z</time>
      </trkpt>
      <trkpt lat="50.27368" lon="4.3896">
        <ele>167.4</ele>
        <time>2022-04-21T12:14:26Z</time>
      </trkpt>
      <trkpt lat="50.27365" lon="4.38958">
        <ele>167.4</ele>
        <time>2022-04-21T12:14:30Z</time>
      </trkpt>
      <trkpt lat="50.27365" lon="4.38958">
        <ele>167</ele>
        <time>2022-04-21T12:14:48Z</time>
      </trkpt>
      <trkpt lat="50.27365" lon="4.38958">
        <ele>166.8</ele>
        <time>2022-04-21T12:15:07Z</time>
      </trkpt>
      <trkpt lat="50.27364" lon="4.38958">
        <ele>166.4</ele>
        <time>2022-04-21T12:15:36Z</time>
      </trkpt>
      <trkpt lat="50.27365" lon="4.38957">
        <ele>166.4</ele>
        <time>2022-04-21T12:15:59Z</time>
      </trkpt>
      <trkpt lat="50.27365" lon="4.38957">
        <ele>166.2</ele>
        <time>2022-04-21T12:16:22Z</time>
      </trkpt>
      <trkpt lat="50.27365" lon="4.38957">
        <ele>166.2</ele>
        <time>2022-04-21T12:16:42Z</time>
      </trkpt>
      <trkpt lat="50.27365" lon="4.38957">
        <ele>166.2</ele>
        <time>2022-04-21T12:17:01Z</time>
      </trkpt>
      <trkpt lat="50.27363" lon="4.38955">
        <ele>166.4</ele>
        <time>2022-04-21T12:17:17Z</time>
      </trkpt>
      <trkpt lat="50.27355" lon="4.38947">
        <ele>166.8</ele>
        <time>2022-04-21T12:17:22Z</time>
      </trkpt>
      <trkpt lat="50.27345" lon="4.38936">
        <ele>167</ele>
        <time>2022-04-21T12:17:27Z</time>
      </trkpt>
      <trkpt lat="50.27328" lon="4.38921">
        <ele>167.4</ele>
        <time>2022-04-21T12:17:34Z</time>
      </trkpt>
      <trkpt lat="50.2731" lon="4.38904">
        <ele>167.6</ele>
        <time>2022-04-21T12:17:41Z</time>
      </trkpt>
      <trkpt lat="50.27292" lon="4.38887">
        <ele>167.8</ele>
        <time>2022-04-21T12:17:48Z</time>
      </trkpt>
      <trkpt lat="50.27279" lon="4.38876">
        <ele>168.2</ele>
        <time>2022-04-21T12:17:53Z</time>
      </trkpt>
      <trkpt lat="50.27264" lon="4.38864">
        <ele>168.6</ele>
        <time>2022-04-21T12:17:59Z</time>
      </trkpt>
      <trkpt lat="50.27255" lon="4.38864">
        <ele>168.8</ele>
        <time>2022-04-21T12:18:02Z</time>
      </trkpt>
      <trkpt lat="50.27253" lon="4.38868">
        <ele>168.8</ele>
        <time>2022-04-21T12:18:03Z</time>
      </trkpt>
      <trkpt lat="50.27246" lon="4.38893">
        <ele>169</ele>
        <time>2022-04-21T12:18:09Z</time>
      </trkpt>
      <trkpt lat="50.27238" lon="4.38916">
        <ele>169</ele>
        <time>2022-04-21T12:18:15Z</time>
      </trkpt>
      <trkpt lat="50.27231" lon="4.38945">
        <ele>169.2</ele>
        <time>2022-04-21T12:18:22Z</time>
      </trkpt>
      <trkpt lat="50.27218" lon="4.38984">
        <ele>169.2</ele>
        <time>2022-04-21T12:18:31Z</time>
      </trkpt>
      <trkpt lat="50.27207" lon="4.3902">
        <ele>169.4</ele>
        <time>2022-04-21T12:18:39Z</time>
      </trkpt>
      <trkpt lat="50.27196" lon="4.3905">
        <ele>169.4</ele>
        <time>2022-04-21T12:18:46Z</time>
      </trkpt>
      <trkpt lat="50.27183" lon="4.3906">
        <ele>169.4</ele>
        <time>2022-04-21T12:18:51Z</time>
      </trkpt>
      <trkpt lat="50.27166" lon="4.39053">
        <ele>169.4</ele>
        <time>2022-04-21T12:18:56Z</time>
      </trkpt>
      <trkpt lat="50.27143" lon="4.3904">
        <ele>169.6</ele>
        <time>2022-04-21T12:19:03Z</time>
      </trkpt>
      <trkpt lat="50.27121" lon="4.39028">
        <ele>169.6</ele>
        <time>2022-04-21T12:19:10Z</time>
      </trkpt>
      <trkpt lat="50.27099" lon="4.39017">
        <ele>169.8</ele>
        <time>2022-04-21T12:19:16Z</time>
      </trkpt>
      <trkpt lat="50.27076" lon="4.39002">
        <ele>169.8</ele>
        <time>2022-04-21T12:19:22Z</time>
      </trkpt>
      <trkpt lat="50.27047" lon="4.38984">
        <ele>170.2</ele>
        <time>2022-04-21T12:19:29Z</time>
      </trkpt>
      <trkpt lat="50.27019" lon="4.38967">
        <ele>170.4</ele>
        <time>2022-04-21T12:19:36Z</time>
      </trkpt>
      <trkpt lat="50.27011" lon="4.38963">
        <ele>170.4</ele>
        <time>2022-04-21T12:19:38Z</time>
      </trkpt>
      <trkpt lat="50.27003" lon="4.38956">
        <ele>170.4</ele>
        <time>2022-04-21T12:19:40Z</time>
      </trkpt>
      <trkpt lat="50.26995" lon="4.38949">
        <ele>170.4</ele>
        <time>2022-04-21T12:19:42Z</time>
      </trkpt>
      <trkpt lat="50.26974" lon="4.38926">
        <ele>170.6</ele>
        <time>2022-04-21T12:19:48Z</time>
      </trkpt>
      <trkpt lat="50.26971" lon="4.38921">
        <ele>170.6</ele>
        <time>2022-04-21T12:19:49Z</time>
      </trkpt>
      <trkpt lat="50.26968" lon="4.38903">
        <ele>170.6</ele>
        <time>2022-04-21T12:19:52Z</time>
      </trkpt>
      <trkpt lat="50.26967" lon="4.38867">
        <ele>171</ele>
        <time>2022-04-21T12:19:58Z</time>
      </trkpt>
      <trkpt lat="50.26965" lon="4.38862">
        <ele>171</ele>
        <time>2022-04-21T12:19:59Z</time>
      </trkpt>
      <trkpt lat="50.26961" lon="4.38858">
        <ele>171.2</ele>
        <time>2022-04-21T12:20:00Z</time>
      </trkpt>
      <trkpt lat="50.26954" lon="4.38851">
        <ele>171.6</ele>
        <time>2022-04-21T12:20:02Z</time>
      </trkpt>
      <trkpt lat="50.2695" lon="4.38849">
        <ele>171.6</ele>
        <time>2022-04-21T12:20:03Z</time>
      </trkpt>
      <trkpt lat="50.26921" lon="4.38835">
        <ele>172.6</ele>
        <time>2022-04-21T12:20:11Z</time>
      </trkpt>
      <trkpt lat="50.26887" lon="4.38815">
        <ele>173.8</ele>
        <time>2022-04-21T12:20:20Z</time>
      </trkpt>
      <trkpt lat="50.26859" lon="4.38791">
        <ele>175.2</ele>
        <time>2022-04-21T12:20:27Z</time>
      </trkpt>
      <trkpt lat="50.26831" lon="4.38776">
        <ele>176.2</ele>
        <time>2022-04-21T12:20:34Z</time>
      </trkpt>
      <trkpt lat="50.26803" lon="4.38762">
        <ele>176.6</ele>
        <time>2022-04-21T12:20:41Z</time>
      </trkpt>
      <trkpt lat="50.26781" lon="4.38747">
        <ele>176.8</ele>
        <time>2022-04-21T12:20:46Z</time>
      </trkpt>
      <trkpt lat="50.26771" lon="4.38749">
        <ele>177</ele>
        <time>2022-04-21T12:20:48Z</time>
      </trkpt>
      <trkpt lat="50.26767" lon="4.38755">
        <ele>177</ele>
        <time>2022-04-21T12:20:49Z</time>
      </trkpt>
      <trkpt lat="50.26763" lon="4.38762">
        <ele>177</ele>
        <time>2022-04-21T12:20:50Z</time>
      </trkpt>
      <trkpt lat="50.26756" lon="4.38788">
        <ele>177</ele>
        <time>2022-04-21T12:20:53Z</time>
      </trkpt>
      <trkpt lat="50.26745" lon="4.38824">
        <ele>177.2</ele>
        <time>2022-04-21T12:20:58Z</time>
      </trkpt>
      <trkpt lat="50.26737" lon="4.3886">
        <ele>177.2</ele>
        <time>2022-04-21T12:21:04Z</time>
      </trkpt>
      <trkpt lat="50.26731" lon="4.38906">
        <ele>177.4</ele>
        <time>2022-04-21T12:21:11Z</time>
      </trkpt>
      <trkpt lat="50.26729" lon="4.38918">
        <ele>177.4</ele>
        <time>2022-04-21T12:21:13Z</time>
      </trkpt>
      <trkpt lat="50.26724" lon="4.38953">
        <ele>177.6</ele>
        <time>2022-04-21T12:21:19Z</time>
      </trkpt>
      <trkpt lat="50.26718" lon="4.38988">
        <ele>178</ele>
        <time>2022-04-21T12:21:25Z</time>
      </trkpt>
      <trkpt lat="50.26711" lon="4.39024">
        <ele>178.4</ele>
        <time>2022-04-21T12:21:31Z</time>
      </trkpt>
      <trkpt lat="50.26707" lon="4.39035">
        <ele>178.6</ele>
        <time>2022-04-21T12:21:33Z</time>
      </trkpt>
      <trkpt lat="50.2669" lon="4.39077">
        <ele>179.2</ele>
        <time>2022-04-21T12:21:41Z</time>
      </trkpt>
      <trkpt lat="50.2668" lon="4.39097">
        <ele>179.4</ele>
        <time>2022-04-21T12:21:45Z</time>
      </trkpt>
      <trkpt lat="50.26669" lon="4.39116">
        <ele>179.6</ele>
        <time>2022-04-21T12:21:49Z</time>
      </trkpt>
      <trkpt lat="50.26646" lon="4.39152">
        <ele>180.6</ele>
        <time>2022-04-21T12:21:57Z</time>
      </trkpt>
      <trkpt lat="50.26624" lon="4.39186">
        <ele>181.4</ele>
        <time>2022-04-21T12:22:05Z</time>
      </trkpt>
      <trkpt lat="50.26602" lon="4.39219">
        <ele>182.4</ele>
        <time>2022-04-21T12:22:13Z</time>
      </trkpt>
      <trkpt lat="50.26596" lon="4.39217">
        <ele>182.4</ele>
        <time>2022-04-21T12:22:15Z</time>
      </trkpt>
      <trkpt lat="50.26594" lon="4.39214">
        <ele>182.6</ele>
        <time>2022-04-21T12:22:16Z</time>
      </trkpt>
      <trkpt lat="50.26574" lon="4.39187">
        <ele>183.2</ele>
        <time>2022-04-21T12:22:22Z</time>
      </trkpt>
      <trkpt lat="50.26541" lon="4.39148">
        <ele>183.8</ele>
        <time>2022-04-21T12:22:30Z</time>
      </trkpt>
      <trkpt lat="50.26516" lon="4.39122">
        <ele>184</ele>
        <time>2022-04-21T12:22:36Z</time>
      </trkpt>
      <trkpt lat="50.26487" lon="4.39088">
        <ele>184</ele>
        <time>2022-04-21T12:22:42Z</time>
      </trkpt>
      <trkpt lat="50.26465" lon="4.39067">
        <ele>184</ele>
        <time>2022-04-21T12:22:46Z</time>
      </trkpt>
      <trkpt lat="50.2646" lon="4.39064">
        <ele>184.2</ele>
        <time>2022-04-21T12:22:47Z</time>
      </trkpt>
      <trkpt lat="50.26436" lon="4.39052">
        <ele>184.2</ele>
        <time>2022-04-21T12:22:52Z</time>
      </trkpt>
      <trkpt lat="50.26429" lon="4.39045">
        <ele>184.4</ele>
        <time>2022-04-21T12:22:54Z</time>
      </trkpt>
      <trkpt lat="50.26424" lon="4.39032">
        <ele>184.4</ele>
        <time>2022-04-21T12:22:56Z</time>
      </trkpt>
      <trkpt lat="50.26418" lon="4.38992">
        <ele>184.6</ele>
        <time>2022-04-21T12:23:01Z</time>
      </trkpt>
      <trkpt lat="50.26404" lon="4.38928">
        <ele>185</ele>
        <time>2022-04-21T12:23:09Z</time>
      </trkpt>
      <trkpt lat="50.26383" lon="4.38863">
        <ele>185.4</ele>
        <time>2022-04-21T12:23:18Z</time>
      </trkpt>
      <trkpt lat="50.26363" lon="4.3882">
        <ele>185.8</ele>
        <time>2022-04-21T12:23:25Z</time>
      </trkpt>
      <trkpt lat="50.26336" lon="4.38783">
        <ele>186.2</ele>
        <time>2022-04-21T12:23:32Z</time>
      </trkpt>
      <trkpt lat="50.26312" lon="4.38751">
        <ele>186.4</ele>
        <time>2022-04-21T12:23:38Z</time>
      </trkpt>
      <trkpt lat="50.26288" lon="4.38718">
        <ele>186.6</ele>
        <time>2022-04-21T12:23:44Z</time>
      </trkpt>
      <trkpt lat="50.26247" lon="4.3866">
        <ele>187</ele>
        <time>2022-04-21T12:23:54Z</time>
      </trkpt>
      <trkpt lat="50.26205" lon="4.38604">
        <ele>187.6</ele>
        <time>2022-04-21T12:24:04Z</time>
      </trkpt>
      <trkpt lat="50.26159" lon="4.38563">
        <ele>188.2</ele>
        <time>2022-04-21T12:24:13Z</time>
      </trkpt>
      <trkpt lat="50.2615" lon="4.38551">
        <ele>188.4</ele>
        <time>2022-04-21T12:24:15Z</time>
      </trkpt>
      <trkpt lat="50.26138" lon="4.3853">
        <ele>188.6</ele>
        <time>2022-04-21T12:24:18Z</time>
      </trkpt>
      <trkpt lat="50.26121" lon="4.38484">
        <ele>189.2</ele>
        <time>2022-04-21T12:24:24Z</time>
      </trkpt>
      <trkpt lat="50.26107" lon="4.38407">
        <ele>190</ele>
        <time>2022-04-21T12:24:33Z</time>
      </trkpt>
      <trkpt lat="50.26095" lon="4.38341">
        <ele>190.8</ele>
        <time>2022-04-21T12:24:41Z</time>
      </trkpt>
      <trkpt lat="50.26083" lon="4.38304">
        <ele>191.4</ele>
        <time>2022-04-21T12:24:46Z</time>
      </trkpt>
      <trkpt lat="50.26061" lon="4.38251">
        <ele>192.2</ele>
        <time>2022-04-21T12:24:54Z</time>
      </trkpt>
      <trkpt lat="50.26037" lon="4.38193">
        <ele>192.8</ele>
        <time>2022-04-21T12:25:02Z</time>
      </trkpt>
      <trkpt lat="50.26018" lon="4.3814">
        <ele>193.4</ele>
        <time>2022-04-21T12:25:09Z</time>
      </trkpt>
      <trkpt lat="50.25998" lon="4.38082">
        <ele>194</ele>
        <time>2022-04-21T12:25:17Z</time>
      </trkpt>
      <trkpt lat="50.25974" lon="4.3803">
        <ele>194.2</ele>
        <time>2022-04-21T12:25:24Z</time>
      </trkpt>
      <trkpt lat="50.25936" lon="4.37975">
        <ele>194.4</ele>
        <time>2022-04-21T12:25:33Z</time>
      </trkpt>
      <trkpt lat="50.25906" lon="4.37921">
        <ele>194.8</ele>
        <time>2022-04-21T12:25:41Z</time>
      </trkpt>
      <trkpt lat="50.25874" lon="4.37858">
        <ele>194.8</ele>
        <time>2022-04-21T12:25:49Z</time>
      </trkpt>
      <trkpt lat="50.25839" lon="4.37793">
        <ele>194.8</ele>
        <time>2022-04-21T12:25:57Z</time>
      </trkpt>
      <trkpt lat="50.25835" lon="4.37785">
        <ele>194.8</ele>
        <time>2022-04-21T12:25:58Z</time>
      </trkpt>
      <trkpt lat="50.25813" lon="4.3773">
        <ele>195</ele>
        <time>2022-04-21T12:26:05Z</time>
      </trkpt>
      <trkpt lat="50.25792" lon="4.37692">
        <ele>195.2</ele>
        <time>2022-04-21T12:26:11Z</time>
      </trkpt>
      <trkpt lat="50.25789" lon="4.37688">
        <ele>195.2</ele>
        <time>2022-04-21T12:26:12Z</time>
      </trkpt>
      <trkpt lat="50.25773" lon="4.37676">
        <ele>195.4</ele>
        <time>2022-04-21T12:26:16Z</time>
      </trkpt>
      <trkpt lat="50.25739" lon="4.37658">
        <ele>196</ele>
        <time>2022-04-21T12:26:24Z</time>
      </trkpt>
      <trkpt lat="50.25688" lon="4.37642">
        <ele>196.8</ele>
        <time>2022-04-21T12:26:35Z</time>
      </trkpt>
      <trkpt lat="50.2568" lon="4.37639">
        <ele>197</ele>
        <time>2022-04-21T12:26:37Z</time>
      </trkpt>
      <trkpt lat="50.25672" lon="4.37632">
        <ele>197.2</ele>
        <time>2022-04-21T12:26:39Z</time>
      </trkpt>
      <trkpt lat="50.25669" lon="4.37626">
        <ele>197.2</ele>
        <time>2022-04-21T12:26:40Z</time>
      </trkpt>
      <trkpt lat="50.25654" lon="4.37587">
        <ele>197.6</ele>
        <time>2022-04-21T12:26:47Z</time>
      </trkpt>
      <trkpt lat="50.25632" lon="4.37531">
        <ele>198</ele>
        <time>2022-04-21T12:26:58Z</time>
      </trkpt>
      <trkpt lat="50.25623" lon="4.37528">
        <ele>198</ele>
        <time>2022-04-21T12:27:00Z</time>
      </trkpt>
      <trkpt lat="50.25618" lon="4.3753">
        <ele>198.2</ele>
        <time>2022-04-21T12:27:01Z</time>
      </trkpt>
      <trkpt lat="50.25582" lon="4.3755">
        <ele>198.6</ele>
        <time>2022-04-21T12:27:09Z</time>
      </trkpt>
      <trkpt lat="50.25545" lon="4.37571">
        <ele>199.2</ele>
        <time>2022-04-21T12:27:17Z</time>
      </trkpt>
      <trkpt lat="50.25502" lon="4.37595">
        <ele>200</ele>
        <time>2022-04-21T12:27:26Z</time>
      </trkpt>
      <trkpt lat="50.25459" lon="4.37621">
        <ele>200.8</ele>
        <time>2022-04-21T12:27:35Z</time>
      </trkpt>
      <trkpt lat="50.25422" lon="4.37647">
        <ele>201.6</ele>
        <time>2022-04-21T12:27:43Z</time>
      </trkpt>
      <trkpt lat="50.25394" lon="4.37669">
        <ele>201.6</ele>
        <time>2022-04-21T12:27:48Z</time>
      </trkpt>
      <trkpt lat="50.25352" lon="4.37704">
        <ele>201.6</ele>
        <time>2022-04-21T12:27:54Z</time>
      </trkpt>
      <trkpt lat="50.25304" lon="4.37745">
        <ele>201.6</ele>
        <time>2022-04-21T12:28:00Z</time>
      </trkpt>
      <trkpt lat="50.25296" lon="4.37752">
        <ele>201</ele>
        <time>2022-04-21T12:28:01Z</time>
      </trkpt>
      <trkpt lat="50.25242" lon="4.37798">
        <ele>200.2</ele>
        <time>2022-04-21T12:28:07Z</time>
      </trkpt>
      <trkpt lat="50.25215" lon="4.37822">
        <ele>199.8</ele>
        <time>2022-04-21T12:28:10Z</time>
      </trkpt>
      <trkpt lat="50.25165" lon="4.37864">
        <ele>199.4</ele>
        <time>2022-04-21T12:28:16Z</time>
      </trkpt>
      <trkpt lat="50.25135" lon="4.37892">
        <ele>199.4</ele>
        <time>2022-04-21T12:28:21Z</time>
      </trkpt>
      <trkpt lat="50.25109" lon="4.37926">
        <ele>199.4</ele>
        <time>2022-04-21T12:28:27Z</time>
      </trkpt>
      <trkpt lat="50.2508" lon="4.37981">
        <ele>199</ele>
        <time>2022-04-21T12:28:35Z</time>
      </trkpt>
      <trkpt lat="50.25048" lon="4.38044">
        <ele>200</ele>
        <time>2022-04-21T12:28:44Z</time>
      </trkpt>
      <trkpt lat="50.25023" lon="4.38086">
        <ele>200.6</ele>
        <time>2022-04-21T12:28:51Z</time>
      </trkpt>
      <trkpt lat="50.25003" lon="4.38113">
        <ele>201</ele>
        <time>2022-04-21T12:28:58Z</time>
      </trkpt>
      <trkpt lat="50.24994" lon="4.38123">
        <ele>201.4</ele>
        <time>2022-04-21T12:29:03Z</time>
      </trkpt>
      <trkpt lat="50.24983" lon="4.38138">
        <ele>202</ele>
        <time>2022-04-21T12:29:08Z</time>
      </trkpt>
      <trkpt lat="50.2496" lon="4.38166">
        <ele>203</ele>
        <time>2022-04-21T12:29:15Z</time>
      </trkpt>
      <trkpt lat="50.24948" lon="4.38183">
        <ele>203.6</ele>
        <time>2022-04-21T12:29:19Z</time>
      </trkpt>
      <trkpt lat="50.24941" lon="4.38194">
        <ele>203.8</ele>
        <time>2022-04-21T12:29:21Z</time>
      </trkpt>
      <trkpt lat="50.24936" lon="4.38199">
        <ele>204</ele>
        <time>2022-04-21T12:29:22Z</time>
      </trkpt>
      <trkpt lat="50.24918" lon="4.38215">
        <ele>204.6</ele>
        <time>2022-04-21T12:29:26Z</time>
      </trkpt>
      <trkpt lat="50.24905" lon="4.38223">
        <ele>205</ele>
        <time>2022-04-21T12:29:29Z</time>
      </trkpt>
      <trkpt lat="50.24893" lon="4.38227">
        <ele>205.4</ele>
        <time>2022-04-21T12:29:32Z</time>
      </trkpt>
      <trkpt lat="50.24876" lon="4.3823">
        <ele>205.6</ele>
        <time>2022-04-21T12:29:36Z</time>
      </trkpt>
      <trkpt lat="50.24867" lon="4.38227">
        <ele>205.8</ele>
        <time>2022-04-21T12:29:38Z</time>
      </trkpt>
      <trkpt lat="50.24831" lon="4.38215">
        <ele>206.4</ele>
        <time>2022-04-21T12:29:46Z</time>
      </trkpt>
      <trkpt lat="50.24807" lon="4.38207">
        <ele>206.8</ele>
        <time>2022-04-21T12:29:51Z</time>
      </trkpt>
      <trkpt lat="50.24802" lon="4.38206">
        <ele>206.8</ele>
        <time>2022-04-21T12:29:52Z</time>
      </trkpt>
      <trkpt lat="50.24777" lon="4.38204">
        <ele>207</ele>
        <time>2022-04-21T12:29:57Z</time>
      </trkpt>
      <trkpt lat="50.24767" lon="4.38205">
        <ele>207</ele>
        <time>2022-04-21T12:29:59Z</time>
      </trkpt>
      <trkpt lat="50.24741" lon="4.38213">
        <ele>207</ele>
        <time>2022-04-21T12:30:04Z</time>
      </trkpt>
      <trkpt lat="50.24732" lon="4.3822">
        <ele>207</ele>
        <time>2022-04-21T12:30:06Z</time>
      </trkpt>
      <trkpt lat="50.24728" lon="4.38224">
        <ele>207</ele>
        <time>2022-04-21T12:30:07Z</time>
      </trkpt>
      <trkpt lat="50.24718" lon="4.38239">
        <ele>207.2</ele>
        <time>2022-04-21T12:30:10Z</time>
      </trkpt>
      <trkpt lat="50.24707" lon="4.38251">
        <ele>207.2</ele>
        <time>2022-04-21T12:30:13Z</time>
      </trkpt>
      <trkpt lat="50.24699" lon="4.38255">
        <ele>207.4</ele>
        <time>2022-04-21T12:30:15Z</time>
      </trkpt>
      <trkpt lat="50.24667" lon="4.38264">
        <ele>207.2</ele>
        <time>2022-04-21T12:30:22Z</time>
      </trkpt>
      <trkpt lat="50.24633" lon="4.38283">
        <ele>207.4</ele>
        <time>2022-04-21T12:30:30Z</time>
      </trkpt>
      <trkpt lat="50.24602" lon="4.38303">
        <ele>207.4</ele>
        <time>2022-04-21T12:30:36Z</time>
      </trkpt>
      <trkpt lat="50.24571" lon="4.38321">
        <ele>207.6</ele>
        <time>2022-04-21T12:30:42Z</time>
      </trkpt>
      <trkpt lat="50.24546" lon="4.38335">
        <ele>207.8</ele>
        <time>2022-04-21T12:30:48Z</time>
      </trkpt>
      <trkpt lat="50.24517" lon="4.38359">
        <ele>208.2</ele>
        <time>2022-04-21T12:30:55Z</time>
      </trkpt>
      <trkpt lat="50.24493" lon="4.38381">
        <ele>208.6</ele>
        <time>2022-04-21T12:31:01Z</time>
      </trkpt>
      <trkpt lat="50.24447" lon="4.38425">
        <ele>209.6</ele>
        <time>2022-04-21T12:31:12Z</time>
      </trkpt>
      <trkpt lat="50.24412" lon="4.38446">
        <ele>210.2</ele>
        <time>2022-04-21T12:31:20Z</time>
      </trkpt>
      <trkpt lat="50.24373" lon="4.38465">
        <ele>211</ele>
        <time>2022-04-21T12:31:29Z</time>
      </trkpt>
      <trkpt lat="50.24326" lon="4.38488">
        <ele>212.2</ele>
        <time>2022-04-21T12:31:39Z</time>
      </trkpt>
      <trkpt lat="50.24279" lon="4.3851">
        <ele>213.4</ele>
        <time>2022-04-21T12:31:49Z</time>
      </trkpt>
      <trkpt lat="50.24265" lon="4.38517">
        <ele>213.6</ele>
        <time>2022-04-21T12:31:52Z</time>
      </trkpt>
      <trkpt lat="50.24254" lon="4.38519">
        <ele>214</ele>
        <time>2022-04-21T12:31:54Z</time>
      </trkpt>
      <trkpt lat="50.24249" lon="4.38519">
        <ele>214</ele>
        <time>2022-04-21T12:31:55Z</time>
      </trkpt>
      <trkpt lat="50.24216" lon="4.38508">
        <ele>214.8</ele>
        <time>2022-04-21T12:32:02Z</time>
      </trkpt>
      <trkpt lat="50.24174" lon="4.38486">
        <ele>216</ele>
        <time>2022-04-21T12:32:11Z</time>
      </trkpt>
      <trkpt lat="50.2413" lon="4.38463">
        <ele>217.6</ele>
        <time>2022-04-21T12:32:20Z</time>
      </trkpt>
      <trkpt lat="50.24097" lon="4.38455">
        <ele>218.6</ele>
        <time>2022-04-21T12:32:27Z</time>
      </trkpt>
      <trkpt lat="50.2406" lon="4.38452">
        <ele>220</ele>
        <time>2022-04-21T12:32:35Z</time>
      </trkpt>
      <trkpt lat="50.24021" lon="4.38449">
        <ele>221.6</ele>
        <time>2022-04-21T12:32:43Z</time>
      </trkpt>
      <trkpt lat="50.23982" lon="4.38445">
        <ele>223.4</ele>
        <time>2022-04-21T12:32:51Z</time>
      </trkpt>
      <trkpt lat="50.23938" lon="4.38442">
        <ele>225.2</ele>
        <time>2022-04-21T12:33:00Z</time>
      </trkpt>
      <trkpt lat="50.23882" lon="4.38437">
        <ele>227.8</ele>
        <time>2022-04-21T12:33:11Z</time>
      </trkpt>
      <trkpt lat="50.23832" lon="4.38431">
        <ele>229.8</ele>
        <time>2022-04-21T12:33:21Z</time>
      </trkpt>
      <trkpt lat="50.23815" lon="4.3842">
        <ele>230.6</ele>
        <time>2022-04-21T12:33:25Z</time>
      </trkpt>
      <trkpt lat="50.23807" lon="4.38419">
        <ele>231</ele>
        <time>2022-04-21T12:33:27Z</time>
      </trkpt>
      <trkpt lat="50.23799" lon="4.38421">
        <ele>231.2</ele>
        <time>2022-04-21T12:33:29Z</time>
      </trkpt>
      <trkpt lat="50.23785" lon="4.3842">
        <ele>231.8</ele>
        <time>2022-04-21T12:33:32Z</time>
      </trkpt>
      <trkpt lat="50.23746" lon="4.38417">
        <ele>233</ele>
        <time>2022-04-21T12:33:40Z</time>
      </trkpt>
      <trkpt lat="50.23712" lon="4.38411">
        <ele>233.6</ele>
        <time>2022-04-21T12:33:47Z</time>
      </trkpt>
      <trkpt lat="50.23674" lon="4.38406">
        <ele>234.4</ele>
        <time>2022-04-21T12:33:54Z</time>
      </trkpt>
      <trkpt lat="50.23628" lon="4.384">
        <ele>234.8</ele>
        <time>2022-04-21T12:34:02Z</time>
      </trkpt>
      <trkpt lat="50.23584" lon="4.38393">
        <ele>234.8</ele>
        <time>2022-04-21T12:34:09Z</time>
      </trkpt>
      <trkpt lat="50.23543" lon="4.38379">
        <ele>234.6</ele>
        <time>2022-04-21T12:34:16Z</time>
      </trkpt>
      <trkpt lat="50.23501" lon="4.38354">
        <ele>234</ele>
        <time>2022-04-21T12:34:23Z</time>
      </trkpt>
      <trkpt lat="50.23453" lon="4.38313">
        <ele>234</ele>
        <time>2022-04-21T12:34:31Z</time>
      </trkpt>
      <trkpt lat="50.23401" lon="4.38266">
        <ele>233.6</ele>
        <time>2022-04-21T12:34:39Z</time>
      </trkpt>
      <trkpt lat="50.23357" lon="4.38234">
        <ele>233</ele>
        <time>2022-04-21T12:34:46Z</time>
      </trkpt>
      <trkpt lat="50.23305" lon="4.38195">
        <ele>232.4</ele>
        <time>2022-04-21T12:34:55Z</time>
      </trkpt>
      <trkpt lat="50.23299" lon="4.3819">
        <ele>232.4</ele>
        <time>2022-04-21T12:34:56Z</time>
      </trkpt>
      <trkpt lat="50.23266" lon="4.38154">
        <ele>232</ele>
        <time>2022-04-21T12:35:02Z</time>
      </trkpt>
      <trkpt lat="50.23242" lon="4.38124">
        <ele>231.6</ele>
        <time>2022-04-21T12:35:07Z</time>
      </trkpt>
      <trkpt lat="50.23236" lon="4.3812">
        <ele>231.6</ele>
        <time>2022-04-21T12:35:08Z</time>
      </trkpt>
      <trkpt lat="50.23196" lon="4.38093">
        <ele>231.2</ele>
        <time>2022-04-21T12:35:15Z</time>
      </trkpt>
      <trkpt lat="50.23156" lon="4.38051">
        <ele>231</ele>
        <time>2022-04-21T12:35:23Z</time>
      </trkpt>
      <trkpt lat="50.23137" lon="4.3803">
        <ele>231</ele>
        <time>2022-04-21T12:35:27Z</time>
      </trkpt>
      <trkpt lat="50.23118" lon="4.38014">
        <ele>230.8</ele>
        <time>2022-04-21T12:35:31Z</time>
      </trkpt>
      <trkpt lat="50.23087" lon="4.38">
        <ele>231.6</ele>
        <time>2022-04-21T12:35:38Z</time>
      </trkpt>
      <trkpt lat="50.23052" lon="4.37988">
        <ele>232.6</ele>
        <time>2022-04-21T12:35:46Z</time>
      </trkpt>
      <trkpt lat="50.23022" lon="4.3798">
        <ele>233.4</ele>
        <time>2022-04-21T12:35:53Z</time>
      </trkpt>
      <trkpt lat="50.22987" lon="4.37972">
        <ele>234.6</ele>
        <time>2022-04-21T12:36:02Z</time>
      </trkpt>
      <trkpt lat="50.22956" lon="4.37963">
        <ele>235.2</ele>
        <time>2022-04-21T12:36:09Z</time>
      </trkpt>
      <trkpt lat="50.22952" lon="4.37963">
        <ele>235.2</ele>
        <time>2022-04-21T12:36:10Z</time>
      </trkpt>
      <trkpt lat="50.22929" lon="4.37961">
        <ele>235.4</ele>
        <time>2022-04-21T12:36:15Z</time>
      </trkpt>
      <trkpt lat="50.22893" lon="4.37959">
        <ele>235.8</ele>
        <time>2022-04-21T12:36:23Z</time>
      </trkpt>
      <trkpt lat="50.2288" lon="4.37958">
        <ele>236</ele>
        <time>2022-04-21T12:36:26Z</time>
      </trkpt>
      <trkpt lat="50.22871" lon="4.37957">
        <ele>236</ele>
        <time>2022-04-21T12:36:28Z</time>
      </trkpt>
      <trkpt lat="50.22866" lon="4.37957">
        <ele>236</ele>
        <time>2022-04-21T12:36:29Z</time>
      </trkpt>
      <trkpt lat="50.22848" lon="4.37959">
        <ele>236.2</ele>
        <time>2022-04-21T12:36:33Z</time>
      </trkpt>
      <trkpt lat="50.22839" lon="4.37957">
        <ele>236.2</ele>
        <time>2022-04-21T12:36:35Z</time>
      </trkpt>
      <trkpt lat="50.22829" lon="4.37949">
        <ele>236.2</ele>
        <time>2022-04-21T12:36:38Z</time>
      </trkpt>
      <trkpt lat="50.22828" lon="4.37945">
        <ele>236.2</ele>
        <time>2022-04-21T12:36:39Z</time>
      </trkpt>
      <trkpt lat="50.22829" lon="4.37941">
        <ele>236.2</ele>
        <time>2022-04-21T12:36:40Z</time>
      </trkpt>
      <trkpt lat="50.2283" lon="4.37931">
        <ele>236.2</ele>
        <time>2022-04-21T12:36:42Z</time>
      </trkpt>
      <trkpt lat="50.22836" lon="4.37894">
        <ele>236.2</ele>
        <time>2022-04-21T12:36:49Z</time>
      </trkpt>
      <trkpt lat="50.22843" lon="4.37856">
        <ele>236.2</ele>
        <time>2022-04-21T12:36:55Z</time>
      </trkpt>
      <trkpt lat="50.22845" lon="4.37849">
        <ele>236.2</ele>
        <time>2022-04-21T12:36:56Z</time>
      </trkpt>
      <trkpt lat="50.22856" lon="4.37803">
        <ele>236.6</ele>
        <time>2022-04-21T12:37:03Z</time>
      </trkpt>
      <trkpt lat="50.22868" lon="4.37747">
        <ele>237</ele>
        <time>2022-04-21T12:37:11Z</time>
      </trkpt>
      <trkpt lat="50.22877" lon="4.37716">
        <ele>237.2</ele>
        <time>2022-04-21T12:37:16Z</time>
      </trkpt>
      <trkpt lat="50.2288" lon="4.37711">
        <ele>237.4</ele>
        <time>2022-04-21T12:37:17Z</time>
      </trkpt>
      <trkpt lat="50.22887" lon="4.37703">
        <ele>237.6</ele>
        <time>2022-04-21T12:37:19Z</time>
      </trkpt>
      <trkpt lat="50.22899" lon="4.37692">
        <ele>237.8</ele>
        <time>2022-04-21T12:37:22Z</time>
      </trkpt>
      <trkpt lat="50.22936" lon="4.37664">
        <ele>238.4</ele>
        <time>2022-04-21T12:37:31Z</time>
      </trkpt>
      <trkpt lat="50.22969" lon="4.37642">
        <ele>239</ele>
        <time>2022-04-21T12:37:39Z</time>
      </trkpt>
      <trkpt lat="50.2299" lon="4.37629">
        <ele>239.2</ele>
        <time>2022-04-21T12:37:44Z</time>
      </trkpt>
      <trkpt lat="50.22995" lon="4.37628">
        <ele>239.4</ele>
        <time>2022-04-21T12:37:45Z</time>
      </trkpt>
      <trkpt lat="50.23026" lon="4.37623">
        <ele>239.6</ele>
        <time>2022-04-21T12:37:52Z</time>
      </trkpt>
      <trkpt lat="50.23071" lon="4.37617">
        <ele>239.8</ele>
        <time>2022-04-21T12:38:01Z</time>
      </trkpt>
      <trkpt lat="50.23102" lon="4.37613">
        <ele>240</ele>
        <time>2022-04-21T12:38:07Z</time>
      </trkpt>
      <trkpt lat="50.2314" lon="4.37609">
        <ele>240</ele>
        <time>2022-04-21T12:38:15Z</time>
      </trkpt>
      <trkpt lat="50.23188" lon="4.37604">
        <ele>240.4</ele>
        <time>2022-04-21T12:38:25Z</time>
      </trkpt>
      <trkpt lat="50.23225" lon="4.37599">
        <ele>240.6</ele>
        <time>2022-04-21T12:38:32Z</time>
      </trkpt>
      <trkpt lat="50.23252" lon="4.37596">
        <ele>240.8</ele>
        <time>2022-04-21T12:38:38Z</time>
      </trkpt>
      <trkpt lat="50.23287" lon="4.37592">
        <ele>241</ele>
        <time>2022-04-21T12:38:45Z</time>
      </trkpt>
      <trkpt lat="50.23317" lon="4.3759">
        <ele>241.2</ele>
        <time>2022-04-21T12:38:52Z</time>
      </trkpt>
      <trkpt lat="50.23319" lon="4.37587">
        <ele>241.2</ele>
        <time>2022-04-21T12:38:53Z</time>
      </trkpt>
      <trkpt lat="50.23322" lon="4.37579">
        <ele>241.2</ele>
        <time>2022-04-21T12:38:55Z</time>
      </trkpt>
      <trkpt lat="50.23321" lon="4.37567">
        <ele>241.4</ele>
        <time>2022-04-21T12:38:57Z</time>
      </trkpt>
      <trkpt lat="50.23318" lon="4.37554">
        <ele>241.4</ele>
        <time>2022-04-21T12:38:59Z</time>
      </trkpt>
      <trkpt lat="50.23312" lon="4.37535">
        <ele>241.6</ele>
        <time>2022-04-21T12:39:02Z</time>
      </trkpt>
      <trkpt lat="50.23305" lon="4.37516">
        <ele>241.6</ele>
        <time>2022-04-21T12:39:05Z</time>
      </trkpt>
      <trkpt lat="50.233" lon="4.37503">
        <ele>241.8</ele>
        <time>2022-04-21T12:39:07Z</time>
      </trkpt>
      <trkpt lat="50.23291" lon="4.3748">
        <ele>241.8</ele>
        <time>2022-04-21T12:39:11Z</time>
      </trkpt>
      <trkpt lat="50.23285" lon="4.37465">
        <ele>242</ele>
        <time>2022-04-21T12:39:15Z</time>
      </trkpt>
      <trkpt lat="50.23278" lon="4.37451">
        <ele>242.2</ele>
        <time>2022-04-21T12:39:21Z</time>
      </trkpt>
      <trkpt lat="50.23268" lon="4.37434">
        <ele>242.2</ele>
        <time>2022-04-21T12:39:25Z</time>
      </trkpt>
      <trkpt lat="50.23249" lon="4.37402">
        <ele>242.2</ele>
        <time>2022-04-21T12:39:30Z</time>
      </trkpt>
      <trkpt lat="50.23214" lon="4.37347">
        <ele>242.4</ele>
        <time>2022-04-21T12:39:38Z</time>
      </trkpt>
      <trkpt lat="50.2321" lon="4.3734">
        <ele>242.4</ele>
        <time>2022-04-21T12:39:39Z</time>
      </trkpt>
      <trkpt lat="50.23207" lon="4.37331">
        <ele>242.4</ele>
        <time>2022-04-21T12:39:40Z</time>
      </trkpt>
      <trkpt lat="50.23202" lon="4.37312">
        <ele>242.4</ele>
        <time>2022-04-21T12:39:42Z</time>
      </trkpt>
      <trkpt lat="50.23198" lon="4.37293">
        <ele>242.4</ele>
        <time>2022-04-21T12:39:44Z</time>
      </trkpt>
      <trkpt lat="50.2319" lon="4.37252">
        <ele>242.4</ele>
        <time>2022-04-21T12:39:49Z</time>
      </trkpt>
      <trkpt lat="50.23189" lon="4.37237">
        <ele>242.4</ele>
        <time>2022-04-21T12:39:51Z</time>
      </trkpt>
      <trkpt lat="50.23193" lon="4.37226">
        <ele>242.4</ele>
        <time>2022-04-21T12:39:53Z</time>
      </trkpt>
      <trkpt lat="50.23201" lon="4.3722">
        <ele>242.4</ele>
        <time>2022-04-21T12:39:55Z</time>
      </trkpt>
      <trkpt lat="50.23211" lon="4.37214">
        <ele>242.2</ele>
        <time>2022-04-21T12:39:57Z</time>
      </trkpt>
      <trkpt lat="50.23245" lon="4.37187">
        <ele>242.2</ele>
        <time>2022-04-21T12:40:04Z</time>
      </trkpt>
      <trkpt lat="50.23282" lon="4.37146">
        <ele>242</ele>
        <time>2022-04-21T12:40:12Z</time>
      </trkpt>
      <trkpt lat="50.23315" lon="4.37108">
        <ele>241.8</ele>
        <time>2022-04-21T12:40:19Z</time>
      </trkpt>
      <trkpt lat="50.23357" lon="4.37063">
        <ele>241.6</ele>
        <time>2022-04-21T12:40:28Z</time>
      </trkpt>
      <trkpt lat="50.23403" lon="4.37011">
        <ele>241.4</ele>
        <time>2022-04-21T12:40:38Z</time>
      </trkpt>
      <trkpt lat="50.23408" lon="4.37006">
        <ele>241.4</ele>
        <time>2022-04-21T12:40:39Z</time>
      </trkpt>
      <trkpt lat="50.23457" lon="4.36952">
        <ele>241.4</ele>
        <time>2022-04-21T12:40:49Z</time>
      </trkpt>
      <trkpt lat="50.23499" lon="4.36896">
        <ele>241.6</ele>
        <time>2022-04-21T12:40:58Z</time>
      </trkpt>
      <trkpt lat="50.2354" lon="4.36834">
        <ele>241.8</ele>
        <time>2022-04-21T12:41:07Z</time>
      </trkpt>
      <trkpt lat="50.2357" lon="4.36789">
        <ele>241.8</ele>
        <time>2022-04-21T12:41:14Z</time>
      </trkpt>
      <trkpt lat="50.23607" lon="4.36749">
        <ele>241.4</ele>
        <time>2022-04-21T12:41:22Z</time>
      </trkpt>
      <trkpt lat="50.2365" lon="4.36716">
        <ele>241</ele>
        <time>2022-04-21T12:41:30Z</time>
      </trkpt>
      <trkpt lat="50.23694" lon="4.3668">
        <ele>240.6</ele>
        <time>2022-04-21T12:41:38Z</time>
      </trkpt>
      <trkpt lat="50.23742" lon="4.3664">
        <ele>240</ele>
        <time>2022-04-21T12:41:46Z</time>
      </trkpt>
      <trkpt lat="50.23749" lon="4.36634">
        <ele>239.8</ele>
        <time>2022-04-21T12:41:47Z</time>
      </trkpt>
      <trkpt lat="50.23799" lon="4.36593">
        <ele>238.6</ele>
        <time>2022-04-21T12:41:54Z</time>
      </trkpt>
      <trkpt lat="50.23806" lon="4.36587">
        <ele>238.4</ele>
        <time>2022-04-21T12:41:55Z</time>
      </trkpt>
      <trkpt lat="50.23854" lon="4.36555">
        <ele>237.2</ele>
        <time>2022-04-21T12:42:01Z</time>
      </trkpt>
      <trkpt lat="50.23891" lon="4.3655">
        <ele>236.4</ele>
        <time>2022-04-21T12:42:05Z</time>
      </trkpt>
      <trkpt lat="50.23946" lon="4.3655">
        <ele>235</ele>
        <time>2022-04-21T12:42:11Z</time>
      </trkpt>
      <trkpt lat="50.23954" lon="4.36548">
        <ele>234.6</ele>
        <time>2022-04-21T12:42:12Z</time>
      </trkpt>
      <trkpt lat="50.23989" lon="4.36534">
        <ele>233.6</ele>
        <time>2022-04-21T12:42:16Z</time>
      </trkpt>
      <trkpt lat="50.24043" lon="4.36504">
        <ele>231.8</ele>
        <time>2022-04-21T12:42:22Z</time>
      </trkpt>
      <trkpt lat="50.24079" lon="4.36486">
        <ele>230.6</ele>
        <time>2022-04-21T12:42:26Z</time>
      </trkpt>
      <trkpt lat="50.24134" lon="4.36449">
        <ele>228.4</ele>
        <time>2022-04-21T12:42:32Z</time>
      </trkpt>
      <trkpt lat="50.24185" lon="4.36394">
        <ele>226.4</ele>
        <time>2022-04-21T12:42:38Z</time>
      </trkpt>
      <trkpt lat="50.24221" lon="4.36355">
        <ele>225.2</ele>
        <time>2022-04-21T12:42:43Z</time>
      </trkpt>
      <trkpt lat="50.24248" lon="4.36327">
        <ele>224.6</ele>
        <time>2022-04-21T12:42:48Z</time>
      </trkpt>
      <trkpt lat="50.24287" lon="4.36289">
        <ele>223.8</ele>
        <time>2022-04-21T12:42:56Z</time>
      </trkpt>
      <trkpt lat="50.24328" lon="4.36244">
        <ele>223.2</ele>
        <time>2022-04-21T12:43:05Z</time>
      </trkpt>
      <trkpt lat="50.24365" lon="4.36205">
        <ele>223</ele>
        <time>2022-04-21T12:43:13Z</time>
      </trkpt>
      <trkpt lat="50.24396" lon="4.36172">
        <ele>223.2</ele>
        <time>2022-04-21T12:43:20Z</time>
      </trkpt>
      <trkpt lat="50.24437" lon="4.36129">
        <ele>223.4</ele>
        <time>2022-04-21T12:43:30Z</time>
      </trkpt>
      <trkpt lat="50.24465" lon="4.36098">
        <ele>223.8</ele>
        <time>2022-04-21T12:43:37Z</time>
      </trkpt>
      <trkpt lat="50.24495" lon="4.36068">
        <ele>224.4</ele>
        <time>2022-04-21T12:43:45Z</time>
      </trkpt>
      <trkpt lat="50.24512" lon="4.36056">
        <ele>224.8</ele>
        <time>2022-04-21T12:43:51Z</time>
      </trkpt>
      <trkpt lat="50.24525" lon="4.3604">
        <ele>225.2</ele>
        <time>2022-04-21T12:43:56Z</time>
      </trkpt>
      <trkpt lat="50.24529" lon="4.36036">
        <ele>225.2</ele>
        <time>2022-04-21T12:43:57Z</time>
      </trkpt>
      <trkpt lat="50.24537" lon="4.3603">
        <ele>225.2</ele>
        <time>2022-04-21T12:43:59Z</time>
      </trkpt>
      <trkpt lat="50.24549" lon="4.36019">
        <ele>225.2</ele>
        <time>2022-04-21T12:44:02Z</time>
      </trkpt>
      <trkpt lat="50.24557" lon="4.36012">
        <ele>225.2</ele>
        <time>2022-04-21T12:44:04Z</time>
      </trkpt>
      <trkpt lat="50.2457" lon="4.36">
        <ele>225.2</ele>
        <time>2022-04-21T12:44:07Z</time>
      </trkpt>
      <trkpt lat="50.24598" lon="4.35973">
        <ele>225.2</ele>
        <time>2022-04-21T12:44:14Z</time>
      </trkpt>
      <trkpt lat="50.24637" lon="4.35937">
        <ele>224.4</ele>
        <time>2022-04-21T12:44:22Z</time>
      </trkpt>
      <trkpt lat="50.24668" lon="4.35907">
        <ele>223.8</ele>
        <time>2022-04-21T12:44:28Z</time>
      </trkpt>
      <trkpt lat="50.24716" lon="4.35863">
        <ele>222.4</ele>
        <time>2022-04-21T12:44:36Z</time>
      </trkpt>
      <trkpt lat="50.24763" lon="4.3582">
        <ele>221.2</ele>
        <time>2022-04-21T12:44:43Z</time>
      </trkpt>
      <trkpt lat="50.2477" lon="4.35813">
        <ele>221</ele>
        <time>2022-04-21T12:44:44Z</time>
      </trkpt>
      <trkpt lat="50.24818" lon="4.35764">
        <ele>219.6</ele>
        <time>2022-04-21T12:44:51Z</time>
      </trkpt>
      <trkpt lat="50.24858" lon="4.35699">
        <ele>218.2</ele>
        <time>2022-04-21T12:44:58Z</time>
      </trkpt>
      <trkpt lat="50.2488" lon="4.35665">
        <ele>217.4</ele>
        <time>2022-04-21T12:45:02Z</time>
      </trkpt>
      <trkpt lat="50.24893" lon="4.35653">
        <ele>217</ele>
        <time>2022-04-21T12:45:04Z</time>
      </trkpt>
      <trkpt lat="50.24922" lon="4.3564">
        <ele>216</ele>
        <time>2022-04-21T12:45:08Z</time>
      </trkpt>
      <trkpt lat="50.24948" lon="4.35624">
        <ele>215.2</ele>
        <time>2022-04-21T12:45:12Z</time>
      </trkpt>
      <trkpt lat="50.2496" lon="4.35617">
        <ele>214.8</ele>
        <time>2022-04-21T12:45:14Z</time>
      </trkpt>
      <trkpt lat="50.24971" lon="4.35607">
        <ele>214.2</ele>
        <time>2022-04-21T12:45:16Z</time>
      </trkpt>
      <trkpt lat="50.24999" lon="4.3557">
        <ele>213</ele>
        <time>2022-04-21T12:45:22Z</time>
      </trkpt>
      <trkpt lat="50.25003" lon="4.35565">
        <ele>212.6</ele>
        <time>2022-04-21T12:45:23Z</time>
      </trkpt>
      <trkpt lat="50.25012" lon="4.35562">
        <ele>212.2</ele>
        <time>2022-04-21T12:45:25Z</time>
      </trkpt>
      <trkpt lat="50.2502" lon="4.35567">
        <ele>212</ele>
        <time>2022-04-21T12:45:27Z</time>
      </trkpt>
      <trkpt lat="50.25029" lon="4.35575">
        <ele>211.6</ele>
        <time>2022-04-21T12:45:29Z</time>
      </trkpt>
      <trkpt lat="50.25058" lon="4.35595">
        <ele>210.8</ele>
        <time>2022-04-21T12:45:35Z</time>
      </trkpt>
      <trkpt lat="50.25084" lon="4.35624">
        <ele>209.8</ele>
        <time>2022-04-21T12:45:41Z</time>
      </trkpt>
      <trkpt lat="50.2511" lon="4.3566">
        <ele>208.8</ele>
        <time>2022-04-21T12:45:47Z</time>
      </trkpt>
      <trkpt lat="50.25145" lon="4.35708">
        <ele>207.6</ele>
        <time>2022-04-21T12:45:55Z</time>
      </trkpt>
      <trkpt lat="50.2517" lon="4.35742">
        <ele>206.6</ele>
        <time>2022-04-21T12:46:01Z</time>
      </trkpt>
      <trkpt lat="50.25204" lon="4.35789">
        <ele>205.2</ele>
        <time>2022-04-21T12:46:09Z</time>
      </trkpt>
      <trkpt lat="50.25235" lon="4.35832">
        <ele>204.2</ele>
        <time>2022-04-21T12:46:16Z</time>
      </trkpt>
      <trkpt lat="50.25269" lon="4.35871">
        <ele>203.2</ele>
        <time>2022-04-21T12:46:23Z</time>
      </trkpt>
      <trkpt lat="50.25305" lon="4.35885">
        <ele>202.2</ele>
        <time>2022-04-21T12:46:29Z</time>
      </trkpt>
      <trkpt lat="50.25353" lon="4.35903">
        <ele>200.8</ele>
        <time>2022-04-21T12:46:37Z</time>
      </trkpt>
      <trkpt lat="50.25359" lon="4.35907">
        <ele>200.8</ele>
        <time>2022-04-21T12:46:38Z</time>
      </trkpt>
      <trkpt lat="50.2539" lon="4.35941">
        <ele>199.8</ele>
        <time>2022-04-21T12:46:44Z</time>
      </trkpt>
      <trkpt lat="50.25433" lon="4.35988">
        <ele>198.6</ele>
        <time>2022-04-21T12:46:52Z</time>
      </trkpt>
      <trkpt lat="50.25478" lon="4.36038">
        <ele>197.4</ele>
        <time>2022-04-21T12:47:00Z</time>
      </trkpt>
      <trkpt lat="50.2551" lon="4.36074">
        <ele>196.4</ele>
        <time>2022-04-21T12:47:06Z</time>
      </trkpt>
      <trkpt lat="50.25553" lon="4.36126">
        <ele>195.2</ele>
        <time>2022-04-21T12:47:15Z</time>
      </trkpt>
      <trkpt lat="50.25591" lon="4.36169">
        <ele>194.2</ele>
        <time>2022-04-21T12:47:23Z</time>
      </trkpt>
      <trkpt lat="50.25632" lon="4.36215">
        <ele>193.2</ele>
        <time>2022-04-21T12:47:31Z</time>
      </trkpt>
      <trkpt lat="50.25669" lon="4.36256">
        <ele>192.6</ele>
        <time>2022-04-21T12:47:39Z</time>
      </trkpt>
      <trkpt lat="50.25706" lon="4.36288">
        <ele>192.2</ele>
        <time>2022-04-21T12:47:47Z</time>
      </trkpt>
      <trkpt lat="50.25737" lon="4.36308">
        <ele>191.8</ele>
        <time>2022-04-21T12:47:53Z</time>
      </trkpt>
      <trkpt lat="50.2578" lon="4.36317">
        <ele>190.8</ele>
        <time>2022-04-21T12:48:00Z</time>
      </trkpt>
      <trkpt lat="50.25829" lon="4.36327">
        <ele>189.8</ele>
        <time>2022-04-21T12:48:08Z</time>
      </trkpt>
      <trkpt lat="50.25853" lon="4.36335">
        <ele>189.4</ele>
        <time>2022-04-21T12:48:12Z</time>
      </trkpt>
      <trkpt lat="50.25864" lon="4.36342">
        <ele>189.2</ele>
        <time>2022-04-21T12:48:14Z</time>
      </trkpt>
      <trkpt lat="50.25896" lon="4.36379">
        <ele>189</ele>
        <time>2022-04-21T12:48:21Z</time>
      </trkpt>
      <trkpt lat="50.25937" lon="4.36424">
        <ele>188.4</ele>
        <time>2022-04-21T12:48:29Z</time>
      </trkpt>
      <trkpt lat="50.2597" lon="4.36467">
        <ele>187.8</ele>
        <time>2022-04-21T12:48:36Z</time>
      </trkpt>
      <trkpt lat="50.25975" lon="4.36473">
        <ele>187.8</ele>
        <time>2022-04-21T12:48:37Z</time>
      </trkpt>
      <trkpt lat="50.26019" lon="4.36525">
        <ele>187.2</ele>
        <time>2022-04-21T12:48:46Z</time>
      </trkpt>
      <trkpt lat="50.26023" lon="4.3653">
        <ele>187.2</ele>
        <time>2022-04-21T12:48:47Z</time>
      </trkpt>
      <trkpt lat="50.2606" lon="4.36572">
        <ele>186.8</ele>
        <time>2022-04-21T12:48:55Z</time>
      </trkpt>
      <trkpt lat="50.26065" lon="4.36577">
        <ele>186.8</ele>
        <time>2022-04-21T12:48:56Z</time>
      </trkpt>
      <trkpt lat="50.26077" lon="4.36578">
        <ele>186.6</ele>
        <time>2022-04-21T12:48:58Z</time>
      </trkpt>
      <trkpt lat="50.26088" lon="4.36571">
        <ele>186.4</ele>
        <time>2022-04-21T12:49:00Z</time>
      </trkpt>
      <trkpt lat="50.26093" lon="4.36566">
        <ele>186.4</ele>
        <time>2022-04-21T12:49:01Z</time>
      </trkpt>
      <trkpt lat="50.26135" lon="4.36517">
        <ele>185.8</ele>
        <time>2022-04-21T12:49:09Z</time>
      </trkpt>
      <trkpt lat="50.26184" lon="4.36462">
        <ele>185</ele>
        <time>2022-04-21T12:49:18Z</time>
      </trkpt>
      <trkpt lat="50.26211" lon="4.36445">
        <ele>184.4</ele>
        <time>2022-04-21T12:49:22Z</time>
      </trkpt>
      <trkpt lat="50.26247" lon="4.3644">
        <ele>183.8</ele>
        <time>2022-04-21T12:49:27Z</time>
      </trkpt>
      <trkpt lat="50.26282" lon="4.36436">
        <ele>183</ele>
        <time>2022-04-21T12:49:32Z</time>
      </trkpt>
      <trkpt lat="50.26289" lon="4.36434">
        <ele>182.8</ele>
        <time>2022-04-21T12:49:33Z</time>
      </trkpt>
      <trkpt lat="50.26295" lon="4.3643">
        <ele>182.6</ele>
        <time>2022-04-21T12:49:34Z</time>
      </trkpt>
      <trkpt lat="50.26305" lon="4.36417">
        <ele>182.4</ele>
        <time>2022-04-21T12:49:36Z</time>
      </trkpt>
      <trkpt lat="50.26327" lon="4.36384">
        <ele>181.6</ele>
        <time>2022-04-21T12:49:41Z</time>
      </trkpt>
      <trkpt lat="50.26331" lon="4.36378">
        <ele>181.6</ele>
        <time>2022-04-21T12:49:42Z</time>
      </trkpt>
      <trkpt lat="50.26351" lon="4.36345">
        <ele>181.2</ele>
        <time>2022-04-21T12:49:47Z</time>
      </trkpt>
      <trkpt lat="50.26354" lon="4.36337">
        <ele>181.2</ele>
        <time>2022-04-21T12:49:48Z</time>
      </trkpt>
      <trkpt lat="50.26355" lon="4.36329">
        <ele>181</ele>
        <time>2022-04-21T12:49:49Z</time>
      </trkpt>
      <trkpt lat="50.26354" lon="4.36311">
        <ele>180.8</ele>
        <time>2022-04-21T12:49:51Z</time>
      </trkpt>
      <trkpt lat="50.26353" lon="4.36302">
        <ele>180.8</ele>
        <time>2022-04-21T12:49:52Z</time>
      </trkpt>
      <trkpt lat="50.26348" lon="4.36287">
        <ele>180.6</ele>
        <time>2022-04-21T12:49:54Z</time>
      </trkpt>
      <trkpt lat="50.26345" lon="4.36279">
        <ele>180.6</ele>
        <time>2022-04-21T12:49:55Z</time>
      </trkpt>
      <trkpt lat="50.26337" lon="4.36266">
        <ele>180.4</ele>
        <time>2022-04-21T12:49:57Z</time>
      </trkpt>
      <trkpt lat="50.26321" lon="4.36239">
        <ele>180.4</ele>
        <time>2022-04-21T12:50:01Z</time>
      </trkpt>
      <trkpt lat="50.26288" lon="4.36187">
        <ele>180</ele>
        <time>2022-04-21T12:50:09Z</time>
      </trkpt>
      <trkpt lat="50.2625" lon="4.36129">
        <ele>180.2</ele>
        <time>2022-04-21T12:50:18Z</time>
      </trkpt>
      <trkpt lat="50.26217" lon="4.36074">
        <ele>180.2</ele>
        <time>2022-04-21T12:50:26Z</time>
      </trkpt>
      <trkpt lat="50.26212" lon="4.36058">
        <ele>180.2</ele>
        <time>2022-04-21T12:50:28Z</time>
      </trkpt>
      <trkpt lat="50.26212" lon="4.36049">
        <ele>180</ele>
        <time>2022-04-21T12:50:29Z</time>
      </trkpt>
      <trkpt lat="50.26213" lon="4.3604">
        <ele>180</ele>
        <time>2022-04-21T12:50:30Z</time>
      </trkpt>
      <trkpt lat="50.26219" lon="4.36026">
        <ele>180</ele>
        <time>2022-04-21T12:50:32Z</time>
      </trkpt>
      <trkpt lat="50.26242" lon="4.35981">
        <ele>180.2</ele>
        <time>2022-04-21T12:50:39Z</time>
      </trkpt>
      <trkpt lat="50.26266" lon="4.35923">
        <ele>179.8</ele>
        <time>2022-04-21T12:50:47Z</time>
      </trkpt>
      <trkpt lat="50.26283" lon="4.35857">
        <ele>180.2</ele>
        <time>2022-04-21T12:50:55Z</time>
      </trkpt>
      <trkpt lat="50.26293" lon="4.35786">
        <ele>180.4</ele>
        <time>2022-04-21T12:51:03Z</time>
      </trkpt>
      <trkpt lat="50.26304" lon="4.35694">
        <ele>180.8</ele>
        <time>2022-04-21T12:51:13Z</time>
      </trkpt>
      <trkpt lat="50.26305" lon="4.35686">
        <ele>180.8</ele>
        <time>2022-04-21T12:51:14Z</time>
      </trkpt>
      <trkpt lat="50.26315" lon="4.35594">
        <ele>181.2</ele>
        <time>2022-04-21T12:51:24Z</time>
      </trkpt>
      <trkpt lat="50.26325" lon="4.3551">
        <ele>181.6</ele>
        <time>2022-04-21T12:51:33Z</time>
      </trkpt>
      <trkpt lat="50.26328" lon="4.35483">
        <ele>181.6</ele>
        <time>2022-04-21T12:51:36Z</time>
      </trkpt>
      <trkpt lat="50.26337" lon="4.35403">
        <ele>182</ele>
        <time>2022-04-21T12:51:45Z</time>
      </trkpt>
      <trkpt lat="50.26347" lon="4.35321">
        <ele>182.4</ele>
        <time>2022-04-21T12:51:54Z</time>
      </trkpt>
      <trkpt lat="50.26356" lon="4.35242">
        <ele>183</ele>
        <time>2022-04-21T12:52:03Z</time>
      </trkpt>
      <trkpt lat="50.26359" lon="4.35159">
        <ele>183.2</ele>
        <time>2022-04-21T12:52:12Z</time>
      </trkpt>
      <trkpt lat="50.26357" lon="4.3507">
        <ele>183.8</ele>
        <time>2022-04-21T12:52:22Z</time>
      </trkpt>
      <trkpt lat="50.26357" lon="4.35061">
        <ele>183.8</ele>
        <time>2022-04-21T12:52:23Z</time>
      </trkpt>
      <trkpt lat="50.26354" lon="4.3497">
        <ele>184.4</ele>
        <time>2022-04-21T12:52:33Z</time>
      </trkpt>
      <trkpt lat="50.26354" lon="4.34961">
        <ele>184.4</ele>
        <time>2022-04-21T12:52:34Z</time>
      </trkpt>
      <trkpt lat="50.26351" lon="4.34871">
        <ele>184.6</ele>
        <time>2022-04-21T12:52:44Z</time>
      </trkpt>
      <trkpt lat="50.26351" lon="4.34862">
        <ele>184.8</ele>
        <time>2022-04-21T12:52:45Z</time>
      </trkpt>
      <trkpt lat="50.26348" lon="4.34771">
        <ele>185</ele>
        <time>2022-04-21T12:52:55Z</time>
      </trkpt>
      <trkpt lat="50.26345" lon="4.34687">
        <ele>185.6</ele>
        <time>2022-04-21T12:53:04Z</time>
      </trkpt>
      <trkpt lat="50.26343" lon="4.34603">
        <ele>186</ele>
        <time>2022-04-21T12:53:13Z</time>
      </trkpt>
      <trkpt lat="50.26342" lon="4.34584">
        <ele>186</ele>
        <time>2022-04-21T12:53:15Z</time>
      </trkpt>
      <trkpt lat="50.2634" lon="4.34499">
        <ele>186.4</ele>
        <time>2022-04-21T12:53:24Z</time>
      </trkpt>
      <trkpt lat="50.2634" lon="4.3449">
        <ele>186.4</ele>
        <time>2022-04-21T12:53:25Z</time>
      </trkpt>
      <trkpt lat="50.26337" lon="4.34462">
        <ele>186.6</ele>
        <time>2022-04-21T12:53:28Z</time>
      </trkpt>
      <trkpt lat="50.26332" lon="4.34452">
        <ele>186.8</ele>
        <time>2022-04-21T12:53:30Z</time>
      </trkpt>
      <trkpt lat="50.26324" lon="4.34461">
        <ele>186.8</ele>
        <time>2022-04-21T12:53:33Z</time>
      </trkpt>
      <trkpt lat="50.2631" lon="4.34482">
        <ele>187.2</ele>
        <time>2022-04-21T12:53:39Z</time>
      </trkpt>
      <trkpt lat="50.26292" lon="4.34505">
        <ele>187.4</ele>
        <time>2022-04-21T12:53:46Z</time>
      </trkpt>
      <trkpt lat="50.26274" lon="4.34526">
        <ele>187.4</ele>
        <time>2022-04-21T12:53:52Z</time>
      </trkpt>
      <trkpt lat="50.26252" lon="4.34554">
        <ele>187.6</ele>
        <time>2022-04-21T12:53:59Z</time>
      </trkpt>
      <trkpt lat="50.26229" lon="4.34583">
        <ele>188</ele>
        <time>2022-04-21T12:54:06Z</time>
      </trkpt>
      <trkpt lat="50.26206" lon="4.34614">
        <ele>188.2</ele>
        <time>2022-04-21T12:54:13Z</time>
      </trkpt>
      <trkpt lat="50.26185" lon="4.34642">
        <ele>188.6</ele>
        <time>2022-04-21T12:54:20Z</time>
      </trkpt>
      <trkpt lat="50.26155" lon="4.34678">
        <ele>188.8</ele>
        <time>2022-04-21T12:54:28Z</time>
      </trkpt>
      <trkpt lat="50.2612" lon="4.3472">
        <ele>189</ele>
        <time>2022-04-21T12:54:37Z</time>
      </trkpt>
      <trkpt lat="50.26097" lon="4.34741">
        <ele>189.2</ele>
        <time>2022-04-21T12:54:43Z</time>
      </trkpt>
      <trkpt lat="50.26063" lon="4.3477">
        <ele>189.4</ele>
        <time>2022-04-21T12:54:51Z</time>
      </trkpt>
      <trkpt lat="50.26036" lon="4.34793">
        <ele>189.6</ele>
        <time>2022-04-21T12:54:57Z</time>
      </trkpt>
      <trkpt lat="50.26004" lon="4.3482">
        <ele>189.6</ele>
        <time>2022-04-21T12:55:04Z</time>
      </trkpt>
      <trkpt lat="50.25963" lon="4.34856">
        <ele>189.8</ele>
        <time>2022-04-21T12:55:12Z</time>
      </trkpt>
      <trkpt lat="50.25924" lon="4.34889">
        <ele>189.8</ele>
        <time>2022-04-21T12:55:20Z</time>
      </trkpt>
      <trkpt lat="50.25876" lon="4.34922">
        <ele>189.8</ele>
        <time>2022-04-21T12:55:29Z</time>
      </trkpt>
      <trkpt lat="50.2583" lon="4.34951">
        <ele>189.8</ele>
        <time>2022-04-21T12:55:38Z</time>
      </trkpt>
      <trkpt lat="50.25785" lon="4.34977">
        <ele>189.8</ele>
        <time>2022-04-21T12:55:46Z</time>
      </trkpt>
      <trkpt lat="50.25747" lon="4.34994">
        <ele>190</ele>
        <time>2022-04-21T12:55:53Z</time>
      </trkpt>
      <trkpt lat="50.25713" lon="4.34998">
        <ele>189.8</ele>
        <time>2022-04-21T12:55:59Z</time>
      </trkpt>
      <trkpt lat="50.25666" lon="4.34995">
        <ele>189.8</ele>
        <time>2022-04-21T12:56:07Z</time>
      </trkpt>
      <trkpt lat="50.2562" lon="4.34994">
        <ele>190</ele>
        <time>2022-04-21T12:56:15Z</time>
      </trkpt>
      <trkpt lat="50.25598" lon="4.35001">
        <ele>190</ele>
        <time>2022-04-21T12:56:19Z</time>
      </trkpt>
      <trkpt lat="50.25587" lon="4.35006">
        <ele>190</ele>
        <time>2022-04-21T12:56:21Z</time>
      </trkpt>
      <trkpt lat="50.25542" lon="4.35036">
        <ele>190</ele>
        <time>2022-04-21T12:56:30Z</time>
      </trkpt>
      <trkpt lat="50.25489" lon="4.3507">
        <ele>190.2</ele>
        <time>2022-04-21T12:56:40Z</time>
      </trkpt>
      <trkpt lat="50.25478" lon="4.35077">
        <ele>190.2</ele>
        <time>2022-04-21T12:56:42Z</time>
      </trkpt>
      <trkpt lat="50.25437" lon="4.35092">
        <ele>190.2</ele>
        <time>2022-04-21T12:56:49Z</time>
      </trkpt>
      <trkpt lat="50.25378" lon="4.35107">
        <ele>190.4</ele>
        <time>2022-04-21T12:56:59Z</time>
      </trkpt>
      <trkpt lat="50.25366" lon="4.3511">
        <ele>190.4</ele>
        <time>2022-04-21T12:57:01Z</time>
      </trkpt>
      <trkpt lat="50.2531" lon="4.35124">
        <ele>191</ele>
        <time>2022-04-21T12:57:11Z</time>
      </trkpt>
      <trkpt lat="50.25255" lon="4.35139">
        <ele>191.8</ele>
        <time>2022-04-21T12:57:21Z</time>
      </trkpt>
      <trkpt lat="50.25209" lon="4.3516">
        <ele>192.8</ele>
        <time>2022-04-21T12:57:30Z</time>
      </trkpt>
      <trkpt lat="50.25172" lon="4.35183">
        <ele>193.6</ele>
        <time>2022-04-21T12:57:38Z</time>
      </trkpt>
      <trkpt lat="50.25132" lon="4.35209">
        <ele>194.2</ele>
        <time>2022-04-21T12:57:47Z</time>
      </trkpt>
      <trkpt lat="50.25095" lon="4.35232">
        <ele>194.4</ele>
        <time>2022-04-21T12:57:55Z</time>
      </trkpt>
      <trkpt lat="50.25085" lon="4.35238">
        <ele>194.6</ele>
        <time>2022-04-21T12:57:57Z</time>
      </trkpt>
      <trkpt lat="50.25075" lon="4.35242">
        <ele>194.6</ele>
        <time>2022-04-21T12:57:59Z</time>
      </trkpt>
      <trkpt lat="50.2507" lon="4.35243">
        <ele>194.6</ele>
        <time>2022-04-21T12:58:00Z</time>
      </trkpt>
      <trkpt lat="50.25064" lon="4.35242">
        <ele>194.6</ele>
        <time>2022-04-21T12:58:01Z</time>
      </trkpt>
      <trkpt lat="50.25054" lon="4.35237">
        <ele>194.6</ele>
        <time>2022-04-21T12:58:03Z</time>
      </trkpt>
      <trkpt lat="50.2505" lon="4.35231">
        <ele>194.6</ele>
        <time>2022-04-21T12:58:04Z</time>
      </trkpt>
      <trkpt lat="50.25036" lon="4.35207">
        <ele>194.8</ele>
        <time>2022-04-21T12:58:08Z</time>
      </trkpt>
      <trkpt lat="50.25034" lon="4.35201">
        <ele>194.8</ele>
        <time>2022-04-21T12:58:09Z</time>
      </trkpt>
      <trkpt lat="50.25031" lon="4.35196">
        <ele>194.8</ele>
        <time>2022-04-21T12:58:10Z</time>
      </trkpt>
      <trkpt lat="50.25023" lon="4.35177">
        <ele>195</ele>
        <time>2022-04-21T12:58:13Z</time>
      </trkpt>
      <trkpt lat="50.25009" lon="4.35139">
        <ele>195.4</ele>
        <time>2022-04-21T12:58:19Z</time>
      </trkpt>
      <trkpt lat="50.25006" lon="4.35133">
        <ele>195.4</ele>
        <time>2022-04-21T12:58:20Z</time>
      </trkpt>
      <trkpt lat="50.2499" lon="4.35108">
        <ele>196</ele>
        <time>2022-04-21T12:58:25Z</time>
      </trkpt>
      <trkpt lat="50.24967" lon="4.3509">
        <ele>196.8</ele>
        <time>2022-04-21T12:58:31Z</time>
      </trkpt>
      <trkpt lat="50.24942" lon="4.35079">
        <ele>197.6</ele>
        <time>2022-04-21T12:58:38Z</time>
      </trkpt>
      <trkpt lat="50.24927" lon="4.35074">
        <ele>198</ele>
        <time>2022-04-21T12:58:43Z</time>
      </trkpt>
      <trkpt lat="50.24925" lon="4.35073">
        <ele>198.2</ele>
        <time>2022-04-21T12:58:44Z</time>
      </trkpt>
      <trkpt lat="50.24923" lon="4.35072">
        <ele>198.4</ele>
        <time>2022-04-21T12:58:47Z</time>
      </trkpt>
      <trkpt lat="50.24923" lon="4.35072">
        <ele>199.2</ele>
        <time>2022-04-21T12:58:57Z</time>
      </trkpt>
      <trkpt lat="50.24923" lon="4.35072">
        <ele>200.4</ele>
        <time>2022-04-21T12:59:14Z</time>
      </trkpt>
      <trkpt lat="50.24923" lon="4.35072">
        <ele>201.2</ele>
        <time>2022-04-21T12:59:26Z</time>
      </trkpt>
      <trkpt lat="50.24923" lon="4.35072">
        <ele>202</ele>
        <time>2022-04-21T12:59:42Z</time>
      </trkpt>
      <trkpt lat="50.24921" lon="4.35072">
        <ele>202.8</ele>
        <time>2022-04-21T12:59:56Z</time>
      </trkpt>
      <trkpt lat="50.24909" lon="4.35067">
        <ele>203.2</ele>
        <time>2022-04-21T13:00:00Z</time>
      </trkpt>
      <trkpt lat="50.24891" lon="4.35055">
        <ele>203.4</ele>
        <time>2022-04-21T13:00:05Z</time>
      </trkpt>
      <trkpt lat="50.24872" lon="4.3504">
        <ele>203.6</ele>
        <time>2022-04-21T13:00:10Z</time>
      </trkpt>
      <trkpt lat="50.24852" lon="4.35022">
        <ele>204</ele>
        <time>2022-04-21T13:00:16Z</time>
      </trkpt>
      <trkpt lat="50.24839" lon="4.35002">
        <ele>204.2</ele>
        <time>2022-04-21T13:00:21Z</time>
      </trkpt>
      <trkpt lat="50.24826" lon="4.34999">
        <ele>204.6</ele>
        <time>2022-04-21T13:00:26Z</time>
      </trkpt>
      <trkpt lat="50.24809" lon="4.34992">
        <ele>204.8</ele>
        <time>2022-04-21T13:00:31Z</time>
      </trkpt>
      <trkpt lat="50.24785" lon="4.34978">
        <ele>205</ele>
        <time>2022-04-21T13:00:36Z</time>
      </trkpt>
      <trkpt lat="50.24751" lon="4.34959">
        <ele>204.8</ele>
        <time>2022-04-21T13:00:42Z</time>
      </trkpt>
      <trkpt lat="50.24719" lon="4.34939">
        <ele>204.8</ele>
        <time>2022-04-21T13:00:48Z</time>
      </trkpt>
      <trkpt lat="50.24695" lon="4.34925">
        <ele>205</ele>
        <time>2022-04-21T13:00:53Z</time>
      </trkpt>
      <trkpt lat="50.24659" lon="4.34902">
        <ele>205.4</ele>
        <time>2022-04-21T13:01:01Z</time>
      </trkpt>
      <trkpt lat="50.24634" lon="4.34881">
        <ele>205.6</ele>
        <time>2022-04-21T13:01:07Z</time>
      </trkpt>
      <trkpt lat="50.24611" lon="4.34866">
        <ele>206</ele>
        <time>2022-04-21T13:01:13Z</time>
      </trkpt>
      <trkpt lat="50.24598" lon="4.34853">
        <ele>206.2</ele>
        <time>2022-04-21T13:01:18Z</time>
      </trkpt>
      <trkpt lat="50.2458" lon="4.34837">
        <ele>206.6</ele>
        <time>2022-04-21T13:01:24Z</time>
      </trkpt>
      <trkpt lat="50.24565" lon="4.34821">
        <ele>207</ele>
        <time>2022-04-21T13:01:30Z</time>
      </trkpt>
      <trkpt lat="50.24546" lon="4.34807">
        <ele>207.6</ele>
        <time>2022-04-21T13:01:35Z</time>
      </trkpt>
      <trkpt lat="50.24517" lon="4.34795">
        <ele>208.2</ele>
        <time>2022-04-21T13:01:42Z</time>
      </trkpt>
      <trkpt lat="50.24492" lon="4.34791">
        <ele>208.8</ele>
        <time>2022-04-21T13:01:48Z</time>
      </trkpt>
      <trkpt lat="50.24464" lon="4.34788">
        <ele>209.8</ele>
        <time>2022-04-21T13:01:55Z</time>
      </trkpt>
      <trkpt lat="50.2444" lon="4.34784">
        <ele>210.4</ele>
        <time>2022-04-21T13:02:01Z</time>
      </trkpt>
      <trkpt lat="50.24413" lon="4.34778">
        <ele>211.6</ele>
        <time>2022-04-21T13:02:08Z</time>
      </trkpt>
      <trkpt lat="50.24398" lon="4.34772">
        <ele>212.2</ele>
        <time>2022-04-21T13:02:12Z</time>
      </trkpt>
      <trkpt lat="50.2439" lon="4.34767">
        <ele>212.4</ele>
        <time>2022-04-21T13:02:14Z</time>
      </trkpt>
      <trkpt lat="50.24377" lon="4.34759">
        <ele>212.8</ele>
        <time>2022-04-21T13:02:17Z</time>
      </trkpt>
      <trkpt lat="50.24366" lon="4.34746">
        <ele>213.2</ele>
        <time>2022-04-21T13:02:20Z</time>
      </trkpt>
      <trkpt lat="50.24346" lon="4.34713">
        <ele>214</ele>
        <time>2022-04-21T13:02:26Z</time>
      </trkpt>
      <trkpt lat="50.2432" lon="4.3466">
        <ele>215.2</ele>
        <time>2022-04-21T13:02:35Z</time>
      </trkpt>
      <trkpt lat="50.24313" lon="4.34644">
        <ele>215.6</ele>
        <time>2022-04-21T13:02:38Z</time>
      </trkpt>
      <trkpt lat="50.24306" lon="4.34629">
        <ele>216</ele>
        <time>2022-04-21T13:02:41Z</time>
      </trkpt>
      <trkpt lat="50.24299" lon="4.34614">
        <ele>216.4</ele>
        <time>2022-04-21T13:02:44Z</time>
      </trkpt>
      <trkpt lat="50.24291" lon="4.34597">
        <ele>216.8</ele>
        <time>2022-04-21T13:02:47Z</time>
      </trkpt>
      <trkpt lat="50.24267" lon="4.34546">
        <ele>218</ele>
        <time>2022-04-21T13:02:56Z</time>
      </trkpt>
      <trkpt lat="50.24259" lon="4.34531">
        <ele>218.6</ele>
        <time>2022-04-21T13:02:59Z</time>
      </trkpt>
      <trkpt lat="50.2425" lon="4.34517">
        <ele>219</ele>
        <time>2022-04-21T13:03:02Z</time>
      </trkpt>
      <trkpt lat="50.24246" lon="4.34512">
        <ele>219</ele>
        <time>2022-04-21T13:03:03Z</time>
      </trkpt>
      <trkpt lat="50.24236" lon="4.34501">
        <ele>219.4</ele>
        <time>2022-04-21T13:03:06Z</time>
      </trkpt>
      <trkpt lat="50.24222" lon="4.34487">
        <ele>220</ele>
        <time>2022-04-21T13:03:10Z</time>
      </trkpt>
      <trkpt lat="50.24213" lon="4.3448">
        <ele>220.2</ele>
        <time>2022-04-21T13:03:12Z</time>
      </trkpt>
      <trkpt lat="50.24178" lon="4.34459">
        <ele>221.2</ele>
        <time>2022-04-21T13:03:20Z</time>
      </trkpt>
      <trkpt lat="50.24143" lon="4.3444">
        <ele>222.2</ele>
        <time>2022-04-21T13:03:28Z</time>
      </trkpt>
      <trkpt lat="50.24095" lon="4.34414">
        <ele>223.4</ele>
        <time>2022-04-21T13:03:38Z</time>
      </trkpt>
      <trkpt lat="50.24041" lon="4.34385">
        <ele>224.8</ele>
        <time>2022-04-21T13:03:49Z</time>
      </trkpt>
      <trkpt lat="50.24001" lon="4.34362">
        <ele>225.6</ele>
        <time>2022-04-21T13:03:57Z</time>
      </trkpt>
      <trkpt lat="50.23965" lon="4.34342">
        <ele>226.6</ele>
        <time>2022-04-21T13:04:04Z</time>
      </trkpt>
      <trkpt lat="50.23912" lon="4.34313">
        <ele>227.6</ele>
        <time>2022-04-21T13:04:14Z</time>
      </trkpt>
      <trkpt lat="50.23907" lon="4.3431">
        <ele>227.8</ele>
        <time>2022-04-21T13:04:15Z</time>
      </trkpt>
      <trkpt lat="50.23902" lon="4.34307">
        <ele>227.8</ele>
        <time>2022-04-21T13:04:16Z</time>
      </trkpt>
      <trkpt lat="50.23855" lon="4.34282">
        <ele>229</ele>
        <time>2022-04-21T13:04:25Z</time>
      </trkpt>
      <trkpt lat="50.23823" lon="4.34264">
        <ele>229.8</ele>
        <time>2022-04-21T13:04:32Z</time>
      </trkpt>
      <trkpt lat="50.23813" lon="4.34256">
        <ele>230</ele>
        <time>2022-04-21T13:04:35Z</time>
      </trkpt>
      <trkpt lat="50.23812" lon="4.34251">
        <ele>230.2</ele>
        <time>2022-04-21T13:04:36Z</time>
      </trkpt>
      <trkpt lat="50.23813" lon="4.34244">
        <ele>230.2</ele>
        <time>2022-04-21T13:04:37Z</time>
      </trkpt>
      <trkpt lat="50.23816" lon="4.34231">
        <ele>230.4</ele>
        <time>2022-04-21T13:04:39Z</time>
      </trkpt>
      <trkpt lat="50.23817" lon="4.34215">
        <ele>230.6</ele>
        <time>2022-04-21T13:04:41Z</time>
      </trkpt>
      <trkpt lat="50.23815" lon="4.342">
        <ele>230.8</ele>
        <time>2022-04-21T13:04:43Z</time>
      </trkpt>
      <trkpt lat="50.23804" lon="4.34153">
        <ele>231.2</ele>
        <time>2022-04-21T13:04:49Z</time>
      </trkpt>
      <trkpt lat="50.23796" lon="4.3412">
        <ele>231.6</ele>
        <time>2022-04-21T13:04:53Z</time>
      </trkpt>
      <trkpt lat="50.23795" lon="4.34102">
        <ele>231.6</ele>
        <time>2022-04-21T13:04:55Z</time>
      </trkpt>
      <trkpt lat="50.23796" lon="4.34093">
        <ele>231.8</ele>
        <time>2022-04-21T13:04:56Z</time>
      </trkpt>
      <trkpt lat="50.23801" lon="4.34058">
        <ele>232</ele>
        <time>2022-04-21T13:05:00Z</time>
      </trkpt>
      <trkpt lat="50.2381" lon="4.33986">
        <ele>232.6</ele>
        <time>2022-04-21T13:05:09Z</time>
      </trkpt>
      <trkpt lat="50.23816" lon="4.3396">
        <ele>232.8</ele>
        <time>2022-04-21T13:05:12Z</time>
      </trkpt>
      <trkpt lat="50.23823" lon="4.33942">
        <ele>232.8</ele>
        <time>2022-04-21T13:05:14Z</time>
      </trkpt>
      <trkpt lat="50.23844" lon="4.33899">
        <ele>232.8</ele>
        <time>2022-04-21T13:05:19Z</time>
      </trkpt>
      <trkpt lat="50.23863" lon="4.33846">
        <ele>232.8</ele>
        <time>2022-04-21T13:05:25Z</time>
      </trkpt>
      <trkpt lat="50.23872" lon="4.33788">
        <ele>233</ele>
        <time>2022-04-21T13:05:31Z</time>
      </trkpt>
      <trkpt lat="50.23872" lon="4.33769">
        <ele>233</ele>
        <time>2022-04-21T13:05:33Z</time>
      </trkpt>
      <trkpt lat="50.23868" lon="4.3374">
        <ele>233</ele>
        <time>2022-04-21T13:05:36Z</time>
      </trkpt>
      <trkpt lat="50.2385" lon="4.33656">
        <ele>233</ele>
        <time>2022-04-21T13:05:45Z</time>
      </trkpt>
      <trkpt lat="50.23831" lon="4.33577">
        <ele>233.2</ele>
        <time>2022-04-21T13:05:54Z</time>
      </trkpt>
      <trkpt lat="50.23812" lon="4.33515">
        <ele>233.2</ele>
        <time>2022-04-21T13:06:01Z</time>
      </trkpt>
      <trkpt lat="50.23804" lon="4.33479">
        <ele>233.2</ele>
        <time>2022-04-21T13:06:05Z</time>
      </trkpt>
      <trkpt lat="50.23803" lon="4.3346">
        <ele>233.2</ele>
        <time>2022-04-21T13:06:07Z</time>
      </trkpt>
      <trkpt lat="50.23802" lon="4.33396">
        <ele>233.4</ele>
        <time>2022-04-21T13:06:14Z</time>
      </trkpt>
      <trkpt lat="50.23802" lon="4.33331">
        <ele>233.6</ele>
        <time>2022-04-21T13:06:22Z</time>
      </trkpt>
      <trkpt lat="50.23803" lon="4.33289">
        <ele>233.8</ele>
        <time>2022-04-21T13:06:28Z</time>
      </trkpt>
      <trkpt lat="50.23803" lon="4.33281">
        <ele>233.8</ele>
        <time>2022-04-21T13:06:29Z</time>
      </trkpt>
      <trkpt lat="50.23804" lon="4.33263">
        <ele>233.8</ele>
        <time>2022-04-21T13:06:32Z</time>
      </trkpt>
      <trkpt lat="50.23808" lon="4.3322">
        <ele>234</ele>
        <time>2022-04-21T13:06:39Z</time>
      </trkpt>
      <trkpt lat="50.23812" lon="4.33179">
        <ele>233.8</ele>
        <time>2022-04-21T13:06:45Z</time>
      </trkpt>
      <trkpt lat="50.23813" lon="4.33171">
        <ele>233.8</ele>
        <time>2022-04-21T13:06:46Z</time>
      </trkpt>
      <trkpt lat="50.23813" lon="4.33163">
        <ele>233.8</ele>
        <time>2022-04-21T13:06:47Z</time>
      </trkpt>
      <trkpt lat="50.23808" lon="4.3315">
        <ele>233.4</ele>
        <time>2022-04-21T13:06:49Z</time>
      </trkpt>
      <trkpt lat="50.23802" lon="4.33142">
        <ele>233.6</ele>
        <time>2022-04-21T13:06:51Z</time>
      </trkpt>
      <trkpt lat="50.23799" lon="4.33138">
        <ele>233.6</ele>
        <time>2022-04-21T13:06:52Z</time>
      </trkpt>
      <trkpt lat="50.23796" lon="4.33133">
        <ele>233.4</ele>
        <time>2022-04-21T13:06:53Z</time>
      </trkpt>
      <trkpt lat="50.23787" lon="4.33119">
        <ele>233.4</ele>
        <time>2022-04-21T13:06:56Z</time>
      </trkpt>
      <trkpt lat="50.2378" lon="4.33098">
        <ele>233.4</ele>
        <time>2022-04-21T13:07:00Z</time>
      </trkpt>
      <trkpt lat="50.23779" lon="4.33092">
        <ele>233.4</ele>
        <time>2022-04-21T13:07:01Z</time>
      </trkpt>
      <trkpt lat="50.23777" lon="4.33081">
        <ele>233.4</ele>
        <time>2022-04-21T13:07:03Z</time>
      </trkpt>
      <trkpt lat="50.23779" lon="4.33063">
        <ele>233.4</ele>
        <time>2022-04-21T13:07:06Z</time>
      </trkpt>
      <trkpt lat="50.23779" lon="4.33056">
        <ele>233.6</ele>
        <time>2022-04-21T13:07:07Z</time>
      </trkpt>
      <trkpt lat="50.2378" lon="4.33049">
        <ele>233.6</ele>
        <time>2022-04-21T13:07:08Z</time>
      </trkpt>
      <trkpt lat="50.23782" lon="4.33036">
        <ele>233.8</ele>
        <time>2022-04-21T13:07:10Z</time>
      </trkpt>
      <trkpt lat="50.23783" lon="4.3303">
        <ele>234</ele>
        <time>2022-04-21T13:07:11Z</time>
      </trkpt>
      <trkpt lat="50.23784" lon="4.33024">
        <ele>234</ele>
        <time>2022-04-21T13:07:12Z</time>
      </trkpt>
      <trkpt lat="50.23788" lon="4.33004">
        <ele>234</ele>
        <time>2022-04-21T13:07:15Z</time>
      </trkpt>
      <trkpt lat="50.23792" lon="4.32983">
        <ele>234</ele>
        <time>2022-04-21T13:07:18Z</time>
      </trkpt>
      <trkpt lat="50.23793" lon="4.32975">
        <ele>234</ele>
        <time>2022-04-21T13:07:19Z</time>
      </trkpt>
      <trkpt lat="50.23794" lon="4.32967">
        <ele>234</ele>
        <time>2022-04-21T13:07:20Z</time>
      </trkpt>
      <trkpt lat="50.23796" lon="4.32953">
        <ele>234.2</ele>
        <time>2022-04-21T13:07:22Z</time>
      </trkpt>
      <trkpt lat="50.23797" lon="4.32947">
        <ele>234.2</ele>
        <time>2022-04-21T13:07:23Z</time>
      </trkpt>
      <trkpt lat="50.238" lon="4.32932">
        <ele>234</ele>
        <time>2022-04-21T13:07:25Z</time>
      </trkpt>
      <trkpt lat="50.23801" lon="4.32924">
        <ele>234</ele>
        <time>2022-04-21T13:07:26Z</time>
      </trkpt>
      <trkpt lat="50.23802" lon="4.32916">
        <ele>233.8</ele>
        <time>2022-04-21T13:07:27Z</time>
      </trkpt>
      <trkpt lat="50.23803" lon="4.329">
        <ele>233.6</ele>
        <time>2022-04-21T13:07:29Z</time>
      </trkpt>
      <trkpt lat="50.23805" lon="4.32884">
        <ele>233.6</ele>
        <time>2022-04-21T13:07:31Z</time>
      </trkpt>
      <trkpt lat="50.23805" lon="4.3287">
        <ele>233.4</ele>
        <time>2022-04-21T13:07:33Z</time>
      </trkpt>
      <trkpt lat="50.23805" lon="4.32856">
        <ele>233.2</ele>
        <time>2022-04-21T13:07:35Z</time>
      </trkpt>
      <trkpt lat="50.23806" lon="4.32837">
        <ele>233.2</ele>
        <time>2022-04-21T13:07:38Z</time>
      </trkpt>
      <trkpt lat="50.23808" lon="4.32833">
        <ele>233</ele>
        <time>2022-04-21T13:07:39Z</time>
      </trkpt>
      <trkpt lat="50.23818" lon="4.3283">
        <ele>233</ele>
        <time>2022-04-21T13:07:42Z</time>
      </trkpt>
      <trkpt lat="50.23822" lon="4.32831">
        <ele>233</ele>
        <time>2022-04-21T13:07:43Z</time>
      </trkpt>
      <trkpt lat="50.23836" lon="4.32838">
        <ele>232.4</ele>
        <time>2022-04-21T13:07:46Z</time>
      </trkpt>
      <trkpt lat="50.23841" lon="4.3284">
        <ele>232.2</ele>
        <time>2022-04-21T13:07:47Z</time>
      </trkpt>
      <trkpt lat="50.23857" lon="4.32847">
        <ele>231.8</ele>
        <time>2022-04-21T13:07:50Z</time>
      </trkpt>
      <trkpt lat="50.23861" lon="4.32848">
        <ele>231.6</ele>
        <time>2022-04-21T13:07:51Z</time>
      </trkpt>
      <trkpt lat="50.23872" lon="4.32848">
        <ele>231.2</ele>
        <time>2022-04-21T13:07:53Z</time>
      </trkpt>
      <trkpt lat="50.23877" lon="4.32847">
        <ele>231</ele>
        <time>2022-04-21T13:07:54Z</time>
      </trkpt>
      <trkpt lat="50.23883" lon="4.32843">
        <ele>230.8</ele>
        <time>2022-04-21T13:07:55Z</time>
      </trkpt>
      <trkpt lat="50.23893" lon="4.32832">
        <ele>230.6</ele>
        <time>2022-04-21T13:07:57Z</time>
      </trkpt>
      <trkpt lat="50.23899" lon="4.32818">
        <ele>230.4</ele>
        <time>2022-04-21T13:07:59Z</time>
      </trkpt>
      <trkpt lat="50.23902" lon="4.3281">
        <ele>230.2</ele>
        <time>2022-04-21T13:08:00Z</time>
      </trkpt>
      <trkpt lat="50.23906" lon="4.32795">
        <ele>230</ele>
        <time>2022-04-21T13:08:02Z</time>
      </trkpt>
      <trkpt lat="50.23916" lon="4.32773">
        <ele>229.6</ele>
        <time>2022-04-21T13:08:05Z</time>
      </trkpt>
      <trkpt lat="50.23934" lon="4.32728">
        <ele>228.6</ele>
        <time>2022-04-21T13:08:11Z</time>
      </trkpt>
      <trkpt lat="50.23941" lon="4.32712">
        <ele>228.4</ele>
        <time>2022-04-21T13:08:13Z</time>
      </trkpt>
      <trkpt lat="50.23966" lon="4.32649">
        <ele>227</ele>
        <time>2022-04-21T13:08:21Z</time>
      </trkpt>
      <trkpt lat="50.2398" lon="4.32616">
        <ele>226.2</ele>
        <time>2022-04-21T13:08:25Z</time>
      </trkpt>
      <trkpt lat="50.23983" lon="4.32607">
        <ele>226</ele>
        <time>2022-04-21T13:08:26Z</time>
      </trkpt>
      <trkpt lat="50.24007" lon="4.32542">
        <ele>224.4</ele>
        <time>2022-04-21T13:08:33Z</time>
      </trkpt>
      <trkpt lat="50.24032" lon="4.32489">
        <ele>222.6</ele>
        <time>2022-04-21T13:08:39Z</time>
      </trkpt>
      <trkpt lat="50.24055" lon="4.32444">
        <ele>221</ele>
        <time>2022-04-21T13:08:44Z</time>
      </trkpt>
      <trkpt lat="50.2406" lon="4.32435">
        <ele>220.6</ele>
        <time>2022-04-21T13:08:45Z</time>
      </trkpt>
      <trkpt lat="50.24075" lon="4.32405">
        <ele>219.4</ele>
        <time>2022-04-21T13:08:48Z</time>
      </trkpt>
      <trkpt lat="50.24102" lon="4.32351">
        <ele>217.4</ele>
        <time>2022-04-21T13:08:53Z</time>
      </trkpt>
      <trkpt lat="50.24126" lon="4.32302">
        <ele>215.6</ele>
        <time>2022-04-21T13:08:57Z</time>
      </trkpt>
      <trkpt lat="50.24145" lon="4.32255">
        <ele>214.4</ele>
        <time>2022-04-21T13:09:01Z</time>
      </trkpt>
      <trkpt lat="50.24152" lon="4.32237">
        <ele>214</ele>
        <time>2022-04-21T13:09:03Z</time>
      </trkpt>
      <trkpt lat="50.24155" lon="4.32221">
        <ele>213.6</ele>
        <time>2022-04-21T13:09:05Z</time>
      </trkpt>
      <trkpt lat="50.24167" lon="4.32177">
        <ele>212.4</ele>
        <time>2022-04-21T13:09:11Z</time>
      </trkpt>
      <trkpt lat="50.2417" lon="4.32162">
        <ele>212</ele>
        <time>2022-04-21T13:09:13Z</time>
      </trkpt>
      <trkpt lat="50.24175" lon="4.32148">
        <ele>211.6</ele>
        <time>2022-04-21T13:09:15Z</time>
      </trkpt>
      <trkpt lat="50.24181" lon="4.32134">
        <ele>211.4</ele>
        <time>2022-04-21T13:09:17Z</time>
      </trkpt>
      <trkpt lat="50.24187" lon="4.32118">
        <ele>211.2</ele>
        <time>2022-04-21T13:09:19Z</time>
      </trkpt>
      <trkpt lat="50.2419" lon="4.3211">
        <ele>211.2</ele>
        <time>2022-04-21T13:09:20Z</time>
      </trkpt>
      <trkpt lat="50.24198" lon="4.32085">
        <ele>211.2</ele>
        <time>2022-04-21T13:09:23Z</time>
      </trkpt>
      <trkpt lat="50.24209" lon="4.32039">
        <ele>211</ele>
        <time>2022-04-21T13:09:29Z</time>
      </trkpt>
      <trkpt lat="50.24213" lon="4.32024">
        <ele>211</ele>
        <time>2022-04-21T13:09:31Z</time>
      </trkpt>
      <trkpt lat="50.24217" lon="4.32004">
        <ele>211.2</ele>
        <time>2022-04-21T13:09:34Z</time>
      </trkpt>
      <trkpt lat="50.24223" lon="4.31982">
        <ele>211.4</ele>
        <time>2022-04-21T13:09:37Z</time>
      </trkpt>
      <trkpt lat="50.24225" lon="4.31975">
        <ele>210.6</ele>
        <time>2022-04-21T13:09:38Z</time>
      </trkpt>
      <trkpt lat="50.24229" lon="4.3196">
        <ele>211.8</ele>
        <time>2022-04-21T13:09:40Z</time>
      </trkpt>
      <trkpt lat="50.24237" lon="4.3193">
        <ele>212</ele>
        <time>2022-04-21T13:09:44Z</time>
      </trkpt>
      <trkpt lat="50.24249" lon="4.31888">
        <ele>212.2</ele>
        <time>2022-04-21T13:09:50Z</time>
      </trkpt>
      <trkpt lat="50.24257" lon="4.31854">
        <ele>212.6</ele>
        <time>2022-04-21T13:09:55Z</time>
      </trkpt>
      <trkpt lat="50.24258" lon="4.31847">
        <ele>212.6</ele>
        <time>2022-04-21T13:09:56Z</time>
      </trkpt>
      <trkpt lat="50.2426" lon="4.31834">
        <ele>213</ele>
        <time>2022-04-21T13:09:58Z</time>
      </trkpt>
      <trkpt lat="50.24268" lon="4.31813">
        <ele>213.2</ele>
        <time>2022-04-21T13:10:01Z</time>
      </trkpt>
      <trkpt lat="50.24272" lon="4.31799">
        <ele>213.6</ele>
        <time>2022-04-21T13:10:03Z</time>
      </trkpt>
      <trkpt lat="50.24276" lon="4.31784">
        <ele>213.8</ele>
        <time>2022-04-21T13:10:05Z</time>
      </trkpt>
      <trkpt lat="50.24277" lon="4.31777">
        <ele>214</ele>
        <time>2022-04-21T13:10:06Z</time>
      </trkpt>
      <trkpt lat="50.24281" lon="4.31764">
        <ele>214.2</ele>
        <time>2022-04-21T13:10:08Z</time>
      </trkpt>
      <trkpt lat="50.24291" lon="4.31728">
        <ele>215</ele>
        <time>2022-04-21T13:10:13Z</time>
      </trkpt>
      <trkpt lat="50.24293" lon="4.31721">
        <ele>215</ele>
        <time>2022-04-21T13:10:14Z</time>
      </trkpt>
      <trkpt lat="50.24295" lon="4.31713">
        <ele>215.2</ele>
        <time>2022-04-21T13:10:15Z</time>
      </trkpt>
      <trkpt lat="50.24301" lon="4.317">
        <ele>215.4</ele>
        <time>2022-04-21T13:10:17Z</time>
      </trkpt>
      <trkpt lat="50.24309" lon="4.31668">
        <ele>215.8</ele>
        <time>2022-04-21T13:10:21Z</time>
      </trkpt>
      <trkpt lat="50.24311" lon="4.3166">
        <ele>216</ele>
        <time>2022-04-21T13:10:22Z</time>
      </trkpt>
      <trkpt lat="50.24319" lon="4.31638">
        <ele>216.4</ele>
        <time>2022-04-21T13:10:25Z</time>
      </trkpt>
      <trkpt lat="50.24324" lon="4.31623">
        <ele>216.6</ele>
        <time>2022-04-21T13:10:27Z</time>
      </trkpt>
      <trkpt lat="50.24327" lon="4.31616">
        <ele>216.6</ele>
        <time>2022-04-21T13:10:28Z</time>
      </trkpt>
      <trkpt lat="50.24334" lon="4.31593">
        <ele>217</ele>
        <time>2022-04-21T13:10:32Z</time>
      </trkpt>
      <trkpt lat="50.24336" lon="4.31592">
        <ele>217.4</ele>
        <time>2022-04-21T13:10:35Z</time>
      </trkpt>
      <trkpt lat="50.24336" lon="4.31592">
        <ele>218.6</ele>
        <time>2022-04-21T13:10:47Z</time>
      </trkpt>
      <trkpt lat="50.24336" lon="4.31592">
        <ele>219.6</ele>
        <time>2022-04-21T13:11:00Z</time>
      </trkpt>
      <trkpt lat="50.24336" lon="4.31593">
        <ele>220.8</ele>
        <time>2022-04-21T13:11:17Z</time>
      </trkpt>
      <trkpt lat="50.24336" lon="4.31593">
        <ele>221.2</ele>
        <time>2022-04-21T13:11:25Z</time>
      </trkpt>
      <trkpt lat="50.24337" lon="4.31594">
        <ele>221.4</ele>
        <time>2022-04-21T13:11:27Z</time>
      </trkpt>
      <trkpt lat="50.24349" lon="4.31603">
        <ele>221.6</ele>
        <time>2022-04-21T13:11:32Z</time>
      </trkpt>
      <trkpt lat="50.24364" lon="4.31614">
        <ele>221.6</ele>
        <time>2022-04-21T13:11:37Z</time>
      </trkpt>
      <trkpt lat="50.2438" lon="4.31624">
        <ele>221.6</ele>
        <time>2022-04-21T13:11:41Z</time>
      </trkpt>
      <trkpt lat="50.24408" lon="4.31642">
        <ele>221.4</ele>
        <time>2022-04-21T13:11:46Z</time>
      </trkpt>
      <trkpt lat="50.24454" lon="4.31675">
        <ele>221.2</ele>
        <time>2022-04-21T13:11:54Z</time>
      </trkpt>
      <trkpt lat="50.24474" lon="4.31688">
        <ele>221</ele>
        <time>2022-04-21T13:11:58Z</time>
      </trkpt>
      <trkpt lat="50.24479" lon="4.31692">
        <ele>221</ele>
        <time>2022-04-21T13:11:59Z</time>
      </trkpt>
      <trkpt lat="50.24511" lon="4.31723">
        <ele>220.2</ele>
        <time>2022-04-21T13:12:06Z</time>
      </trkpt>
      <trkpt lat="50.24548" lon="4.31745">
        <ele>219.8</ele>
        <time>2022-04-21T13:12:13Z</time>
      </trkpt>
      <trkpt lat="50.24591" lon="4.31764">
        <ele>219.2</ele>
        <time>2022-04-21T13:12:21Z</time>
      </trkpt>
      <trkpt lat="50.24635" lon="4.31783">
        <ele>218.4</ele>
        <time>2022-04-21T13:12:30Z</time>
      </trkpt>
      <trkpt lat="50.24673" lon="4.318">
        <ele>217.6</ele>
        <time>2022-04-21T13:12:37Z</time>
      </trkpt>
      <trkpt lat="50.24722" lon="4.31822">
        <ele>216.6</ele>
        <time>2022-04-21T13:12:46Z</time>
      </trkpt>
      <trkpt lat="50.24776" lon="4.31846">
        <ele>215.6</ele>
        <time>2022-04-21T13:12:56Z</time>
      </trkpt>
      <trkpt lat="50.24787" lon="4.31851">
        <ele>215.4</ele>
        <time>2022-04-21T13:12:58Z</time>
      </trkpt>
      <trkpt lat="50.24835" lon="4.31873">
        <ele>214.6</ele>
        <time>2022-04-21T13:13:07Z</time>
      </trkpt>
      <trkpt lat="50.24867" lon="4.31886">
        <ele>214.2</ele>
        <time>2022-04-21T13:13:13Z</time>
      </trkpt>
      <trkpt lat="50.24905" lon="4.31902">
        <ele>213.6</ele>
        <time>2022-04-21T13:13:20Z</time>
      </trkpt>
      <trkpt lat="50.2495" lon="4.31924">
        <ele>212.8</ele>
        <time>2022-04-21T13:13:28Z</time>
      </trkpt>
      <trkpt lat="50.25002" lon="4.31948">
        <ele>212</ele>
        <time>2022-04-21T13:13:37Z</time>
      </trkpt>
      <trkpt lat="50.25014" lon="4.31953">
        <ele>212</ele>
        <time>2022-04-21T13:13:39Z</time>
      </trkpt>
      <trkpt lat="50.25067" lon="4.31977">
        <ele>211.2</ele>
        <time>2022-04-21T13:13:48Z</time>
      </trkpt>
      <trkpt lat="50.25107" lon="4.31995">
        <ele>210.6</ele>
        <time>2022-04-21T13:13:55Z</time>
      </trkpt>
      <trkpt lat="50.25144" lon="4.32012">
        <ele>209.8</ele>
        <time>2022-04-21T13:14:02Z</time>
      </trkpt>
      <trkpt lat="50.25184" lon="4.32029">
        <ele>209</ele>
        <time>2022-04-21T13:14:10Z</time>
      </trkpt>
      <trkpt lat="50.25217" lon="4.32043">
        <ele>208.2</ele>
        <time>2022-04-21T13:14:17Z</time>
      </trkpt>
      <trkpt lat="50.25235" lon="4.32048">
        <ele>207.6</ele>
        <time>2022-04-21T13:14:22Z</time>
      </trkpt>
      <trkpt lat="50.25239" lon="4.3205">
        <ele>207.6</ele>
        <time>2022-04-21T13:14:23Z</time>
      </trkpt>
      <trkpt lat="50.25255" lon="4.32058">
        <ele>207</ele>
        <time>2022-04-21T13:14:27Z</time>
      </trkpt>
      <trkpt lat="50.25287" lon="4.32071">
        <ele>205.6</ele>
        <time>2022-04-21T13:14:35Z</time>
      </trkpt>
      <trkpt lat="50.25294" lon="4.32076">
        <ele>205.4</ele>
        <time>2022-04-21T13:14:37Z</time>
      </trkpt>
      <trkpt lat="50.25309" lon="4.32083">
        <ele>204.8</ele>
        <time>2022-04-21T13:14:40Z</time>
      </trkpt>
      <trkpt lat="50.25349" lon="4.32099">
        <ele>203.2</ele>
        <time>2022-04-21T13:14:48Z</time>
      </trkpt>
      <trkpt lat="50.2536" lon="4.32103">
        <ele>202.8</ele>
        <time>2022-04-21T13:14:50Z</time>
      </trkpt>
      <trkpt lat="50.25372" lon="4.3211">
        <ele>202.4</ele>
        <time>2022-04-21T13:14:52Z</time>
      </trkpt>
      <trkpt lat="50.25406" lon="4.32125">
        <ele>201.2</ele>
        <time>2022-04-21T13:14:57Z</time>
      </trkpt>
      <trkpt lat="50.25453" lon="4.32145">
        <ele>199.6</ele>
        <time>2022-04-21T13:15:03Z</time>
      </trkpt>
      <trkpt lat="50.25471" lon="4.3215">
        <ele>199</ele>
        <time>2022-04-21T13:15:05Z</time>
      </trkpt>
      <trkpt lat="50.25489" lon="4.32151">
        <ele>198.4</ele>
        <time>2022-04-21T13:15:07Z</time>
      </trkpt>
      <trkpt lat="50.25535" lon="4.32156">
        <ele>196.6</ele>
        <time>2022-04-21T13:15:12Z</time>
      </trkpt>
      <trkpt lat="50.25589" lon="4.32168">
        <ele>194.8</ele>
        <time>2022-04-21T13:15:18Z</time>
      </trkpt>
      <trkpt lat="50.25598" lon="4.3217">
        <ele>194.4</ele>
        <time>2022-04-21T13:15:19Z</time>
      </trkpt>
      <trkpt lat="50.25645" lon="4.32181">
        <ele>192.8</ele>
        <time>2022-04-21T13:15:25Z</time>
      </trkpt>
      <trkpt lat="50.25689" lon="4.32197">
        <ele>191</ele>
        <time>2022-04-21T13:15:32Z</time>
      </trkpt>
      <trkpt lat="50.25723" lon="4.32215">
        <ele>189.4</ele>
        <time>2022-04-21T13:15:39Z</time>
      </trkpt>
      <trkpt lat="50.25728" lon="4.32218">
        <ele>189.2</ele>
        <time>2022-04-21T13:15:40Z</time>
      </trkpt>
      <trkpt lat="50.25742" lon="4.32234">
        <ele>188.4</ele>
        <time>2022-04-21T13:15:43Z</time>
      </trkpt>
      <trkpt lat="50.25764" lon="4.32263">
        <ele>187</ele>
        <time>2022-04-21T13:15:49Z</time>
      </trkpt>
      <trkpt lat="50.25771" lon="4.32264">
        <ele>186.6</ele>
        <time>2022-04-21T13:15:51Z</time>
      </trkpt>
      <trkpt lat="50.25774" lon="4.3226">
        <ele>186.4</ele>
        <time>2022-04-21T13:15:52Z</time>
      </trkpt>
      <trkpt lat="50.25784" lon="4.32233">
        <ele>185.6</ele>
        <time>2022-04-21T13:15:57Z</time>
      </trkpt>
      <trkpt lat="50.25792" lon="4.32206">
        <ele>184.8</ele>
        <time>2022-04-21T13:16:01Z</time>
      </trkpt>
      <trkpt lat="50.258" lon="4.32197">
        <ele>184.4</ele>
        <time>2022-04-21T13:16:03Z</time>
      </trkpt>
      <trkpt lat="50.2581" lon="4.32194">
        <ele>184.2</ele>
        <time>2022-04-21T13:16:05Z</time>
      </trkpt>
      <trkpt lat="50.25815" lon="4.32195">
        <ele>184</ele>
        <time>2022-04-21T13:16:06Z</time>
      </trkpt>
      <trkpt lat="50.2582" lon="4.32197">
        <ele>183.8</ele>
        <time>2022-04-21T13:16:07Z</time>
      </trkpt>
      <trkpt lat="50.25839" lon="4.32211">
        <ele>183</ele>
        <time>2022-04-21T13:16:11Z</time>
      </trkpt>
      <trkpt lat="50.25863" lon="4.32235">
        <ele>182</ele>
        <time>2022-04-21T13:16:17Z</time>
      </trkpt>
      <trkpt lat="50.25875" lon="4.32247">
        <ele>181.4</ele>
        <time>2022-04-21T13:16:22Z</time>
      </trkpt>
      <trkpt lat="50.25884" lon="4.32246">
        <ele>181</ele>
        <time>2022-04-21T13:16:26Z</time>
      </trkpt>
      <trkpt lat="50.25886" lon="4.32244">
        <ele>180.8</ele>
        <time>2022-04-21T13:16:27Z</time>
      </trkpt>
      <trkpt lat="50.25894" lon="4.32223">
        <ele>180.2</ele>
        <time>2022-04-21T13:16:31Z</time>
      </trkpt>
      <trkpt lat="50.25909" lon="4.32179">
        <ele>179.4</ele>
        <time>2022-04-21T13:16:37Z</time>
      </trkpt>
      <trkpt lat="50.25931" lon="4.32112">
        <ele>178.2</ele>
        <time>2022-04-21T13:16:46Z</time>
      </trkpt>
      <trkpt lat="50.25954" lon="4.32051">
        <ele>178</ele>
        <time>2022-04-21T13:16:54Z</time>
      </trkpt>
      <trkpt lat="50.25968" lon="4.32017">
        <ele>178</ele>
        <time>2022-04-21T13:16:59Z</time>
      </trkpt>
      <trkpt lat="50.25989" lon="4.31971">
        <ele>177.8</ele>
        <time>2022-04-21T13:17:06Z</time>
      </trkpt>
      <trkpt lat="50.26003" lon="4.31944">
        <ele>177.6</ele>
        <time>2022-04-21T13:17:10Z</time>
      </trkpt>
      <trkpt lat="50.26012" lon="4.31933">
        <ele>177.6</ele>
        <time>2022-04-21T13:17:12Z</time>
      </trkpt>
      <trkpt lat="50.26016" lon="4.31928">
        <ele>177.6</ele>
        <time>2022-04-21T13:17:13Z</time>
      </trkpt>
      <trkpt lat="50.26046" lon="4.31902">
        <ele>177.6</ele>
        <time>2022-04-21T13:17:20Z</time>
      </trkpt>
      <trkpt lat="50.26057" lon="4.31892">
        <ele>177.4</ele>
        <time>2022-04-21T13:17:23Z</time>
      </trkpt>
      <trkpt lat="50.26064" lon="4.31879">
        <ele>177.4</ele>
        <time>2022-04-21T13:17:26Z</time>
      </trkpt>
      <trkpt lat="50.26064" lon="4.31873">
        <ele>177.4</ele>
        <time>2022-04-21T13:17:27Z</time>
      </trkpt>
      <trkpt lat="50.2606" lon="4.31862">
        <ele>177.4</ele>
        <time>2022-04-21T13:17:29Z</time>
      </trkpt>
      <trkpt lat="50.26037" lon="4.31814">
        <ele>177.6</ele>
        <time>2022-04-21T13:17:37Z</time>
      </trkpt>
      <trkpt lat="50.26013" lon="4.3177">
        <ele>177.8</ele>
        <time>2022-04-21T13:17:44Z</time>
      </trkpt>
      <trkpt lat="50.25996" lon="4.31748">
        <ele>177.8</ele>
        <time>2022-04-21T13:17:48Z</time>
      </trkpt>
      <trkpt lat="50.25991" lon="4.31743">
        <ele>177.8</ele>
        <time>2022-04-21T13:17:49Z</time>
      </trkpt>
      <trkpt lat="50.25961" lon="4.31719">
        <ele>177.8</ele>
        <time>2022-04-21T13:17:55Z</time>
      </trkpt>
      <trkpt lat="50.25938" lon="4.317">
        <ele>177.6</ele>
        <time>2022-04-21T13:18:00Z</time>
      </trkpt>
      <trkpt lat="50.25934" lon="4.31694">
        <ele>177.8</ele>
        <time>2022-04-21T13:18:01Z</time>
      </trkpt>
      <trkpt lat="50.25931" lon="4.31688">
        <ele>177.6</ele>
        <time>2022-04-21T13:18:02Z</time>
      </trkpt>
      <trkpt lat="50.25928" lon="4.31672">
        <ele>177.4</ele>
        <time>2022-04-21T13:18:04Z</time>
      </trkpt>
      <trkpt lat="50.25933" lon="4.31659">
        <ele>177.6</ele>
        <time>2022-04-21T13:18:06Z</time>
      </trkpt>
      <trkpt lat="50.25937" lon="4.31654">
        <ele>177.4</ele>
        <time>2022-04-21T13:18:07Z</time>
      </trkpt>
      <trkpt lat="50.25954" lon="4.31624">
        <ele>177.4</ele>
        <time>2022-04-21T13:18:13Z</time>
      </trkpt>
      <trkpt lat="50.25955" lon="4.31607">
        <ele>177.4</ele>
        <time>2022-04-21T13:18:16Z</time>
      </trkpt>
      <trkpt lat="50.25953" lon="4.31601">
        <ele>177.4</ele>
        <time>2022-04-21T13:18:17Z</time>
      </trkpt>
      <trkpt lat="50.25949" lon="4.31596">
        <ele>177.4</ele>
        <time>2022-04-21T13:18:18Z</time>
      </trkpt>
      <trkpt lat="50.25936" lon="4.31584">
        <ele>177.4</ele>
        <time>2022-04-21T13:18:21Z</time>
      </trkpt>
      <trkpt lat="50.25916" lon="4.31563">
        <ele>177.4</ele>
        <time>2022-04-21T13:18:26Z</time>
      </trkpt>
      <trkpt lat="50.25912" lon="4.31558">
        <ele>177.4</ele>
        <time>2022-04-21T13:18:27Z</time>
      </trkpt>
      <trkpt lat="50.25909" lon="4.31551">
        <ele>177.4</ele>
        <time>2022-04-21T13:18:28Z</time>
      </trkpt>
      <trkpt lat="50.25903" lon="4.31527">
        <ele>177.2</ele>
        <time>2022-04-21T13:18:31Z</time>
      </trkpt>
      <trkpt lat="50.25901" lon="4.31502">
        <ele>177</ele>
        <time>2022-04-21T13:18:34Z</time>
      </trkpt>
      <trkpt lat="50.25899" lon="4.31485">
        <ele>176.8</ele>
        <time>2022-04-21T13:18:36Z</time>
      </trkpt>
      <trkpt lat="50.25895" lon="4.31465">
        <ele>176.2</ele>
        <time>2022-04-21T13:18:40Z</time>
      </trkpt>
      <trkpt lat="50.25891" lon="4.31447">
        <ele>175.6</ele>
        <time>2022-04-21T13:18:46Z</time>
      </trkpt>
      <trkpt lat="50.25885" lon="4.31425">
        <ele>175.2</ele>
        <time>2022-04-21T13:18:51Z</time>
      </trkpt>
      <trkpt lat="50.25884" lon="4.31411">
        <ele>174.8</ele>
        <time>2022-04-21T13:18:55Z</time>
      </trkpt>
      <trkpt lat="50.25884" lon="4.31387">
        <ele>174.4</ele>
        <time>2022-04-21T13:19:00Z</time>
      </trkpt>
      <trkpt lat="50.2588" lon="4.31358">
        <ele>174</ele>
        <time>2022-04-21T13:19:06Z</time>
      </trkpt>
      <trkpt lat="50.25874" lon="4.31325">
        <ele>173.4</ele>
        <time>2022-04-21T13:19:13Z</time>
      </trkpt>
      <trkpt lat="50.25871" lon="4.31301">
        <ele>173.2</ele>
        <time>2022-04-21T13:19:19Z</time>
      </trkpt>
      <trkpt lat="50.25871" lon="4.31296">
        <ele>173.2</ele>
        <time>2022-04-21T13:19:20Z</time>
      </trkpt>
      <trkpt lat="50.25868" lon="4.31273">
        <ele>173.2</ele>
        <time>2022-04-21T13:19:26Z</time>
      </trkpt>
      <trkpt lat="50.25868" lon="4.31263">
        <ele>173</ele>
        <time>2022-04-21T13:19:29Z</time>
      </trkpt>
      <trkpt lat="50.2587" lon="4.31257">
        <ele>173</ele>
        <time>2022-04-21T13:19:31Z</time>
      </trkpt>
      <trkpt lat="50.25883" lon="4.31236">
        <ele>172.6</ele>
        <time>2022-04-21T13:19:37Z</time>
      </trkpt>
      <trkpt lat="50.25898" lon="4.31215">
        <ele>172.6</ele>
        <time>2022-04-21T13:19:43Z</time>
      </trkpt>
      <trkpt lat="50.25918" lon="4.31187">
        <ele>172.4</ele>
        <time>2022-04-21T13:19:52Z</time>
      </trkpt>
      <trkpt lat="50.25932" lon="4.31169">
        <ele>172.4</ele>
        <time>2022-04-21T13:19:59Z</time>
      </trkpt>
      <trkpt lat="50.2594" lon="4.31161">
        <ele>172.4</ele>
        <time>2022-04-21T13:20:05Z</time>
      </trkpt>
      <trkpt lat="50.25941" lon="4.31154">
        <ele>172.2</ele>
        <time>2022-04-21T13:20:10Z</time>
      </trkpt>
      <trkpt lat="50.2594" lon="4.3115">
        <ele>172.4</ele>
        <time>2022-04-21T13:20:11Z</time>
      </trkpt>
      <trkpt lat="50.25935" lon="4.31139">
        <ele>172.2</ele>
        <time>2022-04-21T13:20:14Z</time>
      </trkpt>
      <trkpt lat="50.25925" lon="4.31117">
        <ele>172.4</ele>
        <time>2022-04-21T13:20:19Z</time>
      </trkpt>
      <trkpt lat="50.25912" lon="4.31081">
        <ele>172.4</ele>
        <time>2022-04-21T13:20:25Z</time>
      </trkpt>
      <trkpt lat="50.25897" lon="4.3104">
        <ele>172.8</ele>
        <time>2022-04-21T13:20:32Z</time>
      </trkpt>
      <trkpt lat="50.25883" lon="4.30999">
        <ele>172.8</ele>
        <time>2022-04-21T13:20:39Z</time>
      </trkpt>
      <trkpt lat="50.25868" lon="4.30956">
        <ele>173</ele>
        <time>2022-04-21T13:20:46Z</time>
      </trkpt>
      <trkpt lat="50.25846" lon="4.30908">
        <ele>173</ele>
        <time>2022-04-21T13:20:54Z</time>
      </trkpt>
      <trkpt lat="50.25838" lon="4.309">
        <ele>173.2</ele>
        <time>2022-04-21T13:20:56Z</time>
      </trkpt>
      <trkpt lat="50.25833" lon="4.30899">
        <ele>173.2</ele>
        <time>2022-04-21T13:20:57Z</time>
      </trkpt>
      <trkpt lat="50.25828" lon="4.309">
        <ele>173.2</ele>
        <time>2022-04-21T13:20:58Z</time>
      </trkpt>
      <trkpt lat="50.2582" lon="4.30905">
        <ele>173.2</ele>
        <time>2022-04-21T13:21:00Z</time>
      </trkpt>
      <trkpt lat="50.25816" lon="4.30908">
        <ele>173.2</ele>
        <time>2022-04-21T13:21:01Z</time>
      </trkpt>
      <trkpt lat="50.25797" lon="4.30917">
        <ele>173.2</ele>
        <time>2022-04-21T13:21:06Z</time>
      </trkpt>
      <trkpt lat="50.25766" lon="4.30929">
        <ele>173.8</ele>
        <time>2022-04-21T13:21:14Z</time>
      </trkpt>
      <trkpt lat="50.25734" lon="4.30938">
        <ele>174.2</ele>
        <time>2022-04-21T13:21:22Z</time>
      </trkpt>
      <trkpt lat="50.257" lon="4.30944">
        <ele>174.8</ele>
        <time>2022-04-21T13:21:30Z</time>
      </trkpt>
      <trkpt lat="50.25696" lon="4.30945">
        <ele>175</ele>
        <time>2022-04-21T13:21:31Z</time>
      </trkpt>
      <trkpt lat="50.25671" lon="4.30948">
        <ele>175.4</ele>
        <time>2022-04-21T13:21:37Z</time>
      </trkpt>
      <trkpt lat="50.25635" lon="4.30954">
        <ele>176.2</ele>
        <time>2022-04-21T13:21:46Z</time>
      </trkpt>
      <trkpt lat="50.25604" lon="4.30962">
        <ele>177</ele>
        <time>2022-04-21T13:21:54Z</time>
      </trkpt>
      <trkpt lat="50.25574" lon="4.3097">
        <ele>178</ele>
        <time>2022-04-21T13:22:02Z</time>
      </trkpt>
      <trkpt lat="50.25545" lon="4.3098">
        <ele>179.2</ele>
        <time>2022-04-21T13:22:10Z</time>
      </trkpt>
      <trkpt lat="50.25515" lon="4.30989">
        <ele>180.4</ele>
        <time>2022-04-21T13:22:18Z</time>
      </trkpt>
      <trkpt lat="50.25482" lon="4.31001">
        <ele>181.8</ele>
        <time>2022-04-21T13:22:27Z</time>
      </trkpt>
      <trkpt lat="50.25456" lon="4.31008">
        <ele>183</ele>
        <time>2022-04-21T13:22:34Z</time>
      </trkpt>
      <trkpt lat="50.25435" lon="4.31021">
        <ele>183.8</ele>
        <time>2022-04-21T13:22:40Z</time>
      </trkpt>
      <trkpt lat="50.25428" lon="4.31035">
        <ele>184.2</ele>
        <time>2022-04-21T13:22:43Z</time>
      </trkpt>
      <trkpt lat="50.25426" lon="4.31041">
        <ele>184.4</ele>
        <time>2022-04-21T13:22:44Z</time>
      </trkpt>
      <trkpt lat="50.25418" lon="4.31075">
        <ele>185.2</ele>
        <time>2022-04-21T13:22:50Z</time>
      </trkpt>
      <trkpt lat="50.25414" lon="4.3109">
        <ele>185.8</ele>
        <time>2022-04-21T13:22:54Z</time>
      </trkpt>
      <trkpt lat="50.25407" lon="4.31101">
        <ele>186.4</ele>
        <time>2022-04-21T13:22:58Z</time>
      </trkpt>
      <trkpt lat="50.25385" lon="4.3111">
        <ele>187.2</ele>
        <time>2022-04-21T13:23:05Z</time>
      </trkpt>
      <trkpt lat="50.25373" lon="4.31115">
        <ele>187.6</ele>
        <time>2022-04-21T13:23:09Z</time>
      </trkpt>
      <trkpt lat="50.25346" lon="4.31126">
        <ele>188.2</ele>
        <time>2022-04-21T13:23:15Z</time>
      </trkpt>
      <trkpt lat="50.25341" lon="4.31127">
        <ele>188.2</ele>
        <time>2022-04-21T13:23:16Z</time>
      </trkpt>
      <trkpt lat="50.25316" lon="4.3114">
        <ele>189</ele>
        <time>2022-04-21T13:23:22Z</time>
      </trkpt>
      <trkpt lat="50.25291" lon="4.31152">
        <ele>189.6</ele>
        <time>2022-04-21T13:23:28Z</time>
      </trkpt>
      <trkpt lat="50.25258" lon="4.31167">
        <ele>190.2</ele>
        <time>2022-04-21T13:23:35Z</time>
      </trkpt>
      <trkpt lat="50.25215" lon="4.31188">
        <ele>191</ele>
        <time>2022-04-21T13:23:43Z</time>
      </trkpt>
      <trkpt lat="50.25177" lon="4.31205">
        <ele>191.8</ele>
        <time>2022-04-21T13:23:50Z</time>
      </trkpt>
      <trkpt lat="50.25122" lon="4.31231">
        <ele>192.8</ele>
        <time>2022-04-21T13:24:00Z</time>
      </trkpt>
      <trkpt lat="50.25083" lon="4.31246">
        <ele>193.4</ele>
        <time>2022-04-21T13:24:07Z</time>
      </trkpt>
      <trkpt lat="50.25072" lon="4.31248">
        <ele>193.6</ele>
        <time>2022-04-21T13:24:09Z</time>
      </trkpt>
      <trkpt lat="50.25055" lon="4.31248">
        <ele>193.8</ele>
        <time>2022-04-21T13:24:12Z</time>
      </trkpt>
      <trkpt lat="50.25007" lon="4.31242">
        <ele>194.8</ele>
        <time>2022-04-21T13:24:20Z</time>
      </trkpt>
      <trkpt lat="50.24966" lon="4.31233">
        <ele>195.4</ele>
        <time>2022-04-21T13:24:27Z</time>
      </trkpt>
      <trkpt lat="50.24913" lon="4.31222">
        <ele>196.6</ele>
        <time>2022-04-21T13:24:36Z</time>
      </trkpt>
      <trkpt lat="50.2486" lon="4.31213">
        <ele>197.6</ele>
        <time>2022-04-21T13:24:45Z</time>
      </trkpt>
      <trkpt lat="50.24802" lon="4.31201">
        <ele>199</ele>
        <time>2022-04-21T13:24:55Z</time>
      </trkpt>
      <trkpt lat="50.24745" lon="4.31191">
        <ele>200.2</ele>
        <time>2022-04-21T13:25:05Z</time>
      </trkpt>
      <trkpt lat="50.24689" lon="4.3118">
        <ele>201.4</ele>
        <time>2022-04-21T13:25:15Z</time>
      </trkpt>
      <trkpt lat="50.24639" lon="4.31171">
        <ele>203</ele>
        <time>2022-04-21T13:25:24Z</time>
      </trkpt>
      <trkpt lat="50.24589" lon="4.3116">
        <ele>204.4</ele>
        <time>2022-04-21T13:25:33Z</time>
      </trkpt>
      <trkpt lat="50.24573" lon="4.31156">
        <ele>205</ele>
        <time>2022-04-21T13:25:36Z</time>
      </trkpt>
      <trkpt lat="50.24563" lon="4.31157">
        <ele>205.4</ele>
        <time>2022-04-21T13:25:38Z</time>
      </trkpt>
      <trkpt lat="50.24558" lon="4.31156">
        <ele>205.4</ele>
        <time>2022-04-21T13:25:39Z</time>
      </trkpt>
      <trkpt lat="50.24554" lon="4.31156">
        <ele>205.6</ele>
        <time>2022-04-21T13:25:40Z</time>
      </trkpt>
      <trkpt lat="50.2454" lon="4.31156">
        <ele>206</ele>
        <time>2022-04-21T13:25:43Z</time>
      </trkpt>
      <trkpt lat="50.24531" lon="4.31153">
        <ele>206.4</ele>
        <time>2022-04-21T13:25:45Z</time>
      </trkpt>
      <trkpt lat="50.245" lon="4.31146">
        <ele>207.6</ele>
        <time>2022-04-21T13:25:52Z</time>
      </trkpt>
      <trkpt lat="50.24465" lon="4.3114">
        <ele>209.2</ele>
        <time>2022-04-21T13:26:00Z</time>
      </trkpt>
      <trkpt lat="50.24461" lon="4.3114">
        <ele>209.4</ele>
        <time>2022-04-21T13:26:01Z</time>
      </trkpt>
      <trkpt lat="50.2445" lon="4.31136">
        <ele>209.8</ele>
        <time>2022-04-21T13:26:04Z</time>
      </trkpt>
      <trkpt lat="50.24442" lon="4.31132">
        <ele>210</ele>
        <time>2022-04-21T13:26:06Z</time>
      </trkpt>
      <trkpt lat="50.24434" lon="4.31132">
        <ele>210.4</ele>
        <time>2022-04-21T13:26:08Z</time>
      </trkpt>
      <trkpt lat="50.2441" lon="4.3113">
        <ele>211.2</ele>
        <time>2022-04-21T13:26:14Z</time>
      </trkpt>
      <trkpt lat="50.24407" lon="4.31131">
        <ele>211.4</ele>
        <time>2022-04-21T13:26:15Z</time>
      </trkpt>
      <trkpt lat="50.244" lon="4.3113">
        <ele>211.6</ele>
        <time>2022-04-21T13:26:17Z</time>
      </trkpt>
      <trkpt lat="50.24381" lon="4.31127">
        <ele>212.2</ele>
        <time>2022-04-21T13:26:22Z</time>
      </trkpt>
      <trkpt lat="50.2436" lon="4.31125">
        <ele>213</ele>
        <time>2022-04-21T13:26:27Z</time>
      </trkpt>
      <trkpt lat="50.24351" lon="4.31125">
        <ele>213.2</ele>
        <time>2022-04-21T13:26:29Z</time>
      </trkpt>
      <trkpt lat="50.24346" lon="4.31125">
        <ele>213.4</ele>
        <time>2022-04-21T13:26:30Z</time>
      </trkpt>
      <trkpt lat="50.24335" lon="4.31125">
        <ele>213.6</ele>
        <time>2022-04-21T13:26:32Z</time>
      </trkpt>
      <trkpt lat="50.24325" lon="4.31124">
        <ele>213.8</ele>
        <time>2022-04-21T13:26:34Z</time>
      </trkpt>
      <trkpt lat="50.24315" lon="4.31122">
        <ele>214.2</ele>
        <time>2022-04-21T13:26:36Z</time>
      </trkpt>
      <trkpt lat="50.24301" lon="4.31122">
        <ele>214.4</ele>
        <time>2022-04-21T13:26:39Z</time>
      </trkpt>
      <trkpt lat="50.24291" lon="4.31123">
        <ele>214.6</ele>
        <time>2022-04-21T13:26:41Z</time>
      </trkpt>
      <trkpt lat="50.24273" lon="4.31128">
        <ele>215.2</ele>
        <time>2022-04-21T13:26:45Z</time>
      </trkpt>
      <trkpt lat="50.24264" lon="4.31131">
        <ele>215.4</ele>
        <time>2022-04-21T13:26:47Z</time>
      </trkpt>
      <trkpt lat="50.24254" lon="4.31134">
        <ele>215.6</ele>
        <time>2022-04-21T13:26:49Z</time>
      </trkpt>
      <trkpt lat="50.24249" lon="4.31136">
        <ele>215.8</ele>
        <time>2022-04-21T13:26:50Z</time>
      </trkpt>
      <trkpt lat="50.24239" lon="4.31139">
        <ele>216</ele>
        <time>2022-04-21T13:26:52Z</time>
      </trkpt>
      <trkpt lat="50.24225" lon="4.31139">
        <ele>216.4</ele>
        <time>2022-04-21T13:26:56Z</time>
      </trkpt>
      <trkpt lat="50.24221" lon="4.3114">
        <ele>216.6</ele>
        <time>2022-04-21T13:26:57Z</time>
      </trkpt>
      <trkpt lat="50.2421" lon="4.31144">
        <ele>216.8</ele>
        <time>2022-04-21T13:26:59Z</time>
      </trkpt>
      <trkpt lat="50.242" lon="4.31149">
        <ele>217</ele>
        <time>2022-04-21T13:27:01Z</time>
      </trkpt>
      <trkpt lat="50.24186" lon="4.31154">
        <ele>217.6</ele>
        <time>2022-04-21T13:27:04Z</time>
      </trkpt>
      <trkpt lat="50.2417" lon="4.31158">
        <ele>218</ele>
        <time>2022-04-21T13:27:08Z</time>
      </trkpt>
      <trkpt lat="50.24144" lon="4.3117">
        <ele>218.6</ele>
        <time>2022-04-21T13:27:14Z</time>
      </trkpt>
      <trkpt lat="50.24132" lon="4.31174">
        <ele>219</ele>
        <time>2022-04-21T13:27:17Z</time>
      </trkpt>
      <trkpt lat="50.24127" lon="4.31177">
        <ele>219.2</ele>
        <time>2022-04-21T13:27:18Z</time>
      </trkpt>
      <trkpt lat="50.24122" lon="4.31179">
        <ele>219.2</ele>
        <time>2022-04-21T13:27:19Z</time>
      </trkpt>
      <trkpt lat="50.24109" lon="4.31185">
        <ele>219.6</ele>
        <time>2022-04-21T13:27:22Z</time>
      </trkpt>
      <trkpt lat="50.24086" lon="4.31195">
        <ele>220.2</ele>
        <time>2022-04-21T13:27:27Z</time>
      </trkpt>
      <trkpt lat="50.24065" lon="4.312">
        <ele>221</ele>
        <time>2022-04-21T13:27:32Z</time>
      </trkpt>
      <trkpt lat="50.24046" lon="4.31198">
        <ele>221.8</ele>
        <time>2022-04-21T13:27:37Z</time>
      </trkpt>
      <trkpt lat="50.24032" lon="4.31192">
        <ele>222.6</ele>
        <time>2022-04-21T13:27:41Z</time>
      </trkpt>
      <trkpt lat="50.24015" lon="4.3118">
        <ele>223.4</ele>
        <time>2022-04-21T13:27:46Z</time>
      </trkpt>
      <trkpt lat="50.24001" lon="4.31171">
        <ele>224.2</ele>
        <time>2022-04-21T13:27:50Z</time>
      </trkpt>
      <trkpt lat="50.23983" lon="4.3116">
        <ele>225.6</ele>
        <time>2022-04-21T13:27:55Z</time>
      </trkpt>
      <trkpt lat="50.2396" lon="4.31143">
        <ele>227</ele>
        <time>2022-04-21T13:28:01Z</time>
      </trkpt>
      <trkpt lat="50.23947" lon="4.31126">
        <ele>227.8</ele>
        <time>2022-04-21T13:28:05Z</time>
      </trkpt>
      <trkpt lat="50.23928" lon="4.31107">
        <ele>229</ele>
        <time>2022-04-21T13:28:10Z</time>
      </trkpt>
      <trkpt lat="50.2392" lon="4.31102">
        <ele>229.4</ele>
        <time>2022-04-21T13:28:12Z</time>
      </trkpt>
      <trkpt lat="50.23899" lon="4.31099">
        <ele>230.4</ele>
        <time>2022-04-21T13:28:17Z</time>
      </trkpt>
      <trkpt lat="50.23883" lon="4.31102">
        <ele>231.2</ele>
        <time>2022-04-21T13:28:21Z</time>
      </trkpt>
      <trkpt lat="50.23879" lon="4.31103">
        <ele>231.4</ele>
        <time>2022-04-21T13:28:22Z</time>
      </trkpt>
      <trkpt lat="50.23871" lon="4.31105">
        <ele>232</ele>
        <time>2022-04-21T13:28:24Z</time>
      </trkpt>
      <trkpt lat="50.23854" lon="4.31109">
        <ele>232.8</ele>
        <time>2022-04-21T13:28:28Z</time>
      </trkpt>
      <trkpt lat="50.23838" lon="4.31115">
        <ele>233.8</ele>
        <time>2022-04-21T13:28:33Z</time>
      </trkpt>
      <trkpt lat="50.23822" lon="4.3112">
        <ele>234.6</ele>
        <time>2022-04-21T13:28:37Z</time>
      </trkpt>
      <trkpt lat="50.238" lon="4.31118">
        <ele>235.4</ele>
        <time>2022-04-21T13:28:42Z</time>
      </trkpt>
      <trkpt lat="50.23784" lon="4.31102">
        <ele>236.2</ele>
        <time>2022-04-21T13:28:47Z</time>
      </trkpt>
      <trkpt lat="50.23769" lon="4.31084">
        <ele>236.6</ele>
        <time>2022-04-21T13:28:51Z</time>
      </trkpt>
      <trkpt lat="50.23762" lon="4.31067">
        <ele>237.2</ele>
        <time>2022-04-21T13:28:55Z</time>
      </trkpt>
      <trkpt lat="50.23758" lon="4.31049">
        <ele>238</ele>
        <time>2022-04-21T13:29:00Z</time>
      </trkpt>
      <trkpt lat="50.23757" lon="4.31043">
        <ele>239</ele>
        <time>2022-04-21T13:29:08Z</time>
      </trkpt>
      <trkpt lat="50.23752" lon="4.31018">
        <ele>239.6</ele>
        <time>2022-04-21T13:29:13Z</time>
      </trkpt>
      <trkpt lat="50.23743" lon="4.30985">
        <ele>240</ele>
        <time>2022-04-21T13:29:19Z</time>
      </trkpt>
      <trkpt lat="50.23734" lon="4.30956">
        <ele>240.4</ele>
        <time>2022-04-21T13:29:25Z</time>
      </trkpt>
      <trkpt lat="50.2373" lon="4.30928">
        <ele>240.6</ele>
        <time>2022-04-21T13:29:30Z</time>
      </trkpt>
      <trkpt lat="50.23727" lon="4.30904">
        <ele>240.8</ele>
        <time>2022-04-21T13:29:34Z</time>
      </trkpt>
      <trkpt lat="50.23726" lon="4.30886">
        <ele>241</ele>
        <time>2022-04-21T13:29:37Z</time>
      </trkpt>
      <trkpt lat="50.23722" lon="4.30845">
        <ele>241.2</ele>
        <time>2022-04-21T13:29:43Z</time>
      </trkpt>
      <trkpt lat="50.23717" lon="4.30793">
        <ele>241.4</ele>
        <time>2022-04-21T13:29:50Z</time>
      </trkpt>
      <trkpt lat="50.23712" lon="4.30736">
        <ele>241.4</ele>
        <time>2022-04-21T13:29:56Z</time>
      </trkpt>
      <trkpt lat="50.23705" lon="4.30657">
        <ele>241.4</ele>
        <time>2022-04-21T13:30:04Z</time>
      </trkpt>
      <trkpt lat="50.23697" lon="4.30579">
        <ele>241.2</ele>
        <time>2022-04-21T13:30:12Z</time>
      </trkpt>
      <trkpt lat="50.23691" lon="4.30531">
        <ele>241</ele>
        <time>2022-04-21T13:30:17Z</time>
      </trkpt>
      <trkpt lat="50.23687" lon="4.30482">
        <ele>240.8</ele>
        <time>2022-04-21T13:30:23Z</time>
      </trkpt>
      <trkpt lat="50.23682" lon="4.30415">
        <ele>240.6</ele>
        <time>2022-04-21T13:30:30Z</time>
      </trkpt>
      <trkpt lat="50.23674" lon="4.30339">
        <ele>240.4</ele>
        <time>2022-04-21T13:30:38Z</time>
      </trkpt>
      <trkpt lat="50.23668" lon="4.3025">
        <ele>240</ele>
        <time>2022-04-21T13:30:47Z</time>
      </trkpt>
      <trkpt lat="50.23668" lon="4.30222">
        <ele>239.8</ele>
        <time>2022-04-21T13:30:50Z</time>
      </trkpt>
      <trkpt lat="50.23666" lon="4.30206">
        <ele>239.6</ele>
        <time>2022-04-21T13:30:52Z</time>
      </trkpt>
      <trkpt lat="50.23663" lon="4.30173">
        <ele>239.6</ele>
        <time>2022-04-21T13:30:57Z</time>
      </trkpt>
      <trkpt lat="50.2366" lon="4.30138">
        <ele>239.4</ele>
        <time>2022-04-21T13:31:03Z</time>
      </trkpt>
      <trkpt lat="50.23654" lon="4.30112">
        <ele>239.2</ele>
        <time>2022-04-21T13:31:08Z</time>
      </trkpt>
      <trkpt lat="50.23652" lon="4.30084">
        <ele>239.2</ele>
        <time>2022-04-21T13:31:13Z</time>
      </trkpt>
      <trkpt lat="50.23651" lon="4.30081">
        <ele>239.4</ele>
        <time>2022-04-21T13:31:14Z</time>
      </trkpt>
      <trkpt lat="50.23649" lon="4.30083">
        <ele>239.4</ele>
        <time>2022-04-21T13:31:16Z</time>
      </trkpt>
      <trkpt lat="50.2365" lon="4.30088">
        <ele>239.2</ele>
        <time>2022-04-21T13:31:20Z</time>
      </trkpt>
      <trkpt lat="50.2365" lon="4.3009">
        <ele>239.2</ele>
        <time>2022-04-21T13:31:29Z</time>
      </trkpt>
      <trkpt lat="50.2365" lon="4.3009">
        <ele>239</ele>
        <time>2022-04-21T13:31:38Z</time>
      </trkpt>
      <trkpt lat="50.2365" lon="4.3009">
        <ele>239</ele>
        <time>2022-04-21T13:31:57Z</time>
      </trkpt>
      <trkpt lat="50.2365" lon="4.3009">
        <ele>239</ele>
        <time>2022-04-21T13:32:07Z</time>
      </trkpt>
      <trkpt lat="50.23651" lon="4.3009">
        <ele>238.8</ele>
        <time>2022-04-21T13:32:22Z</time>
      </trkpt>
      <trkpt lat="50.23652" lon="4.30087">
        <ele>238.8</ele>
        <time>2022-04-21T13:32:24Z</time>
      </trkpt>
      <trkpt lat="50.23652" lon="4.30079">
        <ele>238.8</ele>
        <time>2022-04-21T13:32:26Z</time>
      </trkpt>
      <trkpt lat="50.23648" lon="4.30051">
        <ele>238.8</ele>
        <time>2022-04-21T13:32:32Z</time>
      </trkpt>
      <trkpt lat="50.23643" lon="4.30018">
        <ele>239</ele>
        <time>2022-04-21T13:32:38Z</time>
      </trkpt>
      <trkpt lat="50.23636" lon="4.2998">
        <ele>239.2</ele>
        <time>2022-04-21T13:32:45Z</time>
      </trkpt>
      <trkpt lat="50.23634" lon="4.29974">
        <ele>239.2</ele>
        <time>2022-04-21T13:32:46Z</time>
      </trkpt>
      <trkpt lat="50.2363" lon="4.29963">
        <ele>239.2</ele>
        <time>2022-04-21T13:32:48Z</time>
      </trkpt>
      <trkpt lat="50.23624" lon="4.29953">
        <ele>239.4</ele>
        <time>2022-04-21T13:32:50Z</time>
      </trkpt>
      <trkpt lat="50.23621" lon="4.29948">
        <ele>239.4</ele>
        <time>2022-04-21T13:32:51Z</time>
      </trkpt>
      <trkpt lat="50.23602" lon="4.29922">
        <ele>239.4</ele>
        <time>2022-04-21T13:32:57Z</time>
      </trkpt>
      <trkpt lat="50.23569" lon="4.29885">
        <ele>239.6</ele>
        <time>2022-04-21T13:33:05Z</time>
      </trkpt>
      <trkpt lat="50.23522" lon="4.29834">
        <ele>239.8</ele>
        <time>2022-04-21T13:33:15Z</time>
      </trkpt>
      <trkpt lat="50.2351" lon="4.2982">
        <ele>239.8</ele>
        <time>2022-04-21T13:33:18Z</time>
      </trkpt>
      <trkpt lat="50.23508" lon="4.29814">
        <ele>239.6</ele>
        <time>2022-04-21T13:33:19Z</time>
      </trkpt>
      <trkpt lat="50.23508" lon="4.29807">
        <ele>239.6</ele>
        <time>2022-04-21T13:33:20Z</time>
      </trkpt>
      <trkpt lat="50.23513" lon="4.29795">
        <ele>239.8</ele>
        <time>2022-04-21T13:33:22Z</time>
      </trkpt>
      <trkpt lat="50.23522" lon="4.29775">
        <ele>239.6</ele>
        <time>2022-04-21T13:33:25Z</time>
      </trkpt>
      <trkpt lat="50.23529" lon="4.29753">
        <ele>239.8</ele>
        <time>2022-04-21T13:33:28Z</time>
      </trkpt>
      <trkpt lat="50.23542" lon="4.29695">
        <ele>239.8</ele>
        <time>2022-04-21T13:33:35Z</time>
      </trkpt>
      <trkpt lat="50.23547" lon="4.29631">
        <ele>240.4</ele>
        <time>2022-04-21T13:33:42Z</time>
      </trkpt>
      <trkpt lat="50.23548" lon="4.29553">
        <ele>240.4</ele>
        <time>2022-04-21T13:33:50Z</time>
      </trkpt>
      <trkpt lat="50.23551" lon="4.29482">
        <ele>240.4</ele>
        <time>2022-04-21T13:33:57Z</time>
      </trkpt>
      <trkpt lat="50.23559" lon="4.29405">
        <ele>240.4</ele>
        <time>2022-04-21T13:34:05Z</time>
      </trkpt>
      <trkpt lat="50.23561" lon="4.29396">
        <ele>240.6</ele>
        <time>2022-04-21T13:34:06Z</time>
      </trkpt>
      <trkpt lat="50.23575" lon="4.29351">
        <ele>240.2</ele>
        <time>2022-04-21T13:34:11Z</time>
      </trkpt>
      <trkpt lat="50.23596" lon="4.29281">
        <ele>240</ele>
        <time>2022-04-21T13:34:19Z</time>
      </trkpt>
      <trkpt lat="50.23615" lon="4.29212">
        <ele>239.6</ele>
        <time>2022-04-21T13:34:26Z</time>
      </trkpt>
      <trkpt lat="50.2364" lon="4.29134">
        <ele>239.2</ele>
        <time>2022-04-21T13:34:34Z</time>
      </trkpt>
      <trkpt lat="50.23664" lon="4.29055">
        <ele>239</ele>
        <time>2022-04-21T13:34:42Z</time>
      </trkpt>
      <trkpt lat="50.23667" lon="4.29045">
        <ele>239</ele>
        <time>2022-04-21T13:34:43Z</time>
      </trkpt>
      <trkpt lat="50.23687" lon="4.28967">
        <ele>238.4</ele>
        <time>2022-04-21T13:34:51Z</time>
      </trkpt>
      <trkpt lat="50.23689" lon="4.28957">
        <ele>238.4</ele>
        <time>2022-04-21T13:34:52Z</time>
      </trkpt>
      <trkpt lat="50.23697" lon="4.28921">
        <ele>238</ele>
        <time>2022-04-21T13:34:56Z</time>
      </trkpt>
      <trkpt lat="50.23711" lon="4.28866">
        <ele>237.6</ele>
        <time>2022-04-21T13:35:02Z</time>
      </trkpt>
      <trkpt lat="50.23728" lon="4.28802">
        <ele>237.2</ele>
        <time>2022-04-21T13:35:09Z</time>
      </trkpt>
      <trkpt lat="50.23731" lon="4.28753">
        <ele>237.2</ele>
        <time>2022-04-21T13:35:14Z</time>
      </trkpt>
      <trkpt lat="50.23722" lon="4.28695">
        <ele>236.8</ele>
        <time>2022-04-21T13:35:20Z</time>
      </trkpt>
      <trkpt lat="50.23709" lon="4.28611">
        <ele>236.8</ele>
        <time>2022-04-21T13:35:29Z</time>
      </trkpt>
      <trkpt lat="50.23708" lon="4.28601">
        <ele>236.8</ele>
        <time>2022-04-21T13:35:30Z</time>
      </trkpt>
      <trkpt lat="50.23701" lon="4.28533">
        <ele>236.8</ele>
        <time>2022-04-21T13:35:37Z</time>
      </trkpt>
      <trkpt lat="50.23691" lon="4.28445">
        <ele>237.2</ele>
        <time>2022-04-21T13:35:46Z</time>
      </trkpt>
      <trkpt lat="50.23683" lon="4.28367">
        <ele>237</ele>
        <time>2022-04-21T13:35:54Z</time>
      </trkpt>
      <trkpt lat="50.2368" lon="4.28299">
        <ele>237</ele>
        <time>2022-04-21T13:36:01Z</time>
      </trkpt>
      <trkpt lat="50.23684" lon="4.28211">
        <ele>237</ele>
        <time>2022-04-21T13:36:10Z</time>
      </trkpt>
      <trkpt lat="50.23685" lon="4.28201">
        <ele>237.2</ele>
        <time>2022-04-21T13:36:11Z</time>
      </trkpt>
      <trkpt lat="50.23688" lon="4.28153">
        <ele>237.2</ele>
        <time>2022-04-21T13:36:16Z</time>
      </trkpt>
      <trkpt lat="50.2369" lon="4.28124">
        <ele>237</ele>
        <time>2022-04-21T13:36:19Z</time>
      </trkpt>
      <trkpt lat="50.23697" lon="4.28046">
        <ele>237</ele>
        <time>2022-04-21T13:36:27Z</time>
      </trkpt>
      <trkpt lat="50.23698" lon="4.28017">
        <ele>237.2</ele>
        <time>2022-04-21T13:36:30Z</time>
      </trkpt>
      <trkpt lat="50.23696" lon="4.27999">
        <ele>237.2</ele>
        <time>2022-04-21T13:36:32Z</time>
      </trkpt>
      <trkpt lat="50.23691" lon="4.27983">
        <ele>237.2</ele>
        <time>2022-04-21T13:36:34Z</time>
      </trkpt>
      <trkpt lat="50.23687" lon="4.27976">
        <ele>237.2</ele>
        <time>2022-04-21T13:36:35Z</time>
      </trkpt>
      <trkpt lat="50.23683" lon="4.27971">
        <ele>237.2</ele>
        <time>2022-04-21T13:36:36Z</time>
      </trkpt>
      <trkpt lat="50.23669" lon="4.27958">
        <ele>237.2</ele>
        <time>2022-04-21T13:36:39Z</time>
      </trkpt>
      <trkpt lat="50.23657" lon="4.27943">
        <ele>237.4</ele>
        <time>2022-04-21T13:36:42Z</time>
      </trkpt>
      <trkpt lat="50.23649" lon="4.27929">
        <ele>237.4</ele>
        <time>2022-04-21T13:36:44Z</time>
      </trkpt>
      <trkpt lat="50.23646" lon="4.27921">
        <ele>237.6</ele>
        <time>2022-04-21T13:36:45Z</time>
      </trkpt>
      <trkpt lat="50.23643" lon="4.27911">
        <ele>237.6</ele>
        <time>2022-04-21T13:36:46Z</time>
      </trkpt>
      <trkpt lat="50.23638" lon="4.27882">
        <ele>237.4</ele>
        <time>2022-04-21T13:36:49Z</time>
      </trkpt>
      <trkpt lat="50.23627" lon="4.27814">
        <ele>237.4</ele>
        <time>2022-04-21T13:36:56Z</time>
      </trkpt>
      <trkpt lat="50.23614" lon="4.27746">
        <ele>237.2</ele>
        <time>2022-04-21T13:37:03Z</time>
      </trkpt>
      <trkpt lat="50.23607" lon="4.27682">
        <ele>237.2</ele>
        <time>2022-04-21T13:37:10Z</time>
      </trkpt>
      <trkpt lat="50.23609" lon="4.27613">
        <ele>236.8</ele>
        <time>2022-04-21T13:37:17Z</time>
      </trkpt>
      <trkpt lat="50.23617" lon="4.27554">
        <ele>236.6</ele>
        <time>2022-04-21T13:37:23Z</time>
      </trkpt>
      <trkpt lat="50.23627" lon="4.27502">
        <ele>236.4</ele>
        <time>2022-04-21T13:37:28Z</time>
      </trkpt>
      <trkpt lat="50.23627" lon="4.27491">
        <ele>236.2</ele>
        <time>2022-04-21T13:37:29Z</time>
      </trkpt>
      <trkpt lat="50.23626" lon="4.2748">
        <ele>236.2</ele>
        <time>2022-04-21T13:37:30Z</time>
      </trkpt>
      <trkpt lat="50.23621" lon="4.27445">
        <ele>235.8</ele>
        <time>2022-04-21T13:37:33Z</time>
      </trkpt>
      <trkpt lat="50.23607" lon="4.27393">
        <ele>235.2</ele>
        <time>2022-04-21T13:37:38Z</time>
      </trkpt>
      <trkpt lat="50.23608" lon="4.27379">
        <ele>234.8</ele>
        <time>2022-04-21T13:37:40Z</time>
      </trkpt>
      <trkpt lat="50.23612" lon="4.27374">
        <ele>234.8</ele>
        <time>2022-04-21T13:37:41Z</time>
      </trkpt>
      <trkpt lat="50.23616" lon="4.27371">
        <ele>234.6</ele>
        <time>2022-04-21T13:37:42Z</time>
      </trkpt>
      <trkpt lat="50.23631" lon="4.27362">
        <ele>234.2</ele>
        <time>2022-04-21T13:37:45Z</time>
      </trkpt>
      <trkpt lat="50.23659" lon="4.27342">
        <ele>234</ele>
        <time>2022-04-21T13:37:51Z</time>
      </trkpt>
      <trkpt lat="50.23687" lon="4.27315">
        <ele>233.6</ele>
        <time>2022-04-21T13:37:57Z</time>
      </trkpt>
      <trkpt lat="50.23716" lon="4.27296">
        <ele>233.4</ele>
        <time>2022-04-21T13:38:03Z</time>
      </trkpt>
      <trkpt lat="50.23726" lon="4.2729">
        <ele>233.2</ele>
        <time>2022-04-21T13:38:05Z</time>
      </trkpt>
      <trkpt lat="50.2374" lon="4.27281">
        <ele>233.2</ele>
        <time>2022-04-21T13:38:08Z</time>
      </trkpt>
      <trkpt lat="50.2378" lon="4.27257">
        <ele>233.2</ele>
        <time>2022-04-21T13:38:16Z</time>
      </trkpt>
      <trkpt lat="50.23808" lon="4.2723">
        <ele>233.2</ele>
        <time>2022-04-21T13:38:22Z</time>
      </trkpt>
      <trkpt lat="50.23829" lon="4.27191">
        <ele>233.6</ele>
        <time>2022-04-21T13:38:28Z</time>
      </trkpt>
      <trkpt lat="50.23842" lon="4.27142">
        <ele>233.6</ele>
        <time>2022-04-21T13:38:34Z</time>
      </trkpt>
      <trkpt lat="50.23856" lon="4.27081">
        <ele>233.8</ele>
        <time>2022-04-21T13:38:41Z</time>
      </trkpt>
      <trkpt lat="50.23862" lon="4.27062">
        <ele>233.6</ele>
        <time>2022-04-21T13:38:43Z</time>
      </trkpt>
      <trkpt lat="50.2387" lon="4.27046">
        <ele>233.6</ele>
        <time>2022-04-21T13:38:45Z</time>
      </trkpt>
      <trkpt lat="50.23875" lon="4.27038">
        <ele>233.6</ele>
        <time>2022-04-21T13:38:46Z</time>
      </trkpt>
      <trkpt lat="50.23886" lon="4.27025">
        <ele>233.6</ele>
        <time>2022-04-21T13:38:48Z</time>
      </trkpt>
      <trkpt lat="50.23892" lon="4.27019">
        <ele>233.6</ele>
        <time>2022-04-21T13:38:49Z</time>
      </trkpt>
      <trkpt lat="50.23935" lon="4.26991">
        <ele>233</ele>
        <time>2022-04-21T13:38:55Z</time>
      </trkpt>
      <trkpt lat="50.23976" lon="4.26961">
        <ele>232.6</ele>
        <time>2022-04-21T13:39:01Z</time>
      </trkpt>
      <trkpt lat="50.24024" lon="4.26924">
        <ele>231.6</ele>
        <time>2022-04-21T13:39:08Z</time>
      </trkpt>
      <trkpt lat="50.24031" lon="4.26918">
        <ele>231.6</ele>
        <time>2022-04-21T13:39:09Z</time>
      </trkpt>
      <trkpt lat="50.24067" lon="4.26883">
        <ele>230.8</ele>
        <time>2022-04-21T13:39:14Z</time>
      </trkpt>
      <trkpt lat="50.24091" lon="4.26848">
        <ele>230.4</ele>
        <time>2022-04-21T13:39:18Z</time>
      </trkpt>
      <trkpt lat="50.24094" lon="4.26825">
        <ele>230</ele>
        <time>2022-04-21T13:39:20Z</time>
      </trkpt>
      <trkpt lat="50.24088" lon="4.26793">
        <ele>229.8</ele>
        <time>2022-04-21T13:39:23Z</time>
      </trkpt>
      <trkpt lat="50.2408" lon="4.26745">
        <ele>229.6</ele>
        <time>2022-04-21T13:39:28Z</time>
      </trkpt>
      <trkpt lat="50.24068" lon="4.26671">
        <ele>229.2</ele>
        <time>2022-04-21T13:39:36Z</time>
      </trkpt>
      <trkpt lat="50.24064" lon="4.26643">
        <ele>229</ele>
        <time>2022-04-21T13:39:39Z</time>
      </trkpt>
      <trkpt lat="50.24059" lon="4.26626">
        <ele>228.8</ele>
        <time>2022-04-21T13:39:41Z</time>
      </trkpt>
      <trkpt lat="50.24047" lon="4.26563">
        <ele>228.6</ele>
        <time>2022-04-21T13:39:48Z</time>
      </trkpt>
      <trkpt lat="50.24035" lon="4.26509">
        <ele>228.6</ele>
        <time>2022-04-21T13:39:54Z</time>
      </trkpt>
      <trkpt lat="50.24033" lon="4.26492">
        <ele>228.6</ele>
        <time>2022-04-21T13:39:56Z</time>
      </trkpt>
      <trkpt lat="50.2402" lon="4.264">
        <ele>228.4</ele>
        <time>2022-04-21T13:40:06Z</time>
      </trkpt>
      <trkpt lat="50.24016" lon="4.26341">
        <ele>228.6</ele>
        <time>2022-04-21T13:40:12Z</time>
      </trkpt>
      <trkpt lat="50.24016" lon="4.26256">
        <ele>228.2</ele>
        <time>2022-04-21T13:40:20Z</time>
      </trkpt>
      <trkpt lat="50.24022" lon="4.26187">
        <ele>227.8</ele>
        <time>2022-04-21T13:40:27Z</time>
      </trkpt>
      <trkpt lat="50.24031" lon="4.26113">
        <ele>227.4</ele>
        <time>2022-04-21T13:40:34Z</time>
      </trkpt>
      <trkpt lat="50.2403" lon="4.26091">
        <ele>227.2</ele>
        <time>2022-04-21T13:40:36Z</time>
      </trkpt>
      <trkpt lat="50.24025" lon="4.2607">
        <ele>227</ele>
        <time>2022-04-21T13:40:38Z</time>
      </trkpt>
      <trkpt lat="50.24006" lon="4.25998">
        <ele>226.8</ele>
        <time>2022-04-21T13:40:45Z</time>
      </trkpt>
      <trkpt lat="50.23999" lon="4.25955">
        <ele>226.6</ele>
        <time>2022-04-21T13:40:49Z</time>
      </trkpt>
      <trkpt lat="50.23999" lon="4.25933">
        <ele>226.4</ele>
        <time>2022-04-21T13:40:51Z</time>
      </trkpt>
      <trkpt lat="50.24005" lon="4.25884">
        <ele>226.4</ele>
        <time>2022-04-21T13:40:56Z</time>
      </trkpt>
      <trkpt lat="50.24018" lon="4.25795">
        <ele>226.2</ele>
        <time>2022-04-21T13:41:06Z</time>
      </trkpt>
      <trkpt lat="50.24028" lon="4.25703">
        <ele>226.2</ele>
        <time>2022-04-21T13:41:16Z</time>
      </trkpt>
      <trkpt lat="50.24041" lon="4.25653">
        <ele>226.4</ele>
        <time>2022-04-21T13:41:22Z</time>
      </trkpt>
      <trkpt lat="50.24057" lon="4.25576">
        <ele>226.6</ele>
        <time>2022-04-21T13:41:31Z</time>
      </trkpt>
      <trkpt lat="50.2406" lon="4.25535">
        <ele>226.6</ele>
        <time>2022-04-21T13:41:36Z</time>
      </trkpt>
      <trkpt lat="50.24065" lon="4.25532">
        <ele>226.8</ele>
        <time>2022-04-21T13:41:38Z</time>
      </trkpt>
      <trkpt lat="50.24072" lon="4.25538">
        <ele>226.8</ele>
        <time>2022-04-21T13:41:43Z</time>
      </trkpt>
      <trkpt lat="50.24072" lon="4.25538">
        <ele>226.8</ele>
        <time>2022-04-21T13:41:52Z</time>
      </trkpt>
      <trkpt lat="50.24073" lon="4.25539">
        <ele>226.8</ele>
        <time>2022-04-21T13:41:58Z</time>
      </trkpt>
      <trkpt lat="50.24084" lon="4.25545">
        <ele>227</ele>
        <time>2022-04-21T13:42:03Z</time>
      </trkpt>
      <trkpt lat="50.24106" lon="4.25558">
        <ele>227</ele>
        <time>2022-04-21T13:42:09Z</time>
      </trkpt>
      <trkpt lat="50.24135" lon="4.25576">
        <ele>227.2</ele>
        <time>2022-04-21T13:42:16Z</time>
      </trkpt>
      <trkpt lat="50.2417" lon="4.25601">
        <ele>227.4</ele>
        <time>2022-04-21T13:42:24Z</time>
      </trkpt>
      <trkpt lat="50.24174" lon="4.25605">
        <ele>227.4</ele>
        <time>2022-04-21T13:42:25Z</time>
      </trkpt>
      <trkpt lat="50.24201" lon="4.25642">
        <ele>227.6</ele>
        <time>2022-04-21T13:42:32Z</time>
      </trkpt>
      <trkpt lat="50.24214" lon="4.25667">
        <ele>227.6</ele>
        <time>2022-04-21T13:42:36Z</time>
      </trkpt>
      <trkpt lat="50.24221" lon="4.25676">
        <ele>227.6</ele>
        <time>2022-04-21T13:42:38Z</time>
      </trkpt>
      <trkpt lat="50.24225" lon="4.25681">
        <ele>227.6</ele>
        <time>2022-04-21T13:42:39Z</time>
      </trkpt>
      <trkpt lat="50.24234" lon="4.25687">
        <ele>227.8</ele>
        <time>2022-04-21T13:42:41Z</time>
      </trkpt>
      <trkpt lat="50.24244" lon="4.25694">
        <ele>227.8</ele>
        <time>2022-04-21T13:42:43Z</time>
      </trkpt>
      <trkpt lat="50.24285" lon="4.25718">
        <ele>227.8</ele>
        <time>2022-04-21T13:42:51Z</time>
      </trkpt>
      <trkpt lat="50.24322" lon="4.25739">
        <ele>227.8</ele>
        <time>2022-04-21T13:42:58Z</time>
      </trkpt>
      <trkpt lat="50.24355" lon="4.25758">
        <ele>227.8</ele>
        <time>2022-04-21T13:43:04Z</time>
      </trkpt>
      <trkpt lat="50.24392" lon="4.25777">
        <ele>227.8</ele>
        <time>2022-04-21T13:43:11Z</time>
      </trkpt>
      <trkpt lat="50.24426" lon="4.25786">
        <ele>227.6</ele>
        <time>2022-04-21T13:43:17Z</time>
      </trkpt>
      <trkpt lat="50.24474" lon="4.25789">
        <ele>227.2</ele>
        <time>2022-04-21T13:43:25Z</time>
      </trkpt>
      <trkpt lat="50.24484" lon="4.25795">
        <ele>227.2</ele>
        <time>2022-04-21T13:43:27Z</time>
      </trkpt>
      <trkpt lat="50.24489" lon="4.25802">
        <ele>227.2</ele>
        <time>2022-04-21T13:43:28Z</time>
      </trkpt>
      <trkpt lat="50.24492" lon="4.25809">
        <ele>227</ele>
        <time>2022-04-21T13:43:29Z</time>
      </trkpt>
      <trkpt lat="50.24495" lon="4.25826">
        <ele>227</ele>
        <time>2022-04-21T13:43:31Z</time>
      </trkpt>
      <trkpt lat="50.24508" lon="4.25889">
        <ele>226.8</ele>
        <time>2022-04-21T13:43:39Z</time>
      </trkpt>
      <trkpt lat="50.24522" lon="4.25957">
        <ele>226.8</ele>
        <time>2022-04-21T13:43:48Z</time>
      </trkpt>
      <trkpt lat="50.24537" lon="4.26025">
        <ele>227</ele>
        <time>2022-04-21T13:43:57Z</time>
      </trkpt>
      <trkpt lat="50.24542" lon="4.26039">
        <ele>227.2</ele>
        <time>2022-04-21T13:43:59Z</time>
      </trkpt>
      <trkpt lat="50.24551" lon="4.26059">
        <ele>227</ele>
        <time>2022-04-21T13:44:02Z</time>
      </trkpt>
      <trkpt lat="50.24554" lon="4.26066">
        <ele>227.2</ele>
        <time>2022-04-21T13:44:03Z</time>
      </trkpt>
      <trkpt lat="50.24568" lon="4.26089">
        <ele>227.2</ele>
        <time>2022-04-21T13:44:07Z</time>
      </trkpt>
      <trkpt lat="50.24572" lon="4.26094">
        <ele>227.2</ele>
        <time>2022-04-21T13:44:08Z</time>
      </trkpt>
      <trkpt lat="50.24604" lon="4.26136">
        <ele>227.2</ele>
        <time>2022-04-21T13:44:15Z</time>
      </trkpt>
      <trkpt lat="50.24643" lon="4.26178">
        <ele>227</ele>
        <time>2022-04-21T13:44:23Z</time>
      </trkpt>
      <trkpt lat="50.2467" lon="4.262">
        <ele>226.8</ele>
        <time>2022-04-21T13:44:28Z</time>
      </trkpt>
      <trkpt lat="50.24709" lon="4.26218">
        <ele>226.4</ele>
        <time>2022-04-21T13:44:35Z</time>
      </trkpt>
      <trkpt lat="50.24736" lon="4.26234">
        <ele>226</ele>
        <time>2022-04-21T13:44:41Z</time>
      </trkpt>
      <trkpt lat="50.24754" lon="4.26241">
        <ele>225.6</ele>
        <time>2022-04-21T13:44:46Z</time>
      </trkpt>
      <trkpt lat="50.24759" lon="4.26232">
        <ele>225.4</ele>
        <time>2022-04-21T13:44:48Z</time>
      </trkpt>
      <trkpt lat="50.24762" lon="4.26226">
        <ele>225.4</ele>
        <time>2022-04-21T13:44:49Z</time>
      </trkpt>
      <trkpt lat="50.24765" lon="4.2622">
        <ele>225.2</ele>
        <time>2022-04-21T13:44:50Z</time>
      </trkpt>
      <trkpt lat="50.24778" lon="4.26196">
        <ele>225.2</ele>
        <time>2022-04-21T13:44:54Z</time>
      </trkpt>
      <trkpt lat="50.24802" lon="4.26153">
        <ele>224.8</ele>
        <time>2022-04-21T13:45:01Z</time>
      </trkpt>
      <trkpt lat="50.24811" lon="4.26141">
        <ele>224.6</ele>
        <time>2022-04-21T13:45:03Z</time>
      </trkpt>
      <trkpt lat="50.24826" lon="4.26127">
        <ele>224.4</ele>
        <time>2022-04-21T13:45:06Z</time>
      </trkpt>
      <trkpt lat="50.24837" lon="4.26122">
        <ele>224.2</ele>
        <time>2022-04-21T13:45:08Z</time>
      </trkpt>
      <trkpt lat="50.24855" lon="4.2612">
        <ele>223.8</ele>
        <time>2022-04-21T13:45:11Z</time>
      </trkpt>
      <trkpt lat="50.24883" lon="4.26113">
        <ele>223.4</ele>
        <time>2022-04-21T13:45:16Z</time>
      </trkpt>
      <trkpt lat="50.24887" lon="4.2611">
        <ele>223.2</ele>
        <time>2022-04-21T13:45:17Z</time>
      </trkpt>
      <trkpt lat="50.24903" lon="4.26099">
        <ele>222.8</ele>
        <time>2022-04-21T13:45:21Z</time>
      </trkpt>
      <trkpt lat="50.24906" lon="4.261">
        <ele>222.8</ele>
        <time>2022-04-21T13:45:22Z</time>
      </trkpt>
      <trkpt lat="50.24911" lon="4.26109">
        <ele>222.6</ele>
        <time>2022-04-21T13:45:24Z</time>
      </trkpt>
      <trkpt lat="50.24929" lon="4.26144">
        <ele>222</ele>
        <time>2022-04-21T13:45:29Z</time>
      </trkpt>
      <trkpt lat="50.24932" lon="4.26152">
        <ele>221.8</ele>
        <time>2022-04-21T13:45:30Z</time>
      </trkpt>
      <trkpt lat="50.24944" lon="4.26174">
        <ele>221.4</ele>
        <time>2022-04-21T13:45:33Z</time>
      </trkpt>
      <trkpt lat="50.24974" lon="4.26227">
        <ele>220.8</ele>
        <time>2022-04-21T13:45:40Z</time>
      </trkpt>
      <trkpt lat="50.25007" lon="4.26288">
        <ele>220</ele>
        <time>2022-04-21T13:45:48Z</time>
      </trkpt>
      <trkpt lat="50.25036" lon="4.26343">
        <ele>219.2</ele>
        <time>2022-04-21T13:45:55Z</time>
      </trkpt>
      <trkpt lat="50.25062" lon="4.26389">
        <ele>218.4</ele>
        <time>2022-04-21T13:46:01Z</time>
      </trkpt>
      <trkpt lat="50.25099" lon="4.26457">
        <ele>217.2</ele>
        <time>2022-04-21T13:46:10Z</time>
      </trkpt>
      <trkpt lat="50.25127" lon="4.26509">
        <ele>216.2</ele>
        <time>2022-04-21T13:46:17Z</time>
      </trkpt>
      <trkpt lat="50.25163" lon="4.26577">
        <ele>215.2</ele>
        <time>2022-04-21T13:46:26Z</time>
      </trkpt>
      <trkpt lat="50.252" lon="4.26647">
        <ele>214.4</ele>
        <time>2022-04-21T13:46:35Z</time>
      </trkpt>
      <trkpt lat="50.25204" lon="4.26655">
        <ele>214.4</ele>
        <time>2022-04-21T13:46:36Z</time>
      </trkpt>
      <trkpt lat="50.25233" lon="4.26708">
        <ele>214</ele>
        <time>2022-04-21T13:46:43Z</time>
      </trkpt>
      <trkpt lat="50.25246" lon="4.2673">
        <ele>213.8</ele>
        <time>2022-04-21T13:46:46Z</time>
      </trkpt>
      <trkpt lat="50.25258" lon="4.26754">
        <ele>213.6</ele>
        <time>2022-04-21T13:46:49Z</time>
      </trkpt>
      <trkpt lat="50.25294" lon="4.26824">
        <ele>213.2</ele>
        <time>2022-04-21T13:46:58Z</time>
      </trkpt>
      <trkpt lat="50.2533" lon="4.26893">
        <ele>212.6</ele>
        <time>2022-04-21T13:47:07Z</time>
      </trkpt>
      <trkpt lat="50.25342" lon="4.2692">
        <ele>212.4</ele>
        <time>2022-04-21T13:47:11Z</time>
      </trkpt>
      <trkpt lat="50.25344" lon="4.26935">
        <ele>212.2</ele>
        <time>2022-04-21T13:47:13Z</time>
      </trkpt>
      <trkpt lat="50.25345" lon="4.26952">
        <ele>212.2</ele>
        <time>2022-04-21T13:47:15Z</time>
      </trkpt>
      <trkpt lat="50.25352" lon="4.26968">
        <ele>212</ele>
        <time>2022-04-21T13:47:17Z</time>
      </trkpt>
      <trkpt lat="50.25389" lon="4.27021">
        <ele>211.6</ele>
        <time>2022-04-21T13:47:25Z</time>
      </trkpt>
      <trkpt lat="50.25413" lon="4.27068">
        <ele>211.4</ele>
        <time>2022-04-21T13:47:31Z</time>
      </trkpt>
      <trkpt lat="50.25435" lon="4.27117">
        <ele>210.8</ele>
        <time>2022-04-21T13:47:37Z</time>
      </trkpt>
      <trkpt lat="50.25463" lon="4.27177">
        <ele>210</ele>
        <time>2022-04-21T13:47:44Z</time>
      </trkpt>
      <trkpt lat="50.25475" lon="4.27203">
        <ele>209.8</ele>
        <time>2022-04-21T13:47:47Z</time>
      </trkpt>
      <trkpt lat="50.25482" lon="4.2722">
        <ele>209.6</ele>
        <time>2022-04-21T13:47:49Z</time>
      </trkpt>
      <trkpt lat="50.25505" lon="4.2727">
        <ele>208.6</ele>
        <time>2022-04-21T13:47:55Z</time>
      </trkpt>
      <trkpt lat="50.25525" lon="4.27309">
        <ele>207.8</ele>
        <time>2022-04-21T13:48:00Z</time>
      </trkpt>
      <trkpt lat="50.25543" lon="4.27349">
        <ele>207</ele>
        <time>2022-04-21T13:48:05Z</time>
      </trkpt>
      <trkpt lat="50.25573" lon="4.27414">
        <ele>206</ele>
        <time>2022-04-21T13:48:13Z</time>
      </trkpt>
      <trkpt lat="50.25594" lon="4.27454">
        <ele>205.4</ele>
        <time>2022-04-21T13:48:19Z</time>
      </trkpt>
      <trkpt lat="50.25596" lon="4.2746">
        <ele>205.4</ele>
        <time>2022-04-21T13:48:20Z</time>
      </trkpt>
      <trkpt lat="50.256" lon="4.27472">
        <ele>205.2</ele>
        <time>2022-04-21T13:48:22Z</time>
      </trkpt>
      <trkpt lat="50.25603" lon="4.27477">
        <ele>205.2</ele>
        <time>2022-04-21T13:48:23Z</time>
      </trkpt>
      <trkpt lat="50.25609" lon="4.2749">
        <ele>205</ele>
        <time>2022-04-21T13:48:25Z</time>
      </trkpt>
      <trkpt lat="50.25612" lon="4.27498">
        <ele>205</ele>
        <time>2022-04-21T13:48:26Z</time>
      </trkpt>
      <trkpt lat="50.25615" lon="4.27505">
        <ele>205</ele>
        <time>2022-04-21T13:48:27Z</time>
      </trkpt>
      <trkpt lat="50.25626" lon="4.27525">
        <ele>204.6</ele>
        <time>2022-04-21T13:48:30Z</time>
      </trkpt>
      <trkpt lat="50.25654" lon="4.27578">
        <ele>204.2</ele>
        <time>2022-04-21T13:48:37Z</time>
      </trkpt>
      <trkpt lat="50.25684" lon="4.27642">
        <ele>203.8</ele>
        <time>2022-04-21T13:48:45Z</time>
      </trkpt>
      <trkpt lat="50.25707" lon="4.2769">
        <ele>203.6</ele>
        <time>2022-04-21T13:48:51Z</time>
      </trkpt>
      <trkpt lat="50.25733" lon="4.27746">
        <ele>203.2</ele>
        <time>2022-04-21T13:48:58Z</time>
      </trkpt>
      <trkpt lat="50.25766" lon="4.27819">
        <ele>202.8</ele>
        <time>2022-04-21T13:49:07Z</time>
      </trkpt>
      <trkpt lat="50.25796" lon="4.27882">
        <ele>202.4</ele>
        <time>2022-04-21T13:49:15Z</time>
      </trkpt>
      <trkpt lat="50.25826" lon="4.27945">
        <ele>202</ele>
        <time>2022-04-21T13:49:23Z</time>
      </trkpt>
      <trkpt lat="50.25859" lon="4.28016">
        <ele>201.6</ele>
        <time>2022-04-21T13:49:32Z</time>
      </trkpt>
      <trkpt lat="50.25886" lon="4.28073">
        <ele>201</ele>
        <time>2022-04-21T13:49:39Z</time>
      </trkpt>
      <trkpt lat="50.25918" lon="4.28141">
        <ele>200.6</ele>
        <time>2022-04-21T13:49:47Z</time>
      </trkpt>
      <trkpt lat="50.25947" lon="4.28205">
        <ele>200</ele>
        <time>2022-04-21T13:49:55Z</time>
      </trkpt>
      <trkpt lat="50.25966" lon="4.28247">
        <ele>199.4</ele>
        <time>2022-04-21T13:50:01Z</time>
      </trkpt>
      <trkpt lat="50.25969" lon="4.28253">
        <ele>199.2</ele>
        <time>2022-04-21T13:50:02Z</time>
      </trkpt>
      <trkpt lat="50.25979" lon="4.28274">
        <ele>199</ele>
        <time>2022-04-21T13:50:05Z</time>
      </trkpt>
      <trkpt lat="50.25999" lon="4.28321">
        <ele>198</ele>
        <time>2022-04-21T13:50:11Z</time>
      </trkpt>
      <trkpt lat="50.26013" lon="4.28348">
        <ele>197.2</ele>
        <time>2022-04-21T13:50:15Z</time>
      </trkpt>
      <trkpt lat="50.26033" lon="4.28389">
        <ele>196.6</ele>
        <time>2022-04-21T13:50:20Z</time>
      </trkpt>
      <trkpt lat="50.26059" lon="4.28441">
        <ele>195.8</ele>
        <time>2022-04-21T13:50:26Z</time>
      </trkpt>
      <trkpt lat="50.2608" lon="4.28486">
        <ele>195</ele>
        <time>2022-04-21T13:50:31Z</time>
      </trkpt>
      <trkpt lat="50.26107" lon="4.28542">
        <ele>194</ele>
        <time>2022-04-21T13:50:37Z</time>
      </trkpt>
      <trkpt lat="50.26131" lon="4.28594">
        <ele>192.6</ele>
        <time>2022-04-21T13:50:43Z</time>
      </trkpt>
      <trkpt lat="50.26155" lon="4.28643">
        <ele>191</ele>
        <time>2022-04-21T13:50:49Z</time>
      </trkpt>
      <trkpt lat="50.26175" lon="4.28684">
        <ele>189.4</ele>
        <time>2022-04-21T13:50:54Z</time>
      </trkpt>
      <trkpt lat="50.2618" lon="4.28691">
        <ele>189</ele>
        <time>2022-04-21T13:50:55Z</time>
      </trkpt>
      <trkpt lat="50.26207" lon="4.2875">
        <ele>186.8</ele>
        <time>2022-04-21T13:51:02Z</time>
      </trkpt>
      <trkpt lat="50.26226" lon="4.28789">
        <ele>185.2</ele>
        <time>2022-04-21T13:51:07Z</time>
      </trkpt>
      <trkpt lat="50.26252" lon="4.28848">
        <ele>183</ele>
        <time>2022-04-21T13:51:14Z</time>
      </trkpt>
      <trkpt lat="50.26273" lon="4.28894">
        <ele>181.6</ele>
        <time>2022-04-21T13:51:20Z</time>
      </trkpt>
      <trkpt lat="50.263" lon="4.28951">
        <ele>179.4</ele>
        <time>2022-04-21T13:51:27Z</time>
      </trkpt>
      <trkpt lat="50.26322" lon="4.29">
        <ele>178.2</ele>
        <time>2022-04-21T13:51:33Z</time>
      </trkpt>
      <trkpt lat="50.26345" lon="4.29054">
        <ele>177.2</ele>
        <time>2022-04-21T13:51:40Z</time>
      </trkpt>
      <trkpt lat="50.26368" lon="4.29102">
        <ele>175.6</ele>
        <time>2022-04-21T13:51:46Z</time>
      </trkpt>
      <trkpt lat="50.26384" lon="4.29136">
        <ele>174.4</ele>
        <time>2022-04-21T13:51:50Z</time>
      </trkpt>
      <trkpt lat="50.26392" lon="4.29153">
        <ele>173.8</ele>
        <time>2022-04-21T13:51:52Z</time>
      </trkpt>
      <trkpt lat="50.26409" lon="4.29188">
        <ele>172.6</ele>
        <time>2022-04-21T13:51:56Z</time>
      </trkpt>
      <trkpt lat="50.26429" lon="4.29228">
        <ele>171</ele>
        <time>2022-04-21T13:52:01Z</time>
      </trkpt>
      <trkpt lat="50.26444" lon="4.29258">
        <ele>169.8</ele>
        <time>2022-04-21T13:52:05Z</time>
      </trkpt>
      <trkpt lat="50.26447" lon="4.29265">
        <ele>169.6</ele>
        <time>2022-04-21T13:52:06Z</time>
      </trkpt>
      <trkpt lat="50.26454" lon="4.29281">
        <ele>168.8</ele>
        <time>2022-04-21T13:52:08Z</time>
      </trkpt>
      <trkpt lat="50.2647" lon="4.29313">
        <ele>167.6</ele>
        <time>2022-04-21T13:52:12Z</time>
      </trkpt>
      <trkpt lat="50.26478" lon="4.29331">
        <ele>167.2</ele>
        <time>2022-04-21T13:52:14Z</time>
      </trkpt>
      <trkpt lat="50.26486" lon="4.29348">
        <ele>166.6</ele>
        <time>2022-04-21T13:52:16Z</time>
      </trkpt>
      <trkpt lat="50.2649" lon="4.29355">
        <ele>166.6</ele>
        <time>2022-04-21T13:52:17Z</time>
      </trkpt>
      <trkpt lat="50.2651" lon="4.294">
        <ele>165.8</ele>
        <time>2022-04-21T13:52:22Z</time>
      </trkpt>
      <trkpt lat="50.26534" lon="4.29452">
        <ele>165</ele>
        <time>2022-04-21T13:52:28Z</time>
      </trkpt>
      <trkpt lat="50.2656" lon="4.29506">
        <ele>165.4</ele>
        <time>2022-04-21T13:52:34Z</time>
      </trkpt>
      <trkpt lat="50.26587" lon="4.29561">
        <ele>166.4</ele>
        <time>2022-04-21T13:52:40Z</time>
      </trkpt>
      <trkpt lat="50.2661" lon="4.29606">
        <ele>167.2</ele>
        <time>2022-04-21T13:52:45Z</time>
      </trkpt>
      <trkpt lat="50.26638" lon="4.29665">
        <ele>167.6</ele>
        <time>2022-04-21T13:52:52Z</time>
      </trkpt>
      <trkpt lat="50.26665" lon="4.29725">
        <ele>168.2</ele>
        <time>2022-04-21T13:52:59Z</time>
      </trkpt>
      <trkpt lat="50.26673" lon="4.29742">
        <ele>168.4</ele>
        <time>2022-04-21T13:53:01Z</time>
      </trkpt>
      <trkpt lat="50.26684" lon="4.29765">
        <ele>168.8</ele>
        <time>2022-04-21T13:53:04Z</time>
      </trkpt>
      <trkpt lat="50.26699" lon="4.29798">
        <ele>169.2</ele>
        <time>2022-04-21T13:53:08Z</time>
      </trkpt>
      <trkpt lat="50.26706" lon="4.29814">
        <ele>169.4</ele>
        <time>2022-04-21T13:53:10Z</time>
      </trkpt>
      <trkpt lat="50.26727" lon="4.29855">
        <ele>169.8</ele>
        <time>2022-04-21T13:53:15Z</time>
      </trkpt>
      <trkpt lat="50.26745" lon="4.29894">
        <ele>170</ele>
        <time>2022-04-21T13:53:20Z</time>
      </trkpt>
      <trkpt lat="50.26747" lon="4.299">
        <ele>170</ele>
        <time>2022-04-21T13:53:21Z</time>
      </trkpt>
      <trkpt lat="50.26762" lon="4.29928">
        <ele>170</ele>
        <time>2022-04-21T13:53:25Z</time>
      </trkpt>
      <trkpt lat="50.26769" lon="4.29942">
        <ele>170</ele>
        <time>2022-04-21T13:53:27Z</time>
      </trkpt>
      <trkpt lat="50.26779" lon="4.29963">
        <ele>170</ele>
        <time>2022-04-21T13:53:30Z</time>
      </trkpt>
      <trkpt lat="50.268" lon="4.30009">
        <ele>170</ele>
        <time>2022-04-21T13:53:36Z</time>
      </trkpt>
      <trkpt lat="50.26807" lon="4.30023">
        <ele>170</ele>
        <time>2022-04-21T13:53:38Z</time>
      </trkpt>
      <trkpt lat="50.26815" lon="4.30028">
        <ele>170.2</ele>
        <time>2022-04-21T13:53:40Z</time>
      </trkpt>
      <trkpt lat="50.26823" lon="4.30035">
        <ele>170.2</ele>
        <time>2022-04-21T13:53:42Z</time>
      </trkpt>
      <trkpt lat="50.26826" lon="4.3004">
        <ele>170.2</ele>
        <time>2022-04-21T13:53:43Z</time>
      </trkpt>
      <trkpt lat="50.26836" lon="4.30051">
        <ele>170.2</ele>
        <time>2022-04-21T13:53:46Z</time>
      </trkpt>
      <trkpt lat="50.26841" lon="4.30056">
        <ele>170.2</ele>
        <time>2022-04-21T13:53:47Z</time>
      </trkpt>
      <trkpt lat="50.26865" lon="4.30085">
        <ele>170.2</ele>
        <time>2022-04-21T13:53:52Z</time>
      </trkpt>
      <trkpt lat="50.26902" lon="4.30132">
        <ele>169.8</ele>
        <time>2022-04-21T13:54:00Z</time>
      </trkpt>
      <trkpt lat="50.26947" lon="4.30189">
        <ele>169.4</ele>
        <time>2022-04-21T13:54:10Z</time>
      </trkpt>
      <trkpt lat="50.26978" lon="4.30229">
        <ele>169</ele>
        <time>2022-04-21T13:54:17Z</time>
      </trkpt>
      <trkpt lat="50.27005" lon="4.30262">
        <ele>168.4</ele>
        <time>2022-04-21T13:54:23Z</time>
      </trkpt>
      <trkpt lat="50.27044" lon="4.30309">
        <ele>168</ele>
        <time>2022-04-21T13:54:31Z</time>
      </trkpt>
      <trkpt lat="50.27052" lon="4.3032">
        <ele>167.8</ele>
        <time>2022-04-21T13:54:33Z</time>
      </trkpt>
      <trkpt lat="50.27061" lon="4.30329">
        <ele>167.6</ele>
        <time>2022-04-21T13:54:35Z</time>
      </trkpt>
      <trkpt lat="50.27087" lon="4.30362">
        <ele>167.6</ele>
        <time>2022-04-21T13:54:41Z</time>
      </trkpt>
      <trkpt lat="50.27113" lon="4.30395">
        <ele>167.2</ele>
        <time>2022-04-21T13:54:48Z</time>
      </trkpt>
      <trkpt lat="50.27127" lon="4.30405">
        <ele>168.2</ele>
        <time>2022-04-21T13:54:52Z</time>
      </trkpt>
      <trkpt lat="50.27131" lon="4.30412">
        <ele>168.2</ele>
        <time>2022-04-21T13:54:54Z</time>
      </trkpt>
      <trkpt lat="50.27131" lon="4.30417">
        <ele>168.2</ele>
        <time>2022-04-21T13:54:55Z</time>
      </trkpt>
      <trkpt lat="50.27134" lon="4.30427">
        <ele>168</ele>
        <time>2022-04-21T13:54:58Z</time>
      </trkpt>
      <trkpt lat="50.27135" lon="4.30429">
        <ele>168</ele>
        <time>2022-04-21T13:54:59Z</time>
      </trkpt>
      <trkpt lat="50.27142" lon="4.30439">
        <ele>168</ele>
        <time>2022-04-21T13:55:02Z</time>
      </trkpt>
      <trkpt lat="50.27149" lon="4.30455">
        <ele>168.2</ele>
        <time>2022-04-21T13:55:05Z</time>
      </trkpt>
      <trkpt lat="50.27152" lon="4.3046">
        <ele>168.2</ele>
        <time>2022-04-21T13:55:06Z</time>
      </trkpt>
      <trkpt lat="50.27175" lon="4.30488">
        <ele>168.2</ele>
        <time>2022-04-21T13:55:11Z</time>
      </trkpt>
      <trkpt lat="50.27184" lon="4.30498">
        <ele>168.4</ele>
        <time>2022-04-21T13:55:13Z</time>
      </trkpt>
      <trkpt lat="50.27201" lon="4.30508">
        <ele>168.4</ele>
        <time>2022-04-21T13:55:16Z</time>
      </trkpt>
      <trkpt lat="50.27206" lon="4.30512">
        <ele>168.4</ele>
        <time>2022-04-21T13:55:17Z</time>
      </trkpt>
      <trkpt lat="50.27216" lon="4.30523">
        <ele>168.4</ele>
        <time>2022-04-21T13:55:19Z</time>
      </trkpt>
      <trkpt lat="50.27234" lon="4.30546">
        <ele>168.6</ele>
        <time>2022-04-21T13:55:23Z</time>
      </trkpt>
      <trkpt lat="50.27243" lon="4.30559">
        <ele>168.6</ele>
        <time>2022-04-21T13:55:25Z</time>
      </trkpt>
      <trkpt lat="50.27282" lon="4.30606">
        <ele>169</ele>
        <time>2022-04-21T13:55:33Z</time>
      </trkpt>
      <trkpt lat="50.27302" lon="4.3063">
        <ele>169</ele>
        <time>2022-04-21T13:55:37Z</time>
      </trkpt>
      <trkpt lat="50.27311" lon="4.30642">
        <ele>169</ele>
        <time>2022-04-21T13:55:39Z</time>
      </trkpt>
      <trkpt lat="50.27355" lon="4.30697">
        <ele>169</ele>
        <time>2022-04-21T13:55:48Z</time>
      </trkpt>
      <trkpt lat="50.27369" lon="4.30715">
        <ele>169</ele>
        <time>2022-04-21T13:55:51Z</time>
      </trkpt>
      <trkpt lat="50.27402" lon="4.30758">
        <ele>169.2</ele>
        <time>2022-04-21T13:55:58Z</time>
      </trkpt>
      <trkpt lat="50.27444" lon="4.30813">
        <ele>169.6</ele>
        <time>2022-04-21T13:56:07Z</time>
      </trkpt>
      <trkpt lat="50.27449" lon="4.30819">
        <ele>169.6</ele>
        <time>2022-04-21T13:56:08Z</time>
      </trkpt>
      <trkpt lat="50.27487" lon="4.30866">
        <ele>169.6</ele>
        <time>2022-04-21T13:56:16Z</time>
      </trkpt>
      <trkpt lat="50.27524" lon="4.30912">
        <ele>169.6</ele>
        <time>2022-04-21T13:56:24Z</time>
      </trkpt>
      <trkpt lat="50.27549" lon="4.30946">
        <ele>169.8</ele>
        <time>2022-04-21T13:56:30Z</time>
      </trkpt>
      <trkpt lat="50.27583" lon="4.30995">
        <ele>169.8</ele>
        <time>2022-04-21T13:56:38Z</time>
      </trkpt>
      <trkpt lat="50.27605" lon="4.31022">
        <ele>169.8</ele>
        <time>2022-04-21T13:56:43Z</time>
      </trkpt>
      <trkpt lat="50.27609" lon="4.31027">
        <ele>169.8</ele>
        <time>2022-04-21T13:56:44Z</time>
      </trkpt>
      <trkpt lat="50.27617" lon="4.31035">
        <ele>169.8</ele>
        <time>2022-04-21T13:56:46Z</time>
      </trkpt>
      <trkpt lat="50.27623" lon="4.31045">
        <ele>169.6</ele>
        <time>2022-04-21T13:56:48Z</time>
      </trkpt>
      <trkpt lat="50.27637" lon="4.3107">
        <ele>169.6</ele>
        <time>2022-04-21T13:56:52Z</time>
      </trkpt>
      <trkpt lat="50.27663" lon="4.3111">
        <ele>169.4</ele>
        <time>2022-04-21T13:56:58Z</time>
      </trkpt>
      <trkpt lat="50.27676" lon="4.31129">
        <ele>169.2</ele>
        <time>2022-04-21T13:57:01Z</time>
      </trkpt>
      <trkpt lat="50.27684" lon="4.31142">
        <ele>169.2</ele>
        <time>2022-04-21T13:57:03Z</time>
      </trkpt>
      <trkpt lat="50.27704" lon="4.31173">
        <ele>169</ele>
        <time>2022-04-21T13:57:08Z</time>
      </trkpt>
      <trkpt lat="50.27729" lon="4.31213">
        <ele>168.8</ele>
        <time>2022-04-21T13:57:14Z</time>
      </trkpt>
      <trkpt lat="50.27769" lon="4.31273">
        <ele>168.4</ele>
        <time>2022-04-21T13:57:23Z</time>
      </trkpt>
      <trkpt lat="50.27799" lon="4.3132">
        <ele>168</ele>
        <time>2022-04-21T13:57:30Z</time>
      </trkpt>
      <trkpt lat="50.27803" lon="4.31327">
        <ele>168</ele>
        <time>2022-04-21T13:57:31Z</time>
      </trkpt>
      <trkpt lat="50.27833" lon="4.3137">
        <ele>167.4</ele>
        <time>2022-04-21T13:57:38Z</time>
      </trkpt>
      <trkpt lat="50.27841" lon="4.31383">
        <ele>167.2</ele>
        <time>2022-04-21T13:57:40Z</time>
      </trkpt>
      <trkpt lat="50.27846" lon="4.31388">
        <ele>167</ele>
        <time>2022-04-21T13:57:41Z</time>
      </trkpt>
      <trkpt lat="50.2785" lon="4.31394">
        <ele>166.8</ele>
        <time>2022-04-21T13:57:42Z</time>
      </trkpt>
      <trkpt lat="50.27857" lon="4.31405">
        <ele>166.2</ele>
        <time>2022-04-21T13:57:44Z</time>
      </trkpt>
      <trkpt lat="50.27861" lon="4.31411">
        <ele>166</ele>
        <time>2022-04-21T13:57:45Z</time>
      </trkpt>
      <trkpt lat="50.2788" lon="4.31438">
        <ele>165.6</ele>
        <time>2022-04-21T13:57:50Z</time>
      </trkpt>
      <trkpt lat="50.27888" lon="4.31446">
        <ele>165.6</ele>
        <time>2022-04-21T13:57:52Z</time>
      </trkpt>
      <trkpt lat="50.27893" lon="4.31455">
        <ele>165.6</ele>
        <time>2022-04-21T13:57:54Z</time>
      </trkpt>
      <trkpt lat="50.27899" lon="4.31464">
        <ele>165.4</ele>
        <time>2022-04-21T13:57:56Z</time>
      </trkpt>
      <trkpt lat="50.27906" lon="4.31476">
        <ele>165.4</ele>
        <time>2022-04-21T13:57:58Z</time>
      </trkpt>
      <trkpt lat="50.27932" lon="4.31518">
        <ele>165.2</ele>
        <time>2022-04-21T13:58:04Z</time>
      </trkpt>
      <trkpt lat="50.27953" lon="4.31552">
        <ele>165</ele>
        <time>2022-04-21T13:58:09Z</time>
      </trkpt>
      <trkpt lat="50.27989" lon="4.31605">
        <ele>164.4</ele>
        <time>2022-04-21T13:58:17Z</time>
      </trkpt>
      <trkpt lat="50.28024" lon="4.31658">
        <ele>164.2</ele>
        <time>2022-04-21T13:58:25Z</time>
      </trkpt>
      <trkpt lat="50.28043" lon="4.31686">
        <ele>164</ele>
        <time>2022-04-21T13:58:30Z</time>
      </trkpt>
      <trkpt lat="50.28047" lon="4.3169">
        <ele>163.8</ele>
        <time>2022-04-21T13:58:31Z</time>
      </trkpt>
      <trkpt lat="50.28053" lon="4.31699">
        <ele>163.6</ele>
        <time>2022-04-21T13:58:33Z</time>
      </trkpt>
      <trkpt lat="50.28055" lon="4.31706">
        <ele>163.6</ele>
        <time>2022-04-21T13:58:34Z</time>
      </trkpt>
      <trkpt lat="50.28058" lon="4.31713">
        <ele>163.6</ele>
        <time>2022-04-21T13:58:35Z</time>
      </trkpt>
      <trkpt lat="50.28066" lon="4.31725">
        <ele>163.6</ele>
        <time>2022-04-21T13:58:37Z</time>
      </trkpt>
      <trkpt lat="50.28097" lon="4.3177">
        <ele>163.4</ele>
        <time>2022-04-21T13:58:44Z</time>
      </trkpt>
      <trkpt lat="50.28127" lon="4.31817">
        <ele>163</ele>
        <time>2022-04-21T13:58:51Z</time>
      </trkpt>
      <trkpt lat="50.28165" lon="4.31876">
        <ele>162.8</ele>
        <time>2022-04-21T13:59:00Z</time>
      </trkpt>
      <trkpt lat="50.28203" lon="4.31933">
        <ele>162.6</ele>
        <time>2022-04-21T13:59:09Z</time>
      </trkpt>
      <trkpt lat="50.28239" lon="4.31984">
        <ele>162.2</ele>
        <time>2022-04-21T13:59:18Z</time>
      </trkpt>
      <trkpt lat="50.28268" lon="4.32024">
        <ele>162</ele>
        <time>2022-04-21T13:59:25Z</time>
      </trkpt>
      <trkpt lat="50.28298" lon="4.32064">
        <ele>161.8</ele>
        <time>2022-04-21T13:59:32Z</time>
      </trkpt>
      <trkpt lat="50.28306" lon="4.32076">
        <ele>161.8</ele>
        <time>2022-04-21T13:59:34Z</time>
      </trkpt>
      <trkpt lat="50.28317" lon="4.32089">
        <ele>161.8</ele>
        <time>2022-04-21T13:59:37Z</time>
      </trkpt>
      <trkpt lat="50.28339" lon="4.32117">
        <ele>161.6</ele>
        <time>2022-04-21T13:59:43Z</time>
      </trkpt>
      <trkpt lat="50.28344" lon="4.32125">
        <ele>161.6</ele>
        <time>2022-04-21T13:59:46Z</time>
      </trkpt>
      <trkpt lat="50.28347" lon="4.32142">
        <ele>161.4</ele>
        <time>2022-04-21T13:59:50Z</time>
      </trkpt>
      <trkpt lat="50.28356" lon="4.32163">
        <ele>161.2</ele>
        <time>2022-04-21T13:59:54Z</time>
      </trkpt>
      <trkpt lat="50.28384" lon="4.32204">
        <ele>160.6</ele>
        <time>2022-04-21T14:00:00Z</time>
      </trkpt>
      <trkpt lat="50.28419" lon="4.32259">
        <ele>160</ele>
        <time>2022-04-21T14:00:08Z</time>
      </trkpt>
      <trkpt lat="50.28446" lon="4.32298">
        <ele>159.4</ele>
        <time>2022-04-21T14:00:14Z</time>
      </trkpt>
      <trkpt lat="50.28481" lon="4.32353">
        <ele>158.4</ele>
        <time>2022-04-21T14:00:22Z</time>
      </trkpt>
      <trkpt lat="50.28522" lon="4.32414">
        <ele>157.4</ele>
        <time>2022-04-21T14:00:31Z</time>
      </trkpt>
      <trkpt lat="50.28525" lon="4.32421">
        <ele>157.2</ele>
        <time>2022-04-21T14:00:32Z</time>
      </trkpt>
      <trkpt lat="50.28538" lon="4.32441">
        <ele>156.6</ele>
        <time>2022-04-21T14:00:35Z</time>
      </trkpt>
      <trkpt lat="50.28568" lon="4.32488">
        <ele>155</ele>
        <time>2022-04-21T14:00:42Z</time>
      </trkpt>
      <trkpt lat="50.28595" lon="4.32531">
        <ele>153.8</ele>
        <time>2022-04-21T14:00:48Z</time>
      </trkpt>
      <trkpt lat="50.28623" lon="4.32569">
        <ele>152.6</ele>
        <time>2022-04-21T14:00:54Z</time>
      </trkpt>
      <trkpt lat="50.28655" lon="4.32616">
        <ele>150.8</ele>
        <time>2022-04-21T14:01:01Z</time>
      </trkpt>
      <trkpt lat="50.28687" lon="4.3267">
        <ele>150.2</ele>
        <time>2022-04-21T14:01:09Z</time>
      </trkpt>
      <trkpt lat="50.28723" lon="4.32724">
        <ele>150</ele>
        <time>2022-04-21T14:01:17Z</time>
      </trkpt>
      <trkpt lat="50.28745" lon="4.32756">
        <ele>149.4</ele>
        <time>2022-04-21T14:01:22Z</time>
      </trkpt>
      <trkpt lat="50.28753" lon="4.32769">
        <ele>149.4</ele>
        <time>2022-04-21T14:01:24Z</time>
      </trkpt>
      <trkpt lat="50.28782" lon="4.32815">
        <ele>149</ele>
        <time>2022-04-21T14:01:31Z</time>
      </trkpt>
      <trkpt lat="50.28813" lon="4.32858">
        <ele>148.4</ele>
        <time>2022-04-21T14:01:38Z</time>
      </trkpt>
      <trkpt lat="50.2883" lon="4.32883">
        <ele>148.2</ele>
        <time>2022-04-21T14:01:42Z</time>
      </trkpt>
      <trkpt lat="50.28839" lon="4.32896">
        <ele>148</ele>
        <time>2022-04-21T14:01:44Z</time>
      </trkpt>
      <trkpt lat="50.28867" lon="4.32939">
        <ele>147.8</ele>
        <time>2022-04-21T14:01:51Z</time>
      </trkpt>
      <trkpt lat="50.28871" lon="4.32945">
        <ele>147.8</ele>
        <time>2022-04-21T14:01:52Z</time>
      </trkpt>
      <trkpt lat="50.28885" lon="4.3296">
        <ele>147.4</ele>
        <time>2022-04-21T14:01:55Z</time>
      </trkpt>
      <trkpt lat="50.28889" lon="4.32965">
        <ele>147.2</ele>
        <time>2022-04-21T14:01:56Z</time>
      </trkpt>
      <trkpt lat="50.28894" lon="4.3297">
        <ele>147</ele>
        <time>2022-04-21T14:01:57Z</time>
      </trkpt>
      <trkpt lat="50.28908" lon="4.32987">
        <ele>146.6</ele>
        <time>2022-04-21T14:02:00Z</time>
      </trkpt>
      <trkpt lat="50.28942" lon="4.33024">
        <ele>146.8</ele>
        <time>2022-04-21T14:02:07Z</time>
      </trkpt>
      <trkpt lat="50.28992" lon="4.33066">
        <ele>147</ele>
        <time>2022-04-21T14:02:17Z</time>
      </trkpt>
      <trkpt lat="50.29026" lon="4.33093">
        <ele>147.2</ele>
        <time>2022-04-21T14:02:24Z</time>
      </trkpt>
      <trkpt lat="50.29036" lon="4.33101">
        <ele>147.4</ele>
        <time>2022-04-21T14:02:26Z</time>
      </trkpt>
      <trkpt lat="50.29076" lon="4.33132">
        <ele>147.6</ele>
        <time>2022-04-21T14:02:34Z</time>
      </trkpt>
      <trkpt lat="50.29086" lon="4.33139">
        <ele>147.6</ele>
        <time>2022-04-21T14:02:36Z</time>
      </trkpt>
      <trkpt lat="50.29094" lon="4.33143">
        <ele>147.8</ele>
        <time>2022-04-21T14:02:38Z</time>
      </trkpt>
      <trkpt lat="50.29101" lon="4.33149">
        <ele>147.8</ele>
        <time>2022-04-21T14:02:40Z</time>
      </trkpt>
      <trkpt lat="50.29108" lon="4.33155">
        <ele>147.8</ele>
        <time>2022-04-21T14:02:42Z</time>
      </trkpt>
      <trkpt lat="50.2912" lon="4.33168">
        <ele>148</ele>
        <time>2022-04-21T14:02:45Z</time>
      </trkpt>
      <trkpt lat="50.29132" lon="4.33177">
        <ele>148.4</ele>
        <time>2022-04-21T14:02:48Z</time>
      </trkpt>
      <trkpt lat="50.29152" lon="4.33194">
        <ele>148.8</ele>
        <time>2022-04-21T14:02:53Z</time>
      </trkpt>
      <trkpt lat="50.29161" lon="4.33201">
        <ele>148.8</ele>
        <time>2022-04-21T14:02:55Z</time>
      </trkpt>
      <trkpt lat="50.29179" lon="4.33215">
        <ele>149</ele>
        <time>2022-04-21T14:02:59Z</time>
      </trkpt>
      <trkpt lat="50.29191" lon="4.33225">
        <ele>149</ele>
        <time>2022-04-21T14:03:03Z</time>
      </trkpt>
      <trkpt lat="50.29194" lon="4.33234">
        <ele>149.2</ele>
        <time>2022-04-21T14:03:05Z</time>
      </trkpt>
      <trkpt lat="50.29194" lon="4.3324">
        <ele>149.2</ele>
        <time>2022-04-21T14:03:06Z</time>
      </trkpt>
      <trkpt lat="50.29192" lon="4.33245">
        <ele>149.2</ele>
        <time>2022-04-21T14:03:07Z</time>
      </trkpt>
      <trkpt lat="50.29186" lon="4.33257">
        <ele>149.4</ele>
        <time>2022-04-21T14:03:09Z</time>
      </trkpt>
      <trkpt lat="50.29183" lon="4.33263">
        <ele>149.4</ele>
        <time>2022-04-21T14:03:10Z</time>
      </trkpt>
      <trkpt lat="50.2918" lon="4.33269">
        <ele>149.6</ele>
        <time>2022-04-21T14:03:11Z</time>
      </trkpt>
      <trkpt lat="50.2917" lon="4.33296">
        <ele>150</ele>
        <time>2022-04-21T14:03:15Z</time>
      </trkpt>
      <trkpt lat="50.29149" lon="4.33352">
        <ele>150.6</ele>
        <time>2022-04-21T14:03:23Z</time>
      </trkpt>
      <trkpt lat="50.29138" lon="4.33387">
        <ele>151</ele>
        <time>2022-04-21T14:03:28Z</time>
      </trkpt>
      <trkpt lat="50.29136" lon="4.33394">
        <ele>151</ele>
        <time>2022-04-21T14:03:29Z</time>
      </trkpt>
      <trkpt lat="50.29134" lon="4.33401">
        <ele>151</ele>
        <time>2022-04-21T14:03:30Z</time>
      </trkpt>
      <trkpt lat="50.29121" lon="4.33424">
        <ele>151.4</ele>
        <time>2022-04-21T14:03:34Z</time>
      </trkpt>
      <trkpt lat="50.29118" lon="4.3343">
        <ele>151.4</ele>
        <time>2022-04-21T14:03:35Z</time>
      </trkpt>
      <trkpt lat="50.29103" lon="4.33462">
        <ele>151.8</ele>
        <time>2022-04-21T14:03:40Z</time>
      </trkpt>
      <trkpt lat="50.29078" lon="4.33517">
        <ele>152.6</ele>
        <time>2022-04-21T14:03:49Z</time>
      </trkpt>
      <trkpt lat="50.2905" lon="4.33573">
        <ele>153.6</ele>
        <time>2022-04-21T14:03:59Z</time>
      </trkpt>
      <trkpt lat="50.29023" lon="4.33633">
        <ele>154.8</ele>
        <time>2022-04-21T14:04:09Z</time>
      </trkpt>
      <trkpt lat="50.29009" lon="4.33672">
        <ele>155.6</ele>
        <time>2022-04-21T14:04:15Z</time>
      </trkpt>
      <trkpt lat="50.29009" lon="4.33686">
        <ele>155.8</ele>
        <time>2022-04-21T14:04:17Z</time>
      </trkpt>
      <trkpt lat="50.29012" lon="4.337">
        <ele>156</ele>
        <time>2022-04-21T14:04:19Z</time>
      </trkpt>
      <trkpt lat="50.29016" lon="4.33714">
        <ele>156.2</ele>
        <time>2022-04-21T14:04:21Z</time>
      </trkpt>
      <trkpt lat="50.2902" lon="4.33736">
        <ele>156.4</ele>
        <time>2022-04-21T14:04:24Z</time>
      </trkpt>
      <trkpt lat="50.29039" lon="4.3381">
        <ele>157.2</ele>
        <time>2022-04-21T14:04:34Z</time>
      </trkpt>
      <trkpt lat="50.29057" lon="4.3388">
        <ele>157.8</ele>
        <time>2022-04-21T14:04:43Z</time>
      </trkpt>
      <trkpt lat="50.29076" lon="4.33955">
        <ele>158.2</ele>
        <time>2022-04-21T14:04:52Z</time>
      </trkpt>
      <trkpt lat="50.29092" lon="4.34023">
        <ele>158.2</ele>
        <time>2022-04-21T14:05:00Z</time>
      </trkpt>
      <trkpt lat="50.2911" lon="4.34094">
        <ele>158.2</ele>
        <time>2022-04-21T14:05:08Z</time>
      </trkpt>
      <trkpt lat="50.29116" lon="4.34121">
        <ele>158.6</ele>
        <time>2022-04-21T14:05:11Z</time>
      </trkpt>
      <trkpt lat="50.29123" lon="4.34147">
        <ele>157.8</ele>
        <time>2022-04-21T14:05:14Z</time>
      </trkpt>
      <trkpt lat="50.29139" lon="4.34206">
        <ele>157.6</ele>
        <time>2022-04-21T14:05:21Z</time>
      </trkpt>
      <trkpt lat="50.29148" lon="4.34259">
        <ele>157.2</ele>
        <time>2022-04-21T14:05:28Z</time>
      </trkpt>
      <trkpt lat="50.29146" lon="4.34304">
        <ele>156.8</ele>
        <time>2022-04-21T14:05:34Z</time>
      </trkpt>
      <trkpt lat="50.29146" lon="4.34311">
        <ele>157</ele>
        <time>2022-04-21T14:05:35Z</time>
      </trkpt>
      <trkpt lat="50.29149" lon="4.34332">
        <ele>157</ele>
        <time>2022-04-21T14:05:38Z</time>
      </trkpt>
      <trkpt lat="50.29151" lon="4.34345">
        <ele>157</ele>
        <time>2022-04-21T14:05:40Z</time>
      </trkpt>
      <trkpt lat="50.29156" lon="4.3437">
        <ele>157</ele>
        <time>2022-04-21T14:05:44Z</time>
      </trkpt>
      <trkpt lat="50.29158" lon="4.34387">
        <ele>157</ele>
        <time>2022-04-21T14:05:47Z</time>
      </trkpt>
      <trkpt lat="50.29162" lon="4.34394">
        <ele>157</ele>
        <time>2022-04-21T14:05:49Z</time>
      </trkpt>
      <trkpt lat="50.29168" lon="4.34396">
        <ele>157.4</ele>
        <time>2022-04-21T14:05:51Z</time>
      </trkpt>
      <trkpt lat="50.29171" lon="4.34394">
        <ele>157.6</ele>
        <time>2022-04-21T14:05:52Z</time>
      </trkpt>
      <trkpt lat="50.29186" lon="4.3438">
        <ele>157.8</ele>
        <time>2022-04-21T14:05:58Z</time>
      </trkpt>
      <trkpt lat="50.29189" lon="4.34378">
        <ele>157.8</ele>
        <time>2022-04-21T14:05:59Z</time>
      </trkpt>
      <trkpt lat="50.29188" lon="4.34373">
        <ele>157.8</ele>
        <time>2022-04-21T14:06:01Z</time>
      </trkpt>
      <trkpt lat="50.29187" lon="4.34373">
        <ele>158</ele>
        <time>2022-04-21T14:06:05Z</time>
      </trkpt>
      <trkpt lat="50.29187" lon="4.34373">
        <ele>158.2</ele>
        <time>2022-04-21T14:06:14Z</time>
      </trkpt>
      <trkpt lat="50.29187" lon="4.34373">
        <ele>158.4</ele>
        <time>2022-04-21T14:06:22Z</time>
      </trkpt>
      <trkpt lat="50.29187" lon="4.34373">
        <ele>158.6</ele>
        <time>2022-04-21T14:06:28Z</time>
      </trkpt>
      <trkpt lat="50.29187" lon="4.34373">
        <ele>158.8</ele>
        <time>2022-04-21T14:06:39Z</time>
      </trkpt>
      <trkpt lat="50.29187" lon="4.34373">
        <ele>158.8</ele>
        <time>2022-04-21T14:06:46Z</time>
      </trkpt>
      <trkpt lat="50.29187" lon="4.34373">
        <ele>159</ele>
        <time>2022-04-21T14:06:49Z</time>
      </trkpt>
    </trkseg>
  </trk>
</gpx>